[[{"header":{"parameterUnit":"m.s-1","parameterCategory":1,"la1":31.0,"la2":29.5877,"lo1":-88.7671,"lo2":-86.6584,"dy":0.0162,"dx":0.0185,"nx":115,"ny":88,"refTime":"2024-05-28T12:00:00:Z","depth":0,"parameterNumber":2,"parameterNumberName":"U-component_of_WINDS"},"data":[0.0,0.0,0.0,0.0,0.0,0.0,0.0,0.0,0.0,0.0,0.0,0.0,0.0,0.0,0.0,0.0,0.0,0.0,0.0,0.0,0.0,0.0,0.0,0.0,0.0,0.0,0.0,0.0,0.0,0.0,0.0,0.0,0.0,0.0,0.0,0.0,0.0,0.0,0.0,0.0,0.0,0.0,0.0,0.0,0.0,0.0,0.0,0.0,0.0,0.0,0.0,0.0,0.0,0.0,0.0,0.0,0.0,0.0,0.0,0.0,0.0,0.0,0.0,0.0,0.0,0.0,0.0,0.0,0.0,0.0,0.0,0.0,0.0,0.0,0.0,0.0,0.0,0.0,0.0,0.0,0.0,0.0,0.0,0.0,0.0,0.0,0.0,0.0,0.0,0.0,0.0,0.0,0.0,0.0,0.0,0.0,0.0,0.0,0.0,0.0,0.0,0.0,0.0,0.0,0.0,0.0,0.0,0.0,0.0,0.0,0.0,0.0,0.0,0.0,0.0,0.0,0.0,0.0,0.0,0.0,0.0,0.0,0.0,0.0,0.0,0.0,0.0,0.0,0.0,0.0,0.0,0.0,0.0,0.0,0.0,0.0,0.0,0.0,0.0,0.0,0.0,0.0,0.0,0.0,0.0,0.0,0.0,0.0,0.0,0.0,0.0,0.0,0.0,0.0,0.0,0.0,0.0,0.0,0.0,0.0,0.0,0.0,0.0,0.0,0.0,0.0,0.0,0.0,0.0,0.0,0.0,0.0,0.0,0.0,0.0,0.0,0.0,0.0,0.0,0.0,0.0,0.0,0.0,0.0,0.0,0.0,0.0,0.0,0.0,0.0,0.0,0.0,0.0,0.0,0.0,0.0,0.0,0.0,0.0,0.0,0.0,0.0,0.0,0.0,0.0,0.0,0.0,0.0,0.0,0.0,0.0,0.0,0.0,0.0,0.0,0.0,0.0,0.0,0.0,0.0,0.0,0.0,0.0,0.0,0.0,0.0,0.0,0.0,0.0,0.0,0.0,0.0,0.0,0.0,0.0,0.0,0.0,0.0,0.0,0.0,0.0,0.0,0.0,0.0,0.0,0.0,0.0,0.0,0.0,0.0,0.0,0.0,0.0,0.0,0.0,0.0,0.0,0.0,0.0,0.0,0.0,0.0,0.0,0.0,0.0,0.0,0.0,0.0,0.0,0.0,0.0,0.0,0.0,0.0,0.0,0.0,0.0,0.0,0.0,0.0,0.0,0.0,0.0,0.0,0.0,0.0,0.0,0.0,0.0,0.0,0.0,0.0,0.0,0.0,0.0,0.0,0.0,0.0,0.0,0.0,0.0,0.0,0.0,0.0,0.0,0.0,0.0,0.0,0.0,0.0,0.0,0.0,0.0,0.0,0.0,0.0,0.0,0.0,0.0,0.0,0.0,0.0,0.0,0.0,0.0,0.0,0.0,0.0,0.0,0.0,0.0,0.0,0.0,0.0,0.0,0.0,0.0,0.0,0.0,0.0,0.0,0.0,0.0,0.0,0.0,0.0,0.0,0.0,0.0,0.0,0.0,0.0,0.0,0.0,0.0,0.0,0.0,0.0,0.0,0.0,0.0,0.0,0.0,0.0,0.0,0.0,0.0,0.0,0.0,0.0,0.0,0.0,0.0,0.0,0.0,0.0,0.0,0.0,0.0,0.0,0.0,0.0,0.0,0.0,0.0,0.0,0.0,0.0,0.0,0.0,0.0,0.0,0.0,0.0,0.0,0.0,0.0,0.0,0.0,0.0,0.0,0.0,0.0,0.0,0.0,0.0,0.0,0.0,0.0,0.0,0.0,0.0,0.0,0.0,0.0,0.0,0.0,0.0,0.0,0.0,0.0,0.0,0.0,0.0,0.0,0.0,0.0,0.0,0.0,0.0,0.0,0.0,0.0,0.0,0.0,0.0,0.0,0.0,0.0,0.0,0.0,0.0,0.0,0.0,0.0,0.0,0.0,0.0,0.0,0.0,0.0,0.0,0.0,0.0,0.0,0.0,0.0,0.0,0.0,0.0,0.0,0.0,0.0,0.0,0.0,0.0,0.0,0.0,0.0,0.0,0.0,0.0,0.0,0.0,0.0,0.0,0.0,0.0,0.0,0.0,0.0,0.0,0.0,0.0,0.0,0.0,0.0,0.0,0.0,0.0,0.0,0.0,0.0,0.0,0.0,0.0,0.0,0.0,0.0,0.0,0.0,0.0,0.0,0.0,0.0,0.0,0.0,0.0,0.0,0.0,0.0,0.0,0.0,0.0,0.0,0.0,0.0,0.0,0.0,0.0,0.0,0.0,0.0,0.0,0.0,0.0,0.0,0.0,0.0,0.0,0.0,0.0,0.0,0.0,0.0,0.0,0.0,0.0,0.0,0.0,0.0,0.0,0.0,0.0,0.0,0.0,0.0,0.0,0.0,0.0,0.0,0.0,0.0,0.0,0.0,0.0,0.0,0.0,0.0,0.0,0.0,0.0,0.0,0.0,0.0,0.0,0.0,0.0,0.0,0.0,0.0,0.0,0.0,0.0,0.0,0.0,0.0,0.0,0.0,0.0,0.0,0.0,0.0,0.0,0.0,0.0,0.0,0.0,0.0,0.0,0.0,0.0,0.0,0.0,0.0,0.0,0.0,0.0,0.0,0.0,0.0,0.0,0.0,0.0,0.0,0.0,0.0,0.0,0.0,0.0,0.0,0.0,0.0,0.0,0.0,0.0,0.0,0.0,0.0,0.0,0.0,0.0,0.0,0.0,0.0,0.0,0.0,0.0,0.0,0.0,0.0,0.0,0.0,0.0,0.0,0.0,0.0,0.0,0.0,0.0,0.0,0.0,0.0,0.0,0.0,0.0,0.0,0.0,0.0,0.0,0.0,0.0,0.0,0.0,0.0,0.0,0.0,0.0,0.0,0.0,0.0,0.0,0.0,0.0,0.0,0.0,0.0,0.0,0.0,0.0,0.0,0.0,0.0,0.0,0.0,0.0,0.0,0.0,0.0,0.0,0.0,0.0,0.0,0.0,0.0,0.0,0.0,0.0,0.0,0.0,0.0,0.0,0.0,0.0,0.0,0.0,0.0,0.0,0.0,0.0,0.0,0.0,0.0,0.0,0.0,0.0,0.0,0.0,0.0,0.0,0.0,0.0,0.0,0.0,0.0,0.0,0.0,0.0,0.0,0.0,0.0,0.0,0.0,0.0,0.0,0.0,0.0,0.0,0.0,0.0,0.0,0.0,0.0,0.0,0.0,0.0,0.0,0.0,0.0,0.0,0.0,0.0,0.0,0.0,0.0,0.0,0.0,0.0,0.0,0.0,0.0,0.0,0.0,0.0,0.0,0.0,0.0,0.0,0.0,0.0,0.0,0.0,0.0,0.0,0.0,0.0,0.0,0.0,0.0,0.0,0.0,0.0,0.0,0.0,0.0,0.0,0.0,0.0,0.0,0.0,0.0,0.0,0.0,0.0,0.0,0.0,0.0,0.0,0.0,0.0,0.0,0.0,0.0,0.0,0.0,0.0,0.0,0.0,0.0,0.0,0.0,0.0,0.0,0.0,0.0,0.0,0.0,0.0,0.0,0.0,0.0,0.0,0.0,0.0,0.0,0.0,0.0,0.0,0.0,0.0,0.0,0.0,0.0,0.0,0.0,0.0,0.0,0.0,0.0,0.0,0.0,0.0,0.0,0.0,0.0,0.0,0.0,0.0,0.0,0.0,0.0,0.0,0.0,0.0,0.0,0.0,0.0,0.0,0.0,0.0,0.0,0.0,0.0,0.0,0.0,0.0,0.0,0.0,0.0,0.0,0.0,0.0,0.0,0.0,0.0,0.0,0.0,0.0,0.0,0.0,0.0,0.0,0.0,0.0,0.0,0.0,0.0,0.0,0.0,0.0,0.0,0.0,0.0,0.0,0.0,0.0,0.0,0.0,0.0,0.0,0.0,0.0,0.0,0.0,0.0,0.0,0.0,0.0,0.0,0.0,0.0,0.0,0.0,0.0,0.0,0.0,0.0,0.0,0.0,0.0,0.0,0.0,0.0,0.0,0.0,0.0,0.0,0.0,0.0,0.0,0.0,0.0,0.0,0.0,0.0,0.0,0.0,0.0,0.0,0.0,0.0,0.0,0.0,0.0,0.0,0.0,0.0,0.0,0.0,0.0,0.0,0.0,0.0,0.0,0.0,0.0,0.0,0.0,0.0,0.0,0.0,0.0,0.0,0.0,0.0,0.0,0.0,0.0,0.0,0.0,0.0,0.0,0.0,0.0,0.0,0.0,0.5819,0.0,0.0,0.0,0.0,0.0,0.0,0.0,0.0,0.0,0.0,0.0,0.0,0.0,0.0,0.0,0.0,0.0,0.0,0.0,0.0,0.0,0.0,0.0,0.0,0.0,0.0,0.0,0.0,0.0,0.0,0.0,0.0,0.0,0.0,0.0,0.0,0.0,0.0,0.0,0.0,0.0,0.0,0.0,0.0,0.0,0.0,0.0,0.0,0.0,0.0,0.0,0.0,0.0,0.0,0.0,0.0,0.0,0.0,0.0,0.0,0.0,0.0,0.0,0.0,0.0,0.0,0.0,0.0,0.0,0.0,0.0,0.0,0.0,0.0,0.0,0.0,0.0,0.0,0.0,0.0,0.0,0.0,0.0,0.0,0.0,0.0,0.0,0.0,0.0,0.0,0.0,0.0,0.0,0.0,0.0,0.0,0.0,0.0,0.0,0.0,0.0,0.0,0.0,0.0,0.0,0.0,0.0,0.0,0.0,0.0,0.6715,0.6659,0.638,0.6083,0.5752,0.0,0.0,0.0,0.0,0.0,0.0,0.0,0.0,0.0,0.0,0.0,0.0,0.0,0.0,0.0,0.0,0.0,0.0,0.0,0.0,0.0,0.0,0.0,0.0,0.0,0.0,0.0,0.0,0.0,0.0,0.0,0.0,0.0,0.0,0.0,0.0,0.0,0.0,0.0,0.0,0.0,0.0,0.0,0.0,0.0,0.0,0.0,0.0,0.0,0.0,0.0,0.0,0.0,0.0,0.0,0.0,0.0,0.0,0.0,0.0,0.0,0.0,0.0,0.0,0.0,0.0,0.0,0.0,0.0,0.0,0.0,0.0,0.0,0.0,0.0,0.0,0.0,0.0,0.0,0.0,0.0,0.0,0.0,0.0,0.0,0.0,0.0,0.0,0.0,0.0,0.0,0.0,0.0,0.0,0.0,0.0,0.0,0.0,0.0,0.0,0.0,0.0,0.0,0.0,0.0,0.0,0.0,0.0,0.0,0.0,0.0,0.0,0.6367,0.5995,0.5551,0.0,0.0,0.0,0.0,0.0,0.0,0.0,0.0,0.0,0.0,0.0,0.0,0.0,0.0,0.0,0.0,0.0,0.0,0.0,0.0,0.0,0.0,0.0,0.0,0.0,0.0,0.0,0.0,0.0,0.0,0.0,0.0,0.0,0.0,0.0,0.0,0.0,0.0,0.0,0.0,0.0,0.0,0.0,0.0,0.0,0.0,0.0,0.0,0.0,0.0,0.0,0.0,0.0,0.0,0.0,0.0,0.0,0.0,0.0,0.0,0.0,0.0,0.0,0.0,0.0,0.0,0.0,0.0,0.0,0.0,0.0,0.0,0.0,0.0,0.0,0.0,0.0,0.0,0.0,0.0,0.0,0.0,0.0,0.0,0.0,0.0,0.0,0.0,0.0,0.0,0.0,0.0,0.0,0.0,0.0,0.0,0.0,0.0,0.0,0.0,0.0,0.0,0.0,0.0,0.0,0.0,0.0,0.0,0.0,0.0,0.6803,0.6612,0.6343,0.0,0.5103,0.0,0.0,0.0,0.0,0.0,0.0,0.0,0.0,0.0,0.0,0.0,0.0,0.0,0.0,0.0,0.0,0.0,0.0,0.0,0.0,0.0,0.0,0.0,0.0,0.0,0.0,0.0,0.0,0.0,0.0,0.0,0.0,0.0,0.0,0.0,0.0,0.0,0.0,0.0,0.0,0.0,0.0,0.0,0.0,0.0,0.0,0.0,0.0,0.0,0.0,0.0,0.0,0.0,0.0,0.0,0.0,0.0,0.0,0.0,0.0,0.0,0.0,0.0,0.0,0.0,0.0,0.0,0.0,0.0,0.0,0.0,0.0,0.0,0.0,0.0,0.0,0.0,0.0,0.0,0.0,0.0,0.0,0.0,0.0,0.0,0.0,0.0,0.0,0.0,0.0,0.0,0.0,0.0,0.0,0.0,0.0,0.0,0.0,0.0,0.0,0.0,0.0,0.0,0.0,0.0,0.0,0.0,0.0,0.0,0.0,0.0,0.6599,0.607,0.5524,0.0,0.0,0.0,0.0,0.0,0.0,0.0,0.0,0.0,0.0,0.0,0.0,0.0,0.0,0.0,0.0,0.0,0.0,0.0,0.0,0.0,0.0,0.0,0.0,0.0,0.0,0.0,0.0,0.0,0.0,0.0,0.0,0.0,0.0,0.0,0.0,0.0,0.0,0.0,0.0,0.0,0.0,0.0,0.0,0.0,0.0,0.0,0.0,0.0,0.0,0.0,0.0,0.0,0.0,0.0,0.0,0.0,0.0,0.0,0.0,0.0,0.0,0.0,0.0,0.0,0.0,0.0,0.0,0.0,0.0,0.0,0.0,0.0,0.0,0.0,0.0,0.0,0.0,0.0,0.0,0.0,0.0,0.0,0.0,0.0,0.0,0.0,0.0,0.0,0.0,0.0,0.0,0.0,0.0,0.0,0.0,0.0,0.0,0.0,0.0,0.0,0.0,0.0,0.0,0.0,0.0,0.0,0.0,0.0,0.0,0.6956,0.0,0.6457,0.586,0.5354,0.5015,0.0,0.0,0.0,0.0,0.0,0.0,0.0,0.0,0.0,0.0,0.0,0.0,0.0,0.0,0.0,0.0,0.0,0.0,0.0,0.0,0.0,0.0,0.0,0.0,0.0,0.0,0.0,0.0,0.0,0.0,0.0,0.0,0.0,0.0,0.0,0.0,0.0,0.0,0.0,0.0,0.0,0.0,0.0,0.0,0.0,0.0,0.0,0.0,0.0,0.0,0.0,0.0,0.0,0.0,0.0,0.0,0.0,0.0,0.0,0.0,0.0,0.0,0.0,0.0,0.0,0.0,0.0,0.0,0.0,0.0,0.0,0.0,0.0,0.0,0.0,0.0,0.0,0.0,0.0,0.0,0.0,0.0,0.0,0.0,0.0,0.0,0.0,0.0,0.0,0.0,0.0,0.0,0.0,0.0,0.0,0.0,0.0,0.0,0.0,0.0,0.0,0.0,0.0,0.0,0.0,0.0,0.0,0.0,0.0,0.7039,0.6727,0.6171,0.5774,0.5396,0.0,0.0,0.0,0.0,0.0,0.0,0.0,0.0,0.0,0.0,0.0,0.0,0.0,0.0,0.0,0.0,0.0,0.0,0.0,0.0,0.0,0.0,0.0,0.0,0.0,0.0,0.0,0.0,0.0,0.0,0.0,0.0,0.0,0.0,0.0,0.0,0.0,0.0,0.0,0.0,0.0,0.0,0.0,0.0,0.0,0.0,0.0,0.0,0.0,0.0,0.0,0.0,0.0,0.0,0.0,0.0,0.0,0.0,0.0,0.0,0.0,0.0,0.0,0.0,0.0,0.0,0.0,0.0,0.0,0.0,0.0,0.0,0.0,0.0,0.0,0.0,0.0,0.0,0.0,0.0,0.0,0.0,0.0,0.0,0.0,0.0,0.0,0.0,0.0,0.0,0.0,0.0,0.0,0.0,0.0,0.0,0.0,0.0,0.0,0.0,0.0,0.0,0.0,0.0,0.0,0.0,0.0,0.0,0.0,0.7213,0.7323,0.7169,0.0,0.6287,0.5719,0.0,0.0,0.0,0.0,0.0,0.0,0.0,0.0,0.0,0.0,0.0,0.0,0.0,0.0,0.0,0.0,0.0,0.0,0.0,0.0,0.0,0.0,0.0,0.0,0.0,0.0,0.0,0.0,0.0,0.0,0.0,0.0,0.0,0.0,0.0,0.0,0.0,0.0,0.0,0.0,0.0,0.0,0.0,0.0,0.0,0.0,0.0,0.0,0.0,0.0,0.0,0.0,0.0,0.0,0.0,0.0,0.0,0.0,0.0,0.0,0.0,0.0,0.0,0.0,0.0,0.0,0.0,0.0,0.0,0.0,0.0,0.0,0.0,0.0,0.0,0.0,0.0,0.0,0.0,0.0,0.0,0.0,0.0,0.0,0.0,0.0,0.0,0.0,0.0,0.0,0.0,0.0,0.0,0.0,0.0,0.0,0.0,0.0,0.0,0.0,0.0,0.0,0.0,0.0,0.0,0.0,0.0,0.0,0.0,0.7546,0.0,0.7659,0.0,0.6621,0.5936,0.0,0.0,0.0,0.0,0.0,0.0,0.0,0.0,0.0,0.0,0.0,0.0,0.0,0.0,0.0,0.0,0.0,0.0,0.0,0.0,0.0,0.0,0.0,0.0,0.0,0.0,0.0,0.0,0.0,0.0,0.0,0.0,0.0,0.0,0.0,0.0,0.0,0.0,0.0,0.0,0.0,0.0,0.0,0.0,0.0,0.0,0.0,0.0,0.0,0.0,0.0,0.0,0.0,0.0,0.0,0.0,0.0,0.0,0.0,0.0,0.0,0.0,0.0,0.0,0.0,0.0,0.0,0.0,0.0,0.0,0.0,0.0,0.0,0.0,0.0,0.0,0.0,0.0,0.0,0.0,0.0,0.0,0.0,0.0,0.0,0.0,0.0,0.0,0.0,0.0,0.0,0.0,0.0,0.0,0.0,0.0,0.0,0.0,0.0,0.0,0.0,0.0,0.0,0.0,0.0,0.0,0.0,0.0,0.7475,0.81,0.8419,0.8147,0.7155,0.6744,0.607,0.0,0.0,0.0,0.0,0.0,0.0,0.0,0.0,0.0,0.0,0.0,0.0,0.0,0.0,0.0,0.0,0.0,0.0,0.0,0.0,0.0,0.0,0.0,0.0,0.0,0.0,0.0,0.0,0.0,0.0,0.0,0.0,0.0,0.0,0.0,0.0,0.0,0.0,0.0,0.0,0.0,0.0,0.0,0.0,0.0,0.0,0.0,0.0,0.0,0.0,0.0,0.0,0.0,0.0,0.0,0.0,0.0,0.0,0.0,0.0,0.0,0.0,0.0,0.0,0.0,0.0,0.0,0.0,0.0,0.0,0.0,0.0,0.0,0.0,0.0,0.0,0.0,0.0,0.0,0.0,0.0,0.0,0.0,0.0,0.0,0.0,0.0,0.0,0.0,0.0,0.0,0.0,0.0,0.0,0.0,0.0,0.0,0.0,0.0,0.0,0.0,0.0,0.0,0.0,0.0,0.0,0.0,0.0,0.0,0.872,0.8959,0.8821,0.8268,0.7434,0.658,0.0,0.0,0.0,0.0,0.0,0.0,0.0,0.0,0.0,0.0,0.0,0.0,0.0,0.0,0.0,0.0,0.0,0.0,0.0,0.0,0.0,0.0,0.0,0.0,0.0,0.0,0.0,0.0,0.0,0.0,0.0,0.0,0.0,0.0,0.0,0.0,0.0,0.0,0.0,0.0,0.0,0.0,0.0,0.0,0.0,0.0,0.0,0.0,0.0,0.0,0.0,0.0,0.0,0.0,0.0,0.0,0.0,0.0,0.0,0.0,0.0,0.0,0.0,0.0,0.0,0.0,0.0,0.0,0.0,0.0,0.0,0.0,0.0,0.0,0.0,0.0,0.0,0.0,0.0,0.0,0.0,0.0,0.0,0.0,0.0,0.0,0.0,0.0,0.0,0.0,0.0,0.0,0.0,0.0,0.0,0.0,0.0,0.0,0.0,0.0,0.0,0.0,0.0,0.0,0.0,0.0,0.0,0.0,0.0,0.9847,1.0102,0.9881,0.9082,0.8247,0.7199,0.5991,0.0,0.0,0.0,0.0,0.0,0.0,0.0,0.0,0.0,0.0,0.0,0.0,0.0,0.0,0.0,0.0,0.0,0.0,0.0,0.0,0.0,0.0,0.0,0.0,0.0,0.0,0.0,0.0,0.0,0.0,0.0,0.0,0.0,0.0,0.0,0.0,0.0,0.0,0.0,0.0,0.0,0.0,0.0,0.0,0.0,0.0,0.0,0.0,0.0,0.0,0.0,0.0,0.0,0.0,0.0,0.0,0.0,0.0,0.0,0.0,0.0,0.0,0.0,0.0,0.0,0.0,0.0,0.0,0.0,0.0,0.0,0.0,0.0,0.0,0.0,0.0,0.0,0.0,0.0,0.0,0.0,0.0,0.0,0.0,0.0,0.0,0.0,0.0,0.0,0.0,0.0,0.0,0.0,0.0,0.0,0.0,0.0,0.0,0.0,0.0,0.0,0.0,0.0,0.0,0.0,0.0,0.0,0.0,1.1339,1.1792,1.1255,0.9689,0.9118,0.7995,0.0,0.0,0.0,0.0,0.0,0.0,0.0,0.0,0.0,0.0,0.0,0.0,0.0,0.0,0.0,0.0,0.0,0.0,0.0,0.0,0.0,0.0,0.0,0.0,0.0,0.0,0.0,0.0,0.0,0.0,0.0,0.0,0.0,0.0,0.0,0.0,0.0,0.0,0.0,0.0,0.0,0.0,0.0,0.0,0.0,0.0,0.0,0.0,0.0,0.0,0.0,0.0,0.0,0.0,0.0,0.0,0.0,0.0,0.0,0.0,0.0,0.0,0.0,0.0,0.0,0.0,0.0,0.0,0.0,0.0,0.0,0.0,0.0,0.0,0.0,0.0,0.0,0.0,0.0,0.0,0.0,0.0,0.0,0.0,0.0,0.0,0.0,0.0,0.0,0.0,0.0,0.0,0.0,0.0,0.0,0.0,0.0,0.0,0.0,0.0,0.0,0.0,0.0,0.0,0.0,0.0,0.0,0.0,0.0,1.3059,1.3398,1.2747,1.118,0.9958,0.8849,0.0,0.0,0.0,0.0,0.0,0.0,0.0,0.0,0.0,0.0,0.0,0.0,0.0,0.0,0.0,0.0,0.0,0.0,0.0,0.0,0.0,0.0,0.0,0.0,0.0,0.0,0.0,0.0,0.0,0.0,0.0,0.0,0.0,0.0,0.0,0.0,0.0,0.0,0.0,0.0,0.0,0.0,0.0,0.0,0.0,0.0,0.0,0.0,0.0,0.0,0.0,0.0,0.0,0.0,0.0,0.0,0.0,0.0,0.0,0.0,0.0,0.0,0.0,0.0,0.0,0.0,0.0,0.0,0.0,0.0,0.0,0.0,0.0,0.0,0.0,0.0,0.0,0.0,0.0,0.0,0.0,0.0,0.0,0.0,0.0,0.0,0.0,0.0,0.0,0.0,0.0,0.0,0.0,0.0,0.0,0.0,0.0,0.0,0.0,0.0,0.0,0.0,0.0,0.0,0.0,0.0,0.0,0.0,1.2636,1.4062,1.4543,1.4224,1.3083,1.1366,0.9818,0.0,0.0,0.0,0.0,0.0,0.0,0.0,0.0,0.0,0.0,0.0,0.0,0.0,0.0,0.0,0.0,0.0,0.0,0.0,0.0,0.0,0.0,0.0,0.0,0.0,0.0,0.0,0.0,0.0,0.0,0.0,0.0,0.0,0.0,0.0,0.0,0.0,0.0,0.0,0.0,0.0,0.0,0.0,0.0,0.0,0.0,0.0,0.0,0.0,0.0,0.0,0.0,0.0,0.0,0.0,0.0,0.0,0.0,0.0,0.0,0.0,0.0,0.0,0.0,0.0,0.0,0.0,0.0,0.0,0.0,0.0,0.0,0.0,0.0,0.0,0.0,0.0,0.0,0.0,0.0,0.0,0.0,0.0,0.0,0.0,0.0,0.0,0.0,0.0,0.0,0.0,0.0,0.0,0.0,0.0,0.0,0.0,0.0,0.0,0.0,0.0,0.0,0.0,0.0,0.0,0.0,0.0,0.0,1.3157,1.4556,1.532,1.5455,1.4866,1.2935,1.0861,0.0,0.0,0.0,0.0,0.0,0.0,0.0,0.0,0.0,0.0,0.0,0.0,0.0,0.0,0.0,0.0,0.0,0.0,0.0,0.0,0.0,0.0,0.0,0.0,0.0,0.0,0.0,0.0,0.0,0.0,0.0,0.0,0.0,0.0,0.0,0.0,0.0,0.0,0.0,0.0,0.0,0.0,0.0,0.0,0.0,0.0,0.0,0.0,0.0,0.0,0.0,0.0,0.0,0.0,0.0,0.0,0.0,0.0,0.0,0.0,0.0,0.0,0.0,0.0,0.0,0.0,0.0,0.0,0.0,0.0,0.0,0.0,0.0,0.0,0.0,0.0,0.0,0.0,0.0,0.0,0.0,0.0,0.0,0.0,0.0,0.0,0.0,0.0,0.0,0.0,0.0,0.0,0.0,0.0,0.0,0.0,0.0,0.0,0.0,0.0,0.0,0.0,0.0,0.0,0.0,0.0,0.0,0.0,1.3602,1.5088,1.5491,1.5447,1.4912,1.3298,1.1721,0.0,0.0,0.0,0.0,0.0,0.0,0.0,0.0,0.0,0.0,0.0,0.0,0.0,0.0,0.0,0.0,0.0,0.0,0.0,0.0,0.0,0.0,0.0,0.0,0.0,0.0,0.0,0.0,0.0,0.0,0.0,0.0,0.0,0.0,0.0,0.0,0.0,0.0,0.0,0.0,0.0,0.0,0.0,0.0,0.0,0.0,0.0,0.0,1.187,0.0,0.0,0.0,0.0,0.0,0.0,0.0,0.0,0.0,0.0,0.0,0.0,0.0,0.0,0.0,0.0,0.0,0.0,0.0,0.0,0.0,0.0,0.0,0.0,0.0,0.0,0.0,0.0,0.0,0.0,0.0,0.0,0.0,0.0,0.0,0.0,0.0,0.0,0.0,0.0,0.0,0.0,0.0,0.0,0.0,0.0,0.0,0.0,0.0,0.0,0.0,0.0,0.0,0.0,0.0,0.0,0.0,0.0,0.0,1.4441,1.565,1.5937,1.586,1.5388,1.3933,1.2366,0.0,0.0,0.0,0.0,0.0,0.0,0.0,0.0,0.0,0.0,0.0,0.0,0.0,0.0,0.0,0.0,0.0,0.0,0.0,0.0,0.0,0.0,0.0,0.0,0.0,0.0,0.0,0.0,0.0,0.0,0.0,0.0,0.0,0.0,0.0,0.0,0.0,0.0,0.0,0.0,0.0,0.0,0.0,0.0,0.0,0.0,0.0,0.0,0.0,0.0,0.0,0.0,0.0,0.0,0.0,0.0,0.0,0.0,0.0,0.0,0.0,0.0,0.0,0.0,0.0,0.0,0.0,0.0,0.0,0.0,0.0,0.0,0.0,0.0,0.0,0.0,0.0,0.0,0.0,0.0,0.0,0.0,0.0,0.0,0.0,0.0,0.0,0.0,0.0,0.0,0.0,0.0,0.0,0.0,0.0,0.0,0.0,0.0,0.0,0.0,0.0,0.0,0.0,0.0,0.0,0.0,0.0,1.4028,1.5182,1.6046,1.6357,1.6349,1.5998,1.454,1.2834,1.0948,0.0,0.0,0.0,0.0,0.0,0.0,0.0,0.0,0.0,0.0,0.0,0.0,0.0,0.0,0.0,0.0,0.0,0.0,0.0,0.0,0.0,0.0,0.0,0.0,0.0,0.0,0.0,0.0,0.0,0.0,0.0,0.0,0.0,0.0,0.0,0.0,0.0,0.0,0.9634,1.1241,0.0,0.0,0.0,0.0,0.0,0.0,0.0,0.0,1.3,0.0,0.0,0.0,0.0,0.0,0.0,0.0,0.0,0.0,0.0,0.0,0.0,0.0,0.0,0.0,0.0,0.0,0.0,0.0,0.0,0.0,0.0,0.0,0.0,0.0,0.0,0.0,0.0,0.0,0.0,0.0,0.0,0.0,0.0,0.0,0.0,0.0,0.0,0.0,0.0,0.0,0.0,0.0,0.0,0.0,0.0,0.0,0.0,0.0,0.0,0.0,0.0,0.0,0.0,0.0,0.0,1.3048,1.4051,1.5035,1.5984,1.634,1.6337,1.5986,1.4666,1.3221,1.1653,0.0,0.0,0.0,0.0,0.0,0.0,0.0,0.0,0.0,0.0,0.0,0.0,0.0,0.0,0.0,0.0,0.0,0.0,0.0,0.0,0.0,0.0,0.0,0.0,0.0,0.0,0.0,0.0,0.0,0.0,0.0,0.0,0.0,0.0,0.0,0.0,0.0,0.0,0.0,1.2623,1.3649,0.0,0.0,0.0,0.0,0.0,0.0,0.0,0.0,1.4274,0.0,0.0,0.0,0.0,0.0,0.0,0.0,0.0,0.0,0.0,0.0,0.0,0.0,0.0,0.0,0.0,0.0,0.0,0.0,0.0,0.0,0.0,0.0,0.0,0.0,0.0,0.0,0.0,0.0,0.0,0.0,0.0,0.0,0.0,0.0,0.0,0.0,0.0,0.0,0.0,0.0,0.0,0.0,0.0,0.0,0.0,0.0,0.0,0.0,0.0,0.0,0.0,0.0,0.0,0.0,1.3467,1.4458,1.5373,1.6326,1.6447,1.6371,1.6087,1.4813,1.3404,0.0,0.0,0.0,0.0,0.0,0.0,0.0,0.0,0.0,0.0,0.0,0.0,0.0,0.0,0.0,0.0,0.0,0.0,0.0,0.0,0.0,0.0,0.0,0.0,0.0,0.0,0.0,0.0,0.0,0.0,0.0,0.0,0.0,0.0,0.0,0.0,0.0,0.0,0.0,0.0,1.3505,1.4289,1.4273,0.0,0.0,0.0,0.0,0.0,0.0,1.4935,1.4678,0.0,0.0,0.0,0.0,0.0,0.0,0.0,0.0,0.0,0.0,0.0,0.0,0.0,0.0,0.0,0.0,0.0,0.0,0.0,0.0,0.0,0.0,0.0,0.0,0.0,0.0,0.0,0.0,0.0,0.0,0.0,0.0,0.0,0.0,0.0,0.0,0.0,0.0,0.0,0.0,0.0,0.0,0.0,0.0,0.0,0.0,0.0,0.0,0.0,0.0,0.0,0.0,0.0,0.0,0.0,1.3805,1.5033,1.604,1.6822,1.6719,1.6545,1.6301,1.4904,1.3435,0.0,0.0,0.0,0.0,0.0,0.0,0.0,0.0,0.0,0.0,0.0,0.0,0.0,0.0,0.0,0.0,0.0,0.0,0.0,0.0,0.0,0.0,0.0,0.0,0.0,0.0,0.0,0.0,0.0,0.0,0.0,0.0,0.0,0.0,0.0,0.0,0.0,0.0,0.0,0.0,0.0,1.5044,1.5876,1.5578,0.0,0.0,0.0,0.0,1.5752,1.5546,0.0,0.0,0.0,0.0,0.0,0.0,0.0,0.0,0.0,0.0,0.0,0.0,0.0,0.0,0.0,0.0,0.0,0.0,0.0,0.0,0.0,0.0,0.0,0.0,0.0,0.0,0.0,0.0,0.0,0.0,0.0,0.0,0.0,0.0,0.0,0.0,0.0,0.0,0.0,0.0,0.0,0.0,0.0,0.0,0.0,0.0,0.0,0.0,0.0,0.0,0.0,0.0,0.0,0.0,0.0,0.0,1.3724,1.575,1.701,1.7378,1.7239,1.7002,1.6716,1.485,1.3207,0.0,0.0,0.0,0.0,0.0,0.0,0.0,0.0,0.0,0.0,0.0,0.0,0.0,0.0,0.0,0.0,0.0,0.0,0.0,0.0,0.0,0.0,0.0,0.0,0.0,0.0,0.0,0.0,0.0,0.0,0.0,0.0,0.0,0.0,0.0,0.0,0.0,0.0,0.0,0.0,0.0,1.6539,1.6369,1.6674,1.6711,0.0,0.0,1.6554,1.65,1.6301,0.0,0.0,0.0,0.0,0.0,0.0,0.0,0.0,0.0,0.0,0.0,0.0,0.0,0.0,0.0,0.0,0.0,0.0,0.0,0.0,0.0,0.0,0.0,0.0,0.0,0.0,0.0,0.0,0.0,0.0,0.0,0.0,0.0,0.0,0.0,0.0,0.0,0.0,0.0,0.0,0.0,0.0,0.0,0.0,0.0,0.0,0.0,0.0,0.0,0.0,0.0,0.0,0.0,0.0,0.0,1.2264,1.408,1.5926,1.722,1.787,1.7734,1.7387,1.6815,1.515,1.3498,0.0,0.0,0.0,0.0,0.0,0.0,0.0,0.0,0.0,0.0,0.0,0.0,0.0,0.0,0.0,0.0,0.0,0.0,0.0,0.0,0.0,0.0,0.0,0.0,0.0,0.0,0.0,0.0,0.0,0.0,0.0,0.0,0.0,0.0,0.0,0.0,0.0,0.0,0.0,0.0,0.0,0.0,1.7243,1.7661,0.0,0.0,0.0,1.7246,1.7026,0.0,0.0,0.0,0.0,0.0,0.0,0.0,0.0,0.0,0.0,0.0,0.0,0.0,0.0,0.0,0.0,0.0,0.0,0.0,0.0,0.0,0.0,0.0,0.0,0.0,0.0,0.0,0.0,0.0,0.0,0.0,0.0,0.0,0.0,0.0,0.0,0.0,0.0,0.0,0.0,0.0,0.0,0.0,0.0,0.0,0.0,0.0,0.0,0.0,0.0,0.0,0.0,0.0,0.0,0.0,0.0,0.0,1.436,1.6245,1.7581,1.8367,1.8248,1.776,1.6998,1.5392,0.0,0.0,0.0,0.0,0.0,0.0,0.0,0.0,0.0,0.0,0.0,0.0,0.0,0.0,0.0,0.0,0.0,0.0,0.0,0.0,0.0,0.0,0.0,0.0,0.0,0.0,0.0,0.8154,0.0,0.0,0.0,0.0,0.0,0.0,0.0,0.0,0.0,0.0,0.0,0.0,0.0,0.0,1.7234,1.7928,1.8283,1.838,0.0,0.0,1.7519,1.7322,1.716,1.6756,0.0,0.0,0.0,0.0,0.0,0.0,0.0,0.0,0.0,0.0,0.0,0.0,0.0,0.0,0.0,0.0,0.0,0.0,0.0,0.0,0.0,0.0,0.0,0.0,0.0,0.0,0.0,0.0,0.0,0.0,0.0,0.0,0.0,0.0,0.0,0.0,0.0,0.0,0.0,0.0,0.0,0.0,0.0,0.0,0.0,0.0,0.0,0.0,0.0,0.0,0.0,0.0,0.0,0.0,0.0,1.4326,1.6926,1.8497,1.8933,1.8685,1.8215,1.746,1.5413,1.3484,0.0,0.0,0.0,0.0,0.0,0.0,0.0,0.0,0.0,0.0,0.0,0.0,0.0,0.0,0.0,0.0,0.0,0.0,0.0,0.0,0.0,0.0,0.0,0.0,0.0,0.0,0.0,0.0,0.0,0.0,0.0,0.0,0.0,0.0,0.0,0.0,0.0,0.0,0.0,0.0,0.0,1.79,1.8075,1.8277,1.8297,0.0,0.0,1.7315,1.7314,1.7079,1.6833,1.6563,0.0,0.0,0.0,0.0,0.0,0.0,0.0,0.0,0.0,0.0,0.0,0.0,0.0,0.0,0.0,0.0,0.0,0.0,0.0,0.0,0.0,0.0,0.0,0.0,0.0,0.0,0.0,0.0,0.0,0.0,0.0,0.0,0.0,0.0,0.0,0.0,0.0,0.0,0.0,0.0,0.0,0.0,0.0,0.0,0.0,0.0,0.0,0.0,0.0,0.0,0.0,0.0,0.0,1.3013,1.5264,1.7335,1.8751,1.9447,1.9306,1.8695,1.7654,1.622,1.4474,0.0,0.0,0.0,0.0,0.0,0.0,0.0,0.0,0.0,0.0,0.0,0.0,0.0,0.0,0.0,0.0,0.0,0.0,0.0,0.0,0.0,0.0,0.0,0.0,0.0,0.0,0.0,0.0,0.9337,0.9266,0.8834,0.0,0.0,0.0,0.0,0.0,0.0,0.0,0.0,0.0,0.0,1.7595,1.7946,1.8172,0.0,0.0,1.74,1.7194,1.7027,1.6964,1.6796,1.6295,1.6037,0.0,0.0,0.0,0.0,0.0,0.0,0.0,0.0,0.0,0.0,0.0,0.0,0.0,0.0,0.0,0.0,0.0,0.0,0.0,0.0,0.0,0.0,0.0,0.0,0.0,0.0,0.0,0.0,0.0,0.0,0.0,0.0,0.0,0.0,0.0,0.0,0.0,0.0,0.0,0.0,0.0,0.0,0.0,0.0,0.0,0.0,0.0,0.0,0.0,0.0,0.0,0.0,1.3331,1.5891,1.7671,1.9068,2.0037,1.9944,1.9327,1.8203,1.6932,1.5217,0.0,0.0,0.0,0.0,0.0,0.0,0.0,0.0,0.0,0.0,0.0,0.0,0.0,0.0,0.0,0.0,0.0,0.0,0.0,0.0,0.0,0.0,0.0,0.0,0.0,0.0,0.0,0.0,0.9886,0.9676,0.8991,0.0,0.0,0.0,0.0,0.0,0.0,0.0,0.0,0.0,0.0,1.7219,1.7528,1.7756,1.7733,1.7237,1.6997,1.6839,1.6694,1.6775,1.6672,1.6271,0.0,0.0,0.0,0.0,0.0,0.0,0.0,0.0,0.0,0.0,0.0,0.0,0.0,0.0,0.0,0.0,0.0,0.0,0.0,0.0,0.0,0.0,0.0,0.0,0.0,0.0,0.0,0.0,0.0,0.0,0.5658,0.0,0.0,0.0,0.0,0.0,0.0,0.0,0.0,0.0,0.0,0.0,0.0,0.0,0.0,0.0,0.0,0.0,0.0,0.0,0.0,0.0,0.0,1.361,1.5893,1.7923,1.9535,2.0616,2.0557,2.0083,1.9241,1.7411,1.5514,1.3603,0.0,0.0,0.0,0.0,0.0,0.0,0.0,0.0,0.0,0.0,0.0,0.0,0.0,0.0,0.0,0.0,0.0,0.0,0.0,0.0,0.0,0.0,0.0,0.0,0.0,0.0,1.0273,0.9917,0.9559,0.0,0.0,0.0,0.0,0.0,0.0,0.0,0.0,0.0,0.0,1.6492,1.6899,1.6824,1.6945,1.6941,1.6641,1.6343,1.6196,1.6374,1.6413,1.6476,0.0,0.0,0.0,0.0,0.0,0.0,0.0,0.0,0.0,0.0,0.0,0.0,0.0,0.0,0.0,0.0,0.0,0.0,0.0,0.0,0.0,0.0,0.0,0.0,0.0,0.0,0.0,0.7143,0.7063,0.0,0.0,0.0,0.0,0.0,0.0,0.0,0.0,0.0,0.0,0.0,1.2416,1.2224,0.0,0.0,0.0,0.0,0.0,0.0,0.0,0.0,0.0,0.0,0.0,0.0,1.3787,1.6386,1.8114,1.9547,2.0654,2.0651,2.0294,1.9563,1.8118,1.6065,1.3355,0.0,0.0,0.0,0.0,0.0,0.0,0.0,0.0,0.0,0.0,0.0,0.0,0.0,0.0,0.0,0.0,0.0,0.0,0.0,0.0,0.0,0.0,0.0,0.0,0.0,1.0145,0.0,0.0,0.0,0.0,0.0,0.0,0.0,0.0,0.0,0.0,0.0,1.5378,1.6196,1.6653,1.6843,1.6698,1.6631,1.6453,0.0,0.0,0.0,0.0,0.0,0.0,0.0,0.0,0.0,0.0,0.0,0.0,0.0,0.0,1.8047,1.671,1.6494,1.6467,1.6265,0.0,0.0,0.0,0.0,0.0,0.0,0.0,0.0,0.0,0.0,0.0,0.0,0.0,0.0,0.859,0.0,0.7924,0.0,0.0,0.0,0.0,0.0,0.0,0.0,0.0,1.257,1.3407,1.4149,1.3954,1.4066,0.0,1.3923,1.2562,0.0,0.0,0.0,0.0,0.0,0.0,0.0,0.0,1.4553,1.6928,1.8692,2.0037,2.0917,2.0981,2.0737,2.024,1.8413,1.6177,1.3562,1.2182,1.0879,0.0,0.0,0.0,0.0,0.0,0.0,0.0,0.0,0.0,0.0,0.0,0.0,0.0,0.0,0.0,0.0,0.0,0.0,0.0,0.0,0.0,0.0,0.0,1.0906,0.0,0.0,0.0,0.0,0.0,0.0,0.0,0.0,0.0,1.4499,1.509,1.5742,1.6484,1.6589,1.655,1.6437,0.0,0.0,0.0,0.0,0.0,0.0,0.0,1.673,1.6906,1.7418,1.7915,1.8207,1.892,1.9487,1.9653,0.0,0.0,1.8235,1.804,1.8085,1.813,1.8162,1.8196,1.8222,1.8322,1.8473,0.0,0.0,0.0,0.0,0.0,0.0,0.0,0.0,1.0439,1.0342,0.0,0.9375,0.0,0.0,0.0,0.0,0.0,1.0203,0.0,0.0,1.4127,1.5173,1.596,1.596,1.6067,1.6174,1.5648,1.4887,1.3852,1.2119,0.0,0.0,0.0,0.0,0.0,0.0,1.5772,1.754,1.9585,2.0954,2.1481,2.1493,2.1387,2.1123,1.8313,1.5988,1.4321,1.3071,1.1928,1.0919,0.9913,0.0,0.0,0.0,0.0,0.0,0.0,0.0,0.0,0.0,0.0,0.0,0.0,0.0,0.0,0.0,0.0,0.0,0.0,0.0,0.0,1.1561,0.0,0.0,0.0,0.0,0.0,0.0,0.0,0.0,0.0,0.0,1.5782,1.5393,1.5443,1.6557,0.0,0.0,0.0,0.0,1.5968,1.6101,1.6099,1.6332,1.6937,1.7237,1.7564,1.8033,0.0,0.0,1.9606,1.9733,1.9882,2.0191,2.0296,2.0163,1.9857,1.9718,1.9746,1.9875,1.9914,2.0028,2.022,2.0499,2.0799,1.197,0.0,0.0,0.0,0.0,1.0663,1.0963,1.1282,1.1502,1.1528,1.1415,1.07,0.0,0.0,0.0,0.0,0.0,0.0,1.253,1.371,1.4673,1.5573,1.6332,1.6165,1.639,1.6962,1.6354,1.5759,1.5165,1.456,1.3344,1.1631,0.0,0.0,0.0,0.0,1.6117,1.8239,1.9637,2.0867,2.1912,2.151,2.0779,1.9683,1.8204,1.6815,1.559,1.4513,1.3545,1.2684,1.1554,0.0,0.0,0.0,0.0,0.0,0.0,0.0,0.0,0.0,0.0,0.0,0.0,0.0,0.0,0.0,0.0,0.0,0.0,0.0,1.1817,1.1958,1.1865,0.0,0.0,0.0,0.0,0.0,0.0,0.0,0.0,0.0,1.689,1.6423,1.6164,0.0,0.0,1.6112,1.6237,1.6218,1.6267,1.6484,1.6527,0.0,0.0,1.7572,1.7876,1.8445,1.9116,1.9679,1.9943,2.05,2.0947,2.1036,2.1394,2.1663,2.1549,2.097,2.0632,2.0849,2.1192,2.1509,2.1686,2.2089,2.2424,1.2818,1.2258,1.1301,1.1043,1.1308,1.1405,1.1662,1.1989,1.2191,1.2238,1.2189,1.1676,1.1539,1.1691,1.1216,0.0,0.0,0.0,1.3134,1.4146,1.4843,1.5615,1.6386,1.6329,1.658,1.7048,1.6687,1.6264,1.5805,1.5752,1.4975,1.3577,0.0,0.0,1.5106,1.5702,1.6967,1.8861,2.0,2.099,2.1859,2.1442,2.0474,1.8971,1.8202,1.7428,1.6555,1.5493,1.4704,1.4205,1.3086,1.2046,0.0,0.0,0.0,0.0,0.0,0.0,0.0,0.0,0.0,0.0,0.0,0.8155,0.0,0.0,0.0,0.0,1.1141,1.2259,1.299,1.3003,0.0,0.0,0.0,0.0,0.0,0.0,0.0,1.6264,1.6634,1.7045,1.7534,1.7152,1.6823,1.6913,1.6699,1.6547,1.6575,0.0,1.6902,1.7194,1.735,1.7653,1.8183,1.8415,1.8661,1.9067,1.9528,1.9902,2.0094,2.0569,2.0914,2.1111,2.145,2.1781,2.1908,2.1568,2.1461,2.2019,2.2518,2.2877,2.3043,2.3368,2.3636,1.2824,1.2267,1.1634,1.1658,1.2056,1.1756,1.1981,1.256,1.2435,1.2485,1.2571,1.2234,1.2211,1.2433,1.2219,0.0,1.2518,1.2659,1.3271,1.427,1.4726,1.5369,1.6159,1.6379,1.6566,1.6737,1.6722,1.65,1.6028,1.6018,1.5777,1.5353,1.5022,1.5398,1.6439,1.7102,1.8097,1.9413,2.045,2.1131,2.1441,2.126,2.0394,1.8821,1.8262,1.7728,1.7203,1.6089,1.5473,1.5457,1.4479,1.3373,1.2199,0.0,0.0,0.0,0.0,0.0,0.0,0.0,0.0,0.0,0.0,0.0,0.0,0.0,0.0,0.0,1.286,0.0,1.4468,1.449,0.0,0.0,0.0,1.5363,1.534,1.6627,1.7616,1.7812,0.0,0.0,1.7868,1.7649,1.75,1.7494,1.7343,1.7182,1.7096,1.7414,1.78,1.8064,1.842,1.882,1.9188,1.949,1.9685,1.9823,1.9859,1.997,2.0115,2.0225,2.0303,2.0625,2.0806,2.1055,2.1388,2.1741,2.2307,2.3132,2.3656,2.4021,2.4165,2.4406,2.4575,1.1775,1.1483,1.0682,1.0686,1.1199,1.1017,1.1123,1.1412,1.1533,1.1609,1.1624,1.1762,1.1926,1.2129,1.2154,1.2317,1.2572,1.276,1.3154,1.3699,1.4181,1.4633,1.5094,1.5381,1.5734,1.6089,1.6104,1.6085,1.6078,1.6078,1.597,1.5786,1.5969,1.6395,1.7,1.7464,1.8381,1.9701,1.998,2.0163,2.0226,2.0519,2.0023,1.8696,1.8129,1.7646,1.7216,1.6437,1.6057,1.6127,1.5329,1.4411,1.3425,1.1721,0.0,0.0,0.0,0.0,0.0,0.0,0.0,0.0,0.0,1.0152,1.1609,0.0,1.2203,0.0,1.3973,1.4882,1.5355,1.5731,0.0,0.0,1.6865,1.747,1.7482,1.8685,1.9414,1.9097,1.8981,1.8803,1.8463,1.8319,1.8248,1.8303,1.776,1.7458,1.7723,1.81,1.8521,1.8905,1.9072,1.9277,1.9697,2.0087,2.0349,2.0417,2.0426,2.0436,2.0483,2.0588,2.0741,2.0817,2.112,2.1374,2.1455,2.1932,2.2457,2.302,2.3676,2.427,2.4587,2.5125,2.5539,1.0888,1.0557,0.9592,0.9295,0.951,0.9792,1.0083,1.0344,1.053,1.0757,1.0979,1.1417,1.1713,1.1928,1.2065,1.2169,1.2272,1.2519,1.276,1.2995,1.3532,1.3968,1.433,1.4697,1.5103,1.5493,1.5565,1.5667,1.5783,1.5797,1.5843,1.5989,1.6381,1.686,1.7369,1.775,1.8487,1.9564,1.9604,1.9546,1.9417,1.9764,1.9441,1.838,1.7971,1.76,1.7137,1.6527,1.6133,1.5961,1.5694,1.4955,1.3645,1.2461,1.1194,0.0,0.0,0.0,0.0,0.0,0.0,0.0,0.0,0.0,0.0,0.0,1.4264,1.511,1.5721,1.6271,1.6771,1.7277,1.7616,1.7616,1.8619,1.9271,1.9183,1.994,2.0378,2.0109,1.9669,1.9339,1.9238,1.8978,1.8839,1.8903,1.8682,1.8525,1.8594,1.8918,1.9279,1.9521,1.9745,1.995,2.0195,2.042,2.0596,2.0596,2.0596,2.0596,2.0605,2.0693,2.078,2.078,2.1012,2.1244,2.1244,2.1636,2.212,2.2566,2.3175,2.3906,2.4641,2.5242,2.5623,1.0034,0.9544,0.8506,0.7874,0.7626,0.8296,0.8806,0.9185,0.9426,0.9862,1.0436,1.1038,1.1459,1.1709,1.1825,1.1833,1.1724,1.2027,1.2166,1.2212,1.2827,1.3292,1.3619,1.4076,1.4493,1.4867,1.5009,1.5161,1.5376,1.5376,1.562,1.6095,1.6514,1.6982,1.7573,1.7909,1.8465,1.9172,1.9228,1.9079,1.8784,1.8999,1.8713,1.7863,1.7726,1.7433,1.6868,1.639,1.5899,1.5398,1.5698,1.5138,1.3457,1.3072,1.2233,0.0,1.0173,0.0,0.0,0.0,0.0,0.0,0.0,0.0,0.0,1.5093,1.6444,1.7423,1.7625,1.7902,1.8355,1.8957,1.9321,1.9346,2.0263,2.081,2.0619,2.0795,2.09,2.0813,2.0166,1.9776,1.9852,1.9556,1.935,1.9399,1.9687,1.9766,1.9579,1.9765,1.998,1.9971,2.0341,2.0517,2.0537,2.0576,2.0596,2.0596,2.0596,2.0596,2.0596,2.0605,2.0615,2.0605,2.0751,2.0867,2.0867,2.1167,2.154,2.1968,2.2521,2.3309,2.4407,2.4998,2.5259,0.9075,0.8662,0.7766,0.7183,0.6868,0.6601,0.6826,0.7426,0.7881,0.8785,0.9926,1.0168,1.0649,1.1216,1.1263,1.1256,1.1247,1.1404,1.1475,1.149,1.1903,1.2251,1.259,1.2941,1.3511,1.416,1.4324,1.468,1.5235,1.5259,1.5536,1.6095,1.6498,1.6943,1.7439,0.0,0.0,0.0,1.8516,1.8317,1.8094,1.8196,1.7773,1.6832,1.7018,0.0,1.6075,1.593,1.5606,1.5047,1.5284,0.0,0.0,0.0,0.0,0.0,0.0,0.0,0.0,0.0,0.0,0.0,1.6011,1.6306,1.5948,1.7013,1.7815,1.8065,1.8844,1.9397,1.9484,2.0426,2.1029,2.1054,2.152,2.1764,2.1576,2.1614,2.1513,2.0934,2.0544,2.0134,1.973,1.9827,1.9949,1.9823,2.0185,2.042,2.0341,2.0381,2.0449,2.0478,2.0537,2.0596,2.0596,2.0596,2.0596,2.0596,2.0596,2.0596,2.0596,2.0605,2.0625,2.0625,2.0625,2.0693,2.0693,2.0877,2.1158,2.155,2.2082,2.2871,2.4061,2.4707,2.5158,0.8463,0.0,0.7216,0.6663,0.0,0.5872,0.5885,0.6289,0.7015,0.8155,0.9566,0.9872,1.0323,1.0854,1.0854,1.0861,1.0846,1.0973,1.1052,1.1068,1.1397,1.1724,1.205,1.2405,1.2964,1.3746,1.3971,1.4428,1.5083,1.5171,1.5598,1.6387,1.6599,1.7044,1.7676,1.7883,1.8076,1.8245,1.783,1.7595,1.7559,1.7476,1.7078,1.6395,0.0,0.0,0.0,0.0,0.0,0.0,0.0,0.0,0.0,0.0,0.0,1.3108,1.3188,1.3653,1.4602,1.5314,1.6023,1.6845,1.7704,1.8054,1.7742,1.8506,1.912,1.9422,2.0175,2.064,2.0665,2.1336,2.1795,2.1818,2.206,2.2155,2.1895,2.1851,2.1583,2.0984,2.069,2.0436,2.0063,2.0072,2.0208,2.0243,2.0439,2.0596,2.0596,2.0596,2.0596,2.0596,2.0596,2.0596,2.0596,2.0596,2.0596,2.0596,2.0596,2.0596,2.0596,2.0772,2.0898,2.0918,2.1075,2.1241,2.1211,2.1164,2.1145,2.1448,2.1828,2.2413,2.3409,2.4263,2.5004,0.7847,0.7645,0.6696,0.6214,0.6046,0.5587,0.5568,0.5905,0.0,0.0,0.0,0.9877,1.0345,1.0747,1.0747,1.072,1.0673,1.0778,1.0808,1.0769,1.1059,1.1334,1.1631,1.1934,1.2498,1.3238,1.361,1.4151,1.4817,1.5015,1.56,1.6474,1.6652,1.7152,1.7949,1.793,1.7883,1.7871,1.7248,1.6978,1.7029,1.6773,1.6476,1.6094,1.662,1.6498,1.5627,1.5594,1.5191,1.425,1.4385,1.4194,1.3491,1.3775,1.4026,1.4137,1.4601,1.538,1.648,1.6966,1.7563,1.8431,1.8982,1.9296,1.9309,1.971,2.0201,2.0805,2.1291,2.1603,2.1616,2.1917,2.2135,2.2132,2.2183,2.2096,2.1863,2.1666,2.1325,2.089,2.0709,2.0602,2.0432,2.0349,2.0347,2.0536,2.0595,2.0596,2.0596,2.0596,2.0596,2.0596,2.0596,2.0596,2.0596,2.0596,2.0615,2.0723,2.0723,2.0723,2.085,2.1103,2.1298,2.1337,2.166,2.1816,2.1846,2.1572,2.1398,2.1609,2.1865,2.2265,2.3121,2.4179,2.5157,0.6806,0.6585,0.6156,0.5855,0.5663,0.5491,0.5929,0.6835,0.7484,0.8456,0.9681,1.0268,1.0799,1.1292,1.1269,1.1169,1.0958,1.0961,1.086,1.0647,1.0672,1.0791,1.0965,1.1153,1.16,1.2212,1.2727,1.3375,1.4115,1.4567,1.5153,1.5917,1.6449,1.7126,1.7893,1.7673,1.7487,1.7468,1.6982,1.6637,1.6431,1.6164,1.5903,1.5718,1.6,1.5961,1.5551,1.5618,1.5329,1.459,1.4832,1.4672,1.3981,1.4376,1.4775,1.503,1.5621,1.6462,1.75,1.8065,1.8722,1.9509,2.0125,2.0465,2.0465,2.0528,2.0805,2.1344,2.1783,2.2021,2.2029,2.2208,2.2295,2.2154,2.1803,2.1578,2.1629,2.1102,2.0745,2.0695,2.0588,2.0479,2.0338,2.0416,2.0536,2.0586,2.0596,2.0596,2.0625,2.0596,2.0596,2.0596,2.0596,2.0596,2.0684,2.0625,2.0791,2.1064,2.1113,2.124,2.1563,2.1699,2.1787,2.1797,2.1904,2.1943,2.1943,2.1846,2.19,2.2085,2.2524,2.3143,2.3939,2.5142,2.6124,0.6379,0.6231,0.5885,0.5686,0.5624,0.5767,0.6386,0.7329,0.8144,0.9035,0.9953,1.0617,1.1104,1.1395,1.1412,1.1332,1.1206,1.1062,1.0922,1.0804,1.0676,1.0672,1.0785,1.0886,1.1279,1.1911,1.2328,1.2995,1.3851,1.4255,1.49,1.5794,1.6404,1.6892,1.7259,1.7113,1.6924,1.6701,1.649,1.6316,1.6186,1.5934,1.576,1.5659,1.592,1.587,1.5469,1.5512,1.5274,1.4671,1.4665,1.4665,1.465,1.4911,1.5328,1.5941,1.6563,1.7306,1.8182,1.8873,1.9532,2.0225,2.0541,2.0955,2.1532,2.157,2.1669,2.1918,2.2301,2.2491,2.2426,2.239,2.2285,2.2166,2.1696,2.1408,2.1347,2.1054,2.0745,2.0632,2.0669,2.0637,2.0436,2.0517,2.0605,2.0596,2.0596,2.0693,2.0879,2.0928,2.0937,2.0947,2.1123,2.129,2.129,2.1329,2.1387,2.1552,2.1592,2.167,2.1915,2.2041,2.2217,2.2246,2.2371,2.2527,2.2527,2.2352,2.2371,2.2563,2.2879,2.3508,2.4364,2.5915,2.7177,0.5967,0.5914,0.5567,0.5455,0.5584,0.6085,0.6776,0.7606,0.8665,0.9527,1.0225,1.0983,1.1414,1.1606,1.1606,1.1573,1.1496,1.1289,1.1122,1.0992,1.0794,1.0701,1.0744,1.0785,1.1115,1.1677,1.2104,1.2797,1.364,1.4025,1.475,1.5745,1.6323,1.6599,1.6697,1.6599,1.6406,1.6105,1.6007,1.5938,1.5928,1.5728,1.5633,1.5633,1.5865,1.5822,1.5499,1.5486,1.5344,1.4948,1.4729,1.4837,1.5277,1.5423,1.5827,1.6609,1.7214,1.7895,1.8694,1.9506,2.0174,2.0654,2.093,2.1469,2.2332,2.2623,2.2656,2.2647,2.2956,2.3062,2.2783,2.2458,2.2153,2.1922,2.1452,2.1164,2.1105,2.0941,2.0785,2.0617,2.0755,2.0751,2.0654,2.0596,2.0596,2.0596,2.0664,2.0869,2.1142,2.1337,2.1503,2.1542,2.1738,2.1847,2.1915,2.1876,2.1915,2.1992,2.2031,2.21,2.2217,2.2459,2.2606,2.2654,2.2838,2.2994,2.3052,2.2859,2.2771,2.2988,2.3326,2.3925,2.5267,2.6851,2.8166,0.5219,0.517,0.4977,0.5066,0.5417,0.6266,0.7003,0.7706,0.8965,0.9873,1.0459,1.1298,1.1832,1.2181,1.218,1.2058,1.1848,1.1815,1.1514,1.1052,1.0969,1.0847,1.0654,1.0744,1.0996,1.1404,1.1988,1.2674,1.3375,1.3956,1.474,1.5706,1.6037,1.6318,1.6605,1.6334,1.6124,1.61,1.5664,1.5454,1.5469,1.5454,1.542,1.5434,1.5619,1.5735,1.5655,1.5781,1.5776,1.5635,1.5562,1.5568,1.5675,1.5881,1.6244,1.6765,1.7376,1.81,1.9077,1.9942,2.0519,2.0741,2.1633,2.237,2.2982,2.3524,2.3779,2.3654,2.3776,2.3606,2.3105,2.2439,2.187,2.1413,2.0917,2.0586,2.0778,2.0511,2.041,2.0846,2.0711,2.0625,2.0605,2.0635,2.0615,2.0664,2.0957,2.1201,2.1356,2.1854,2.2274,2.2285,2.2179,2.1984,2.1993,2.1925,2.2119,2.2383,2.244,2.2547,2.2781,2.2927,2.3045,2.2925,2.3023,2.3091,2.3101,2.3064,2.3132,2.3496,2.4078,2.5029,2.6909,2.8096,2.8658,0.4924,0.4911,0.4827,0.5038,0.5488,0.6176,0.6871,0.7605,0.8376,0.9174,0.9978,1.0569,1.1298,1.2114,1.2114,1.2121,1.2118,1.1962,1.1667,1.1249,1.1076,1.0851,1.0629,1.0744,1.0989,1.1318,1.1903,1.2574,1.3344,1.4234,1.4892,1.5312,1.556,1.5771,1.5903,1.5771,1.5689,1.5679,1.5508,1.542,1.542,1.542,1.542,1.542,1.5478,1.5536,1.5532,1.5575,1.5575,1.5532,1.5522,1.5662,1.5937,1.611,1.6513,1.7197,1.8231,1.9073,1.9647,2.0446,2.1126,2.1619,2.2332,2.3007,2.3612,2.4431,2.4832,2.4538,2.4107,2.3575,2.3053,2.2349,2.175,2.134,2.1122,2.1005,2.0847,2.0828,2.0811,2.0761,2.0644,2.0596,2.0654,2.082,2.0937,2.1006,2.1348,2.1649,2.1923,2.2284,2.2557,2.2781,2.2703,2.2625,2.2586,2.2606,2.2684,2.2801,2.2859,2.2955,2.3023,2.3101,2.3091,2.3101,2.3101,2.3101,2.3101,2.3276,2.345,2.3949,2.5147,2.6393,2.7773,2.8546,2.8995,0.4744,0.475,0.485,0.5128,0.5547,0.6068,0.6693,0.7334,0.7763,0.8451,0.9279,0.9765,1.0545,1.1521,1.1799,1.2021,1.2173,1.1986,1.1728,1.1399,1.1129,1.0851,1.0629,1.0807,1.1052,1.142,1.2004,1.2758,1.3631,1.4577,1.5044,1.5088,1.5289,1.542,1.542,1.542,1.542,1.542,1.542,1.542,1.542,1.542,1.542,1.542,1.542,1.542,1.542,1.542,1.542,1.542,1.542,1.5613,1.6071,1.6282,1.6818,1.7801,1.8941,1.9754,2.007,2.089,2.1702,2.2407,2.3005,2.3662,2.4393,2.5146,2.5482,2.533,2.4684,2.4039,2.3138,2.2505,2.1951,2.1518,2.1558,2.147,2.1253,2.1232,2.1074,2.082,2.0693,2.0644,2.0762,2.0996,2.119,2.1426,2.1787,2.2139,2.2451,2.2586,2.2801,2.3042,2.3081,2.3071,2.3101,2.3033,2.3101,2.3101,2.3062,2.3052,2.3101,2.3101,2.3101,2.3101,2.3101,2.3123,2.3123,2.3319,2.3797,2.4572,2.5727,2.7074,2.7966,2.8645,2.9221,0.4608,0.4665,0.4965,0.5247,0.5535,0.6083,0.6542,0.698,0.735,0.7882,0.8518,0.9093,0.9793,1.0631,1.1353,1.1818,1.2007,1.1939,1.1741,1.1399,1.1142,1.0865,1.0638,1.0933,1.124,1.1576,1.229,1.3262,1.435,1.4926,1.52,1.5191,1.5332,1.542,1.542,1.542,1.542,1.542,1.542,1.542,1.542,1.542,1.542,1.542,1.542,1.542,1.542,1.542,1.542,1.542,1.542,1.5623,1.6085,1.6449,1.7262,1.8467,1.9247,1.9834,2.0342,2.1299,2.2174,2.2847,2.3554,2.4377,2.5243,2.5544,2.5735,2.5847,2.566,2.5011,2.3858,2.3088,2.2433,2.1877,2.1857,2.1868,2.1808,2.1505,2.1249,2.1113,2.085,2.082,2.1123,2.1201,2.1484,2.1805,2.2196,2.2488,2.2566,2.284,2.3013,2.3062,2.3101,2.3101,2.3101,2.3101,2.3101,2.3101,2.3101,2.3101,2.3101,2.3101,2.3101,2.3101,2.3101,2.3123,2.3144,2.3505,2.4111,2.4946,2.602,2.7176,2.8087,2.8665,2.9221,0.4729,0.5061,0.5408,0.5616,0.5735,0.6132,0.6456,0.6714,0.6868,0.7273,0.7868,0.8451,0.9179,0.9973,1.0906,1.1577,1.199,1.2093,1.1891,1.1439,1.1299,1.1015,1.0651,1.0823,1.1083,1.1459,1.2135,1.311,1.424,1.4823,1.5103,1.5215,1.5342,1.542,1.542,1.542,1.542,1.542,1.542,1.542,1.542,1.542,1.542,1.542,1.542,1.542,1.542,1.542,1.542,1.542,1.542,1.5657,1.6259,1.7323,1.8135,1.8674,1.9756,2.0508,2.0783,2.1878,2.274,2.3128,2.4195,2.495,2.539,2.5853,2.6291,2.6445,2.6076,2.5481,2.4926,2.3905,2.2944,2.2392,2.2261,2.2187,2.2002,2.1942,2.1845,2.1347,2.1054,2.1152,2.1542,2.1854,2.2088,2.2264,2.2625,2.284,2.2898,2.3023,2.3101,2.3101,2.3101,2.3101,2.3101,2.3101,2.3101,2.3101,2.3101,2.3101,2.3101,2.3101,2.3101,2.3101,2.3101,2.3123,2.3188,2.3712,2.4369,2.5295,2.6364,2.7176,2.8219,2.8637,2.9162,0.4888,0.5258,0.5649,0.581,0.5881,0.6175,0.6377,0.6505,0.6583,0.6907,0.7484,0.8169,0.8956,0.979,1.0738,1.1484,1.1971,1.2113,1.1962,1.1566,1.1452,1.1192,1.0944,1.102,1.1256,1.1691,1.2545,1.3529,1.4503,1.4971,1.5244,1.5402,1.542,1.542,1.542,1.542,1.542,1.542,1.542,1.542,1.542,1.542,1.542,1.542,1.542,1.542,1.542,1.542,1.542,1.542,1.542,1.5671,1.6355,1.7715,1.8561,1.876,1.9888,2.0734,2.105,2.2019,2.2852,2.335,2.437,2.5136,2.5481,2.6213,2.6691,2.6773,2.6705,2.6307,2.5608,2.4681,2.3741,2.3011,2.2747,2.2598,2.2323,2.2401,2.2127,2.161,2.1435,2.1641,2.2012,2.2314,2.2529,2.2654,2.2935,2.3081,2.3101,2.3101,2.3101,2.3101,2.3101,2.3101,2.3101,2.3101,2.3101,2.3101,2.3101,2.3101,2.3101,2.3101,2.3101,2.3101,2.3123,2.3144,2.344,2.395,2.468,2.5538,2.6281,2.7021,2.7825,2.8498,2.8926,0.5057,0.5218,0.5616,0.5869,0.5954,0.6212,0.6319,0.6377,0.6528,0.6853,0.7407,0.8265,0.9117,0.9973,1.0919,1.1614,1.1945,1.1998,1.1935,1.1828,1.1577,1.1419,1.1349,1.1489,1.1793,1.2198,1.3553,1.4565,1.5201,1.5389,1.5567,1.5689,1.5526,1.5425,1.5405,1.5396,1.542,1.542,1.542,1.542,1.542,1.542,1.542,1.542,1.542,1.542,1.542,1.542,1.542,1.542,1.542,1.5681,1.6395,1.7597,1.8386,1.8773,1.9622,2.0416,2.0991,2.1624,2.254,2.3391,2.418,2.495,2.5723,2.6468,2.6905,2.6906,2.7151,2.7081,2.5963,2.5295,2.4588,2.3666,2.3218,2.3006,2.2967,2.2713,2.2352,2.2012,2.1924,2.208,2.2383,2.2547,2.2693,2.2967,2.3071,2.3101,2.3101,2.3101,2.3101,2.3101,2.3101,2.3101,2.3101,2.3101,2.3101,2.3101,2.3101,2.3101,2.3101,2.3101,2.3101,2.3101,2.3101,2.3144,2.3406,2.3917,2.4433,2.5232,2.6009,2.6734,2.7389,2.8007,2.8427,0.5466,0.5676,0.6014,0.6156,0.6177,0.6277,0.6374,0.6505,0.6583,0.6984,0.7672,0.8375,0.9236,1.0137,1.1018,1.1614,1.1996,1.2125,1.2082,1.1902,1.1788,1.1623,1.1476,1.1471,1.1799,1.2451,1.331,1.4189,1.4934,1.5433,1.566,1.5651,1.5675,1.5519,1.5283,1.5347,1.542,1.542,1.542,1.542,1.542,1.542,1.542,1.542,1.542,1.542,1.542,1.542,1.542,1.542,1.542,1.5781,1.6708,1.8026,1.8737,1.8759,1.9744,2.0301,2.046,2.145,2.2345,2.3121,2.4032,2.4902,2.563,2.6366,2.6923,2.7134,2.7263,2.6962,2.6481,2.5566,2.467,2.3789,2.3349,2.3101,2.3062,2.2762,2.2637,2.2674,2.25,2.2529,2.2801,2.2908,2.2916,2.3042,2.3101,2.3101,2.3101,2.3101,2.3101,2.3101,2.3101,2.3101,2.3101,2.311,2.314,2.3149,2.3149,2.3101,2.3101,2.3101,2.3101,2.3101,2.3101,2.321,2.3472,2.3862,2.4358,2.4924,2.5674,2.6342,2.696,2.7409,2.7794,0.5634,0.5825,0.6161,0.628,0.63,0.6374,0.6525,0.6733,0.6965,0.7461,0.8165,0.8856,0.9652,1.0532,1.1223,1.1725,1.2095,1.2243,1.2204,1.2051,1.2042,1.1917,1.1757,1.1821,1.2137,1.2773,1.3424,1.4146,1.4959,1.5437,1.5716,1.5767,1.5747,1.5563,1.5257,1.5288,1.5318,1.5332,1.5391,1.542,1.542,1.542,1.542,1.542,1.542,1.542,1.542,1.5557,1.5561,1.5478,1.5601,1.6098,1.6901,1.7999,1.8673,1.8797,1.9465,2.0097,2.0273,2.1188,2.2092,2.2786,2.379,2.4701,2.5444,2.6298,2.7048,2.7279,2.7372,2.7122,2.6562,2.56,2.4626,2.3884,2.3375,2.3135,2.3052,2.2888,2.283,2.2957,2.2869,2.2867,2.3013,2.3101,2.3101,2.3101,2.3101,2.3101,2.3101,2.3101,2.3101,2.3101,2.3101,2.3101,2.3101,2.313,2.3179,2.3208,2.3227,2.3149,2.3101,2.3101,2.3101,2.3101,2.3101,2.3101,2.3341,2.3699,2.4164,2.4797,2.5306,2.5716,2.6217,2.6652,2.701,0.5695,0.5734,0.6122,0.6335,0.6374,0.6544,0.6753,0.7057,0.7553,0.815,0.8818,0.9501,1.0325,1.1055,1.1484,1.1892,1.2243,1.2286,1.2298,1.2271,1.2265,1.2231,1.2223,1.2337,1.2635,1.3125,1.3721,1.4426,1.5091,1.5549,1.5798,1.5889,1.5799,1.5531,1.5327,1.5233,1.5263,1.5259,1.5342,1.543,1.5469,1.542,1.5459,1.5469,1.5439,1.5439,1.5566,1.5879,1.5933,1.5625,1.6097,1.6624,1.7121,1.7764,1.8442,1.8674,1.9212,1.9892,2.0449,2.0989,2.1715,2.2696,2.3537,2.4345,2.5421,2.6481,2.7193,2.7368,2.7549,2.7279,2.634,2.538,2.4551,2.3852,2.3331,2.3123,2.3101,2.3071,2.3101,2.3152,2.3152,2.312,2.3149,2.3149,2.3101,2.3101,2.3101,2.3101,2.3101,2.3101,2.3101,2.3101,2.3101,2.3101,2.3101,2.3347,2.3406,2.3484,2.3513,2.3493,2.3259,2.3191,2.3101,2.3101,2.3166,2.3144,2.3254,2.3624,2.3937,2.439,2.4764,2.5052,2.5527,2.6092,2.6445,0.6556,0.656,0.6544,0.6598,0.6753,0.6807,0.7111,0.7576,0.8055,0.868,0.9368,0.9879,1.0607,1.1298,1.1595,1.191,1.2212,1.2305,1.2305,1.2305,1.2305,1.2305,1.2298,1.2353,1.2606,1.3046,1.3622,1.4258,1.4992,1.5651,1.5902,1.5789,1.6088,1.5858,1.5315,1.5457,1.5474,1.5268,1.5342,1.5596,1.5825,1.5586,1.5586,1.5855,1.5596,1.563,1.5904,1.6318,1.6508,1.643,1.693,1.7388,1.7716,1.8542,1.9124,1.9316,1.9836,2.0305,2.0606,2.1088,2.1862,2.2838,2.36,2.469,2.6009,2.676,2.7344,2.7598,2.7569,2.706,2.6227,2.5242,2.4294,2.344,2.3222,2.3144,2.3101,2.3101,2.3208,2.3493,2.3308,2.3279,2.3415,2.3298,2.311,2.3101,2.3101,2.3101,2.3101,2.3101,2.3101,2.3101,2.3101,2.3101,2.3179,2.3464,2.364,2.3769,2.3877,2.4014,2.3682,2.3369,2.322,2.3101,2.3297,2.3341,2.3363,2.3537,2.3829,2.4282,2.4722,2.5221,2.5464,2.5905,2.6124,0.7092,0.6996,0.6807,0.6811,0.6922,0.7096,0.7499,0.8108,0.878,0.9425,1.0086,1.0537,1.1055,1.1632,1.1762,1.1984,1.2268,1.2305,1.2305,1.2316,1.2397,1.2434,1.2452,1.2507,1.2735,1.3053,1.355,1.4201,1.4903,1.5639,1.5913,1.6022,1.625,1.5989,1.5325,1.5513,1.5628,1.5453,1.5584,1.5913,1.6269,1.6088,1.6098,1.6295,1.6145,1.6345,1.692,1.7224,1.7242,1.7161,1.7491,1.7929,1.8368,1.91,1.9672,1.9918,2.0345,2.0612,2.089,2.1341,2.1995,2.2796,2.3563,2.4613,2.5765,2.658,2.7165,2.7543,2.7409,2.7005,2.6321,2.5232,2.4209,2.3472,2.3331,2.3319,2.3144,2.3101,2.3318,2.3535,2.3447,2.3279,2.3743,2.3376,2.3159,2.3101,2.3101,2.3101,2.3101,2.3101,2.312,2.3171,2.322,2.3249,2.3415,2.3679,2.416,2.4277,2.4408,2.4502,2.4056,2.3658,2.3511,2.3427,2.3499,2.3602,2.3689,2.3895,2.4348,2.4786,2.5115,2.5369,2.5622,2.6062,2.6228,0.7576,0.7372,0.713,0.7034,0.7153,0.748,0.8036,0.8684,0.9576,1.0274,1.0812,1.1242,1.1558,1.1984,1.1947,1.2095,1.2305,1.2305,1.2305,1.236,1.2507,1.268,1.2764,1.2845,1.3065,1.3364,1.3699,1.4299,1.5,1.5621,1.6017,1.6279,1.6413,1.6143,1.5792,1.5782,1.5743,1.58,1.6011,1.6357,1.6664,1.6629,1.6625,1.6774,1.6979,1.7309,1.7871,1.8165,1.8054,1.7566,1.7919,1.8487,1.9061,1.9491,2.0076,2.0567,2.0805,2.0984,2.1296,2.17,2.2101,2.2796,2.3372,2.4195,2.544,2.6233,2.6802,2.745,2.7415,2.6976,2.6217,2.5158,2.4336,2.3752,2.3784,2.3704,2.3422,2.3247,2.3411,2.3844,2.3557,2.3445,2.3562,2.3477,2.3101,2.3101,2.3101,2.3101,2.3101,2.3101,2.3201,2.3308,2.3357,2.3415,2.3649,2.3945,2.4482,2.4896,2.5004,2.4975,2.4424,2.4071,2.3903,2.3837,2.3916,2.4064,2.4229,2.4551,2.4988,2.5359,2.5747,2.5789,2.5863,2.6455,2.6784,0.8932,0.858,0.8055,0.7925,0.8112,0.8341,0.8875,0.9595,1.0288,1.085,1.126,1.1521,1.1781,1.2003,1.2021,1.212,1.2298,1.2291,1.2305,1.236,1.2673,1.301,1.3185,1.3226,1.3441,1.3822,1.4075,1.4615,1.5346,1.5912,1.6307,1.655,1.6908,1.6925,1.6404,1.6472,1.6597,1.6398,1.6472,1.6807,1.709,1.6947,1.6963,1.7246,1.7567,1.7855,1.8212,1.8656,1.8754,1.8677,1.8937,1.9335,1.9687,2.0391,2.099,2.1334,2.1505,2.1723,2.2033,2.2082,2.2346,2.3001,2.346,2.4408,2.5702,2.596,2.6613,2.7311,2.7302,2.6642,2.5737,2.4956,2.4465,2.4237,2.445,2.4742,2.4642,2.4233,2.4326,2.4664,2.4274,2.3809,2.416,2.3535,2.323,2.3152,2.3101,2.3101,2.311,2.312,2.3298,2.3496,2.3649,2.3776,2.417,2.4453,2.4893,2.5244,2.5371,2.542,2.4861,2.4542,2.4406,2.4366,2.4368,2.4589,2.4977,2.5359,2.5852,2.6123,2.6445,2.6697,2.6967,2.7269,2.7583,0.9432,0.9043,0.8562,0.8468,0.8694,0.8908,0.9439,1.0194,1.0812,1.1298,1.1651,1.1892,1.204,1.2132,1.2157,1.2231,1.2265,1.2242,1.22,1.2267,1.2568,1.2998,1.3543,1.3744,1.4032,1.446,1.4758,1.5258,1.5833,1.6237,1.6513,1.672,1.7254,1.7013,1.6609,1.6906,1.6956,1.686,1.6944,1.7246,1.7532,1.7464,1.7501,1.7876,1.8187,1.8467,1.8879,1.9232,1.9375,1.9479,1.9805,2.0097,2.0246,2.0966,2.1636,2.2099,2.2203,2.2233,2.2346,2.2346,2.2421,2.2833,2.3113,2.3946,2.4854,2.5283,2.5986,2.6907,2.7033,2.6509,2.5653,2.538,2.502,2.4869,2.5324,2.5824,2.5982,2.5501,2.5161,2.5493,2.4929,2.4563,2.4278,2.3708,2.3293,2.3154,2.3101,2.3101,2.3218,2.3279,2.3525,2.373,2.3965,2.4238,2.4658,2.501,2.5308,2.5513,2.5571,2.5581,2.5342,2.5132,2.4959,2.4999,2.5112,2.5604,2.6004,2.6356,2.6768,2.7176,2.7548,2.7874,2.8186,2.849,2.8853,0.9654,0.9313,0.8945,0.8923,0.9148,0.9372,0.9864,1.0567,1.112,1.1479,1.1884,1.2091,1.2041,1.2187,1.2253,1.2275,1.2309,1.224,1.2203,1.2239,1.247,1.3001,1.361,1.4236,1.4781,1.5115,1.5428,1.5903,1.6341,1.6565,1.6708,1.6899,1.7252,1.7166,1.6705,1.6933,1.7282,1.7296,1.7405,1.7598,1.7883,1.792,1.8065,1.8328,1.8596,1.8903,1.9284,1.9584,1.9769,1.9867,2.0378,2.0617,2.0889,2.1427,2.2196,2.2861,2.2897,2.2815,2.2713,2.259,2.2545,2.2496,2.2534,2.3147,2.4159,2.4695,2.5438,2.6341,2.6839,2.6766,2.6164,2.5946,2.5801,2.5741,2.6333,2.7008,2.7294,2.6913,2.6901,2.6246,2.5564,2.4957,2.4508,2.3979,2.3553,2.3188,2.3144,2.3142,2.3249,2.3464,2.3711,2.4043,2.4307,2.4687,2.5084,2.5268,2.5615,2.5698,2.5732,2.5752,2.5771,2.5748,2.5653,2.5806,2.6039,2.6549,2.7078,2.7564,2.7979,2.8333,2.8667,2.8992,2.9339,2.9707,3.0041,1.038,1.002,0.9792,0.9733,0.9779,0.9943,1.0302,1.0745,1.1034,1.1281,1.151,1.1549,1.171,1.1849,1.2123,1.2328,1.2426,1.2356,1.2301,1.234,1.2565,1.305,1.3772,1.4664,1.5443,1.5959,1.6137,1.6426,1.6813,1.69,1.6826,1.7044,1.7305,1.7236,1.7248,1.7606,1.7765,1.7728,1.7789,1.791,1.8003,1.8093,1.8161,1.8421,1.8707,1.8958,1.9191,1.9473,1.9583,1.9483,1.9932,2.0607,2.1357,2.2136,2.2986,2.3579,2.3611,2.3434,2.3309,2.3068,2.2938,2.2889,2.2877,2.3359,2.4161,2.4581,2.5333,2.6316,2.7012,2.7103,2.7001,2.6713,2.656,2.6741,2.7321,2.7969,2.8413,2.879,2.8538,2.749,2.6349,2.5186,2.4683,2.4157,2.3614,2.3297,2.321,2.3232,2.3325,2.3624,2.3971,2.432,2.4721,2.5117,2.5532,2.561,2.5761,2.58,2.5878,2.5989,2.6066,2.6284,2.6398,2.6697,2.7071,2.7577,2.8147,2.8659,2.9176,2.9528,2.9821,3.008,3.0421,3.075,3.0906,1.039,1.0132,1.0037,1.008,1.0216,1.0321,1.058,1.0936,1.1056,1.1269,1.1481,1.1567,1.172,1.1943,1.2109,1.2291,1.2364,1.2352,1.2301,1.2356,1.2632,1.3123,1.3826,1.4759,1.5634,1.6199,1.6429,1.665,1.7091,1.7023,1.6811,1.6738,1.71,1.7275,1.724,1.764,1.7949,1.8008,1.8008,1.8059,1.8185,1.8296,1.8482,1.8607,1.8841,1.9058,1.9142,1.9423,1.9566,1.9588,2.0047,2.0874,2.1823,2.2754,2.3601,2.4185,2.4238,2.402,2.3806,2.3475,2.3242,2.3034,2.3131,2.3659,2.4379,2.4886,2.5547,2.6619,2.7421,2.7652,2.7487,2.7397,2.7482,2.7728,2.8428,2.9015,2.9416,3.0197,2.9568,2.8454,2.7327,2.6114,2.4844,2.4287,2.3688,2.3428,2.3319,2.3363,2.3428,2.391,2.4378,2.4769,2.5173,2.5513,2.5882,2.5984,2.6048,2.6062,2.6135,2.6245,2.6462,2.674,2.7298,2.7786,2.8217,2.8487,2.8958,2.9395,3.0051,3.065,3.0749,3.0921,3.1422,3.1759,3.1822,1.0303,1.0219,1.0196,1.0321,1.0503,1.0549,1.0746,1.1013,1.1128,1.13,1.1586,1.1672,1.1842,1.2136,1.2303,1.2402,1.2366,1.2369,1.2355,1.2433,1.2759,1.3255,1.3889,1.4662,1.5557,1.6412,1.6716,1.6796,1.7056,1.6889,1.6589,1.6593,1.7021,1.7178,1.7103,1.7659,1.792,1.8008,1.8059,1.8161,1.8472,1.8731,1.8898,1.8915,1.9142,1.9208,1.9075,1.9308,1.9473,1.9676,2.0183,2.1038,2.212,2.3151,2.3963,2.4519,2.4767,2.4587,2.4311,2.4032,2.3838,2.3593,2.3748,2.4301,2.5021,2.5755,2.6386,2.7316,2.7914,2.8267,2.8163,2.8195,2.8307,2.8582,2.9327,3.0155,3.0208,3.0441,3.0355,2.9321,2.8251,2.6823,2.5295,2.4307,2.3685,2.3569,2.345,2.3677,2.3832,2.4523,2.4998,2.5325,2.5656,2.5964,2.6235,2.6404,2.6438,2.6486,2.6606,2.6764,2.7027,2.7323,2.7934,2.8556,2.8805,2.9093,2.9606,3.0205,3.0861,3.1318,3.1477,3.1746,3.2173,3.2373,3.2457,1.0565,1.0544,1.0535,1.0571,1.0601,1.0688,1.078,1.0873,1.1165,1.1291,1.1496,1.1573,1.1855,1.2231,1.2716,1.2882,1.2844,1.2765,1.2701,1.2719,1.3082,1.3523,1.4091,1.5053,1.5754,1.6504,1.6957,1.7272,1.7217,1.6687,1.6463,1.6615,1.6771,1.6937,1.7285,1.7768,1.7988,1.8035,1.8195,1.8522,1.8948,1.9187,1.9287,1.9293,1.9309,1.9237,1.9058,1.9208,1.933,1.9491,2.008,2.0989,2.2062,2.285,2.3875,2.474,2.5267,2.5394,2.507,2.485,2.4641,2.4518,2.4918,2.5536,2.6259,2.7097,2.7785,2.8243,2.8618,2.8764,2.8803,2.8803,2.8855,2.9216,2.9841,3.0395,3.0622,3.091,3.0786,2.9716,2.85,2.6954,2.5413,2.4515,2.3732,2.3667,2.3699,2.3959,2.4367,2.5108,2.5602,2.5939,2.632,2.6625,2.6678,2.6846,2.6955,2.6955,2.7183,2.7373,2.7775,2.8175,2.8572,2.9096,2.9386,2.9896,3.0565,3.1175,3.1697,3.1934,3.2042,3.2427,3.2889,3.2977,3.2927,1.0586,1.0586,1.0586,1.0586,1.0602,1.0744,1.087,1.1012,1.1326,1.1638,1.1864,1.205,1.2359,1.2792,1.3161,1.3175,1.3044,1.3058,1.3063,1.3126,1.349,1.3911,1.4414,1.5235,1.5999,1.6503,1.6828,1.7122,1.7125,1.7086,1.6855,1.6707,1.6957,1.7187,1.7517,1.792,1.8128,1.8303,1.8613,1.9081,1.9485,1.983,1.9998,1.9922,1.9938,1.966,1.9423,1.944,1.9611,1.9868,2.05,2.1311,2.2175,2.2981,2.3855,2.4362,2.5194,2.5487,2.5445,2.537,2.5247,2.535,2.5838,2.6697,2.7548,2.824,2.8736,2.8828,2.902,2.9177,2.9294,2.9346,2.9417,2.9715,3.0247,3.0367,3.0737,3.1309,3.1195,2.998,2.8781,2.7389,2.6151,2.5402,2.4765,2.4519,2.4594,2.4839,2.5273,2.593,2.6327,2.6563,2.6954,2.7326,2.7289,2.7323,2.7526,2.7634,2.8,2.8258,2.8724,2.9129,2.9451,2.9909,3.0395,3.0956,3.1581,3.1804,3.1982,3.2312,3.261,3.2861,3.3065,3.3065,3.3027,1.0624,1.0656,1.0649,1.0672,1.0735,1.0917,1.1122,1.1326,1.1779,1.2205,1.2544,1.2835,1.3162,1.3465,1.3649,1.3625,1.3295,1.3413,1.3444,1.3595,1.389,1.4327,1.4852,1.5556,1.6206,1.6715,1.6918,1.7217,1.7487,1.7487,1.7269,1.6908,1.7243,1.7504,1.7747,1.8158,1.8506,1.8831,1.9226,1.9737,2.0226,2.0608,2.072,2.07,2.0566,2.0291,1.9917,1.9922,2.0074,2.0345,2.0949,2.1659,2.2294,2.2944,2.3592,2.4148,2.4889,2.5406,2.5573,2.5698,2.5709,2.5975,2.6591,2.7652,2.8758,2.9209,2.928,2.928,2.9385,2.947,2.9528,2.967,2.9682,2.999,3.0503,3.0506,3.0563,3.1004,3.1125,3.0229,2.9163,2.8324,2.7236,2.6471,2.5914,2.5485,2.5528,2.5738,2.6192,2.6758,2.7028,2.7268,2.7313,2.7666,2.7715,2.7762,2.7987,2.8315,2.8654,2.9118,2.9555,2.9897,3.0193,3.0723,3.1272,3.156,3.1913,3.2067,3.222,3.2476,3.2744,3.2966,3.3102,3.3065,3.3052,1.0665,1.0791,1.0791,1.0902,1.1075,1.1404,1.1607,1.1802,1.2543,1.2995,1.3329,1.3776,1.4031,1.4151,1.4255,1.4195,1.3926,1.395,1.3905,1.3986,1.4267,1.477,1.5296,1.5877,1.6508,1.7161,1.7314,1.7559,1.7842,1.7852,1.7656,1.7438,1.7599,1.7869,1.8195,1.8586,1.9154,1.9534,1.9982,2.05,2.0996,2.1341,2.142,2.1447,2.1131,2.07,2.0382,2.0447,2.056,2.0732,2.1356,2.1889,2.2457,2.2853,2.3389,2.3869,2.4582,2.5098,2.5415,2.5993,2.6396,2.6709,2.7376,2.8406,2.9397,2.9663,2.9721,2.9663,2.967,2.9689,2.974,2.9779,2.9779,2.9993,3.0344,3.0455,3.0458,3.0591,3.062,3.0178,2.9502,2.8679,2.8262,2.751,2.6928,2.6517,2.6487,2.6706,2.705,2.7512,2.7762,2.791,2.7734,2.784,2.7981,2.8162,2.8396,2.8805,2.9244,2.9818,3.0385,3.0678,3.1015,3.1327,3.1837,3.2047,3.2208,3.2293,3.2407,3.2639,3.2803,3.2787,3.2726,3.2625,3.2713,1.0767,1.098,1.0989,1.1028,1.1129,1.1451,1.1794,1.2197,1.2864,1.3578,1.4163,1.4517,1.468,1.471,1.4725,1.4671,1.4464,1.4434,1.4389,1.4458,1.4712,1.5151,1.5662,1.622,1.6807,1.736,1.7634,1.7803,1.7969,1.8059,1.8051,1.7951,1.8032,1.8158,1.8509,1.9088,1.977,2.0366,2.0768,2.1246,2.1726,2.1975,2.2053,2.208,2.1909,2.1573,2.1361,2.1345,2.1435,2.1636,2.201,2.2362,2.2635,2.2881,2.3182,2.3609,2.4327,2.4879,2.5297,2.6017,2.6751,2.7544,2.8191,2.8938,2.9704,2.9779,2.9779,2.9779,2.9779,2.9779,2.9779,2.9779,2.9804,2.993,3.0093,3.0294,3.0369,3.0419,3.0278,2.993,2.9599,2.9081,2.8796,2.8526,2.8015,2.7551,2.7615,2.7693,2.7938,2.8203,2.8431,2.8547,2.8411,2.8336,2.8474,2.8631,2.8792,2.9301,2.9829,3.0465,3.1083,3.1617,3.1925,3.2201,3.2261,3.2376,3.2429,3.2448,3.2513,3.2607,3.2471,3.2319,3.2261,3.2185,3.2248,1.0776,1.1097,1.1153,1.1216,1.1341,1.1669,1.2073,1.2582,1.3268,1.4067,1.4913,1.5064,1.5132,1.5132,1.5108,1.5005,1.4872,1.4843,1.4804,1.4858,1.4979,1.5437,1.5971,1.6501,1.7024,1.7556,1.7904,1.8127,1.8286,1.8245,1.8368,1.8509,1.864,1.8747,1.8921,1.96,2.042,2.1087,2.1431,2.1854,2.2328,2.2448,2.2497,2.2482,2.2312,2.2142,2.1994,2.1951,2.2025,2.2223,2.2497,2.2742,2.2909,2.3027,2.3195,2.3625,2.4164,2.4829,2.5285,2.6088,2.7123,2.7883,2.8505,2.9139,2.9603,2.9779,2.9779,2.9779,2.9779,2.9779,2.9767,2.9779,2.9779,2.988,2.998,3.0143,3.008,3.008,2.9947,2.9717,2.9488,2.9424,2.9346,2.9111,2.8724,2.8347,2.8307,2.8383,2.8531,2.8772,2.9035,2.912,2.9061,2.9038,2.904,2.9108,2.9278,2.9886,3.0442,3.1105,3.1717,3.2213,3.2463,3.246,3.2528,3.2623,3.2468,3.2206,3.2268,3.2454,3.2197,3.1838,3.1834,3.1758,3.1658,1.0798,1.109,1.1247,1.1475,1.1825,1.2151,1.2552,1.3072,1.3845,1.4603,1.5279,1.5362,1.5376,1.5362,1.5332,1.5245,1.5176,1.5147,1.5103,1.5073,1.5195,1.5726,1.6193,1.6687,1.7087,1.8005,1.8241,1.8335,1.8663,1.8704,1.8848,1.9181,1.9429,1.9578,1.9425,2.0161,2.1024,2.1749,2.1874,2.2304,2.2665,2.2754,2.2772,2.2757,2.2619,2.2469,2.2454,2.2427,2.2469,2.2531,2.2742,2.2894,2.2942,2.3032,2.3333,2.3904,2.444,2.5017,2.5586,2.667,2.7442,2.7988,2.8497,2.9051,2.9566,2.971,2.9572,2.9384,2.9591,2.9691,2.9741,2.9779,2.9779,2.9817,2.9917,2.9955,2.9905,2.988,2.9771,2.9727,2.9753,2.976,2.976,2.9643,2.9339,2.9091,2.9052,2.9081,2.9192,2.935,2.9632,2.9796,2.9778,2.963,2.9602,2.9567,2.9795,3.042,3.1026,3.1673,3.2081,3.2431,3.2615,3.2639,3.2489,3.2359,3.2068,3.1775,3.1726,3.1601,3.16,3.1373,3.1369,3.1256,3.1067,1.0798,1.1129,1.1247,1.1677,1.2259,1.2521,1.295,1.361,1.4443,1.5079,1.5347,1.542,1.542,1.542,1.542,1.5366,1.5357,1.5342,1.5298,1.5298,1.5415,1.5846,1.6294,1.6602,1.697,1.7524,1.7912,1.831,1.8501,1.8919,1.9404,1.9781,2.0366,2.0656,2.0714,2.1171,2.1799,2.2331,2.2531,2.2729,2.2972,2.2987,2.2972,2.3017,2.2881,2.282,2.2808,2.279,2.2805,2.2805,2.2987,2.3002,2.3017,2.3108,2.3396,2.3963,2.454,2.5243,2.6063,2.7001,2.7513,2.7928,2.8364,2.8782,2.8904,2.8886,2.8805,2.8856,2.9132,2.9208,2.9183,2.9616,2.9741,2.9779,2.9842,2.9842,2.9804,2.9804,2.9772,2.9772,2.9779,2.9779,2.9779,2.9779,2.9566,2.9495,2.9417,2.9747,2.994,3.0012,3.0196,3.045,3.0509,3.0323,3.02,3.0294,3.0453,3.0982,3.1572,3.2169,3.2509,3.2655,3.2539,3.2493,3.2264,3.201,3.1571,3.1148,3.0796,3.0645,3.0758,3.0721,3.057,3.0419,3.0231,1.0909,1.1301,1.1498,1.2004,1.2644,1.2889,1.3428,1.4234,1.4921,1.5293,1.5391,1.542,1.542,1.542,1.542,1.542,1.542,1.542,1.542,1.5434,1.5604,1.597,1.6292,1.6563,1.7068,1.744,1.7868,1.8254,1.8731,1.9302,2.0017,2.076,2.1325,2.1573,2.1714,2.1994,2.2242,2.2635,2.2802,2.2896,2.3047,2.308,2.3093,2.308,2.3065,2.308,2.3095,2.3095,2.3095,2.3095,2.3095,2.3095,2.3095,2.317,2.3496,2.4152,2.5095,2.5845,2.6714,2.7272,2.767,2.7834,2.8304,2.85,2.8431,2.8516,2.8369,2.8403,2.8612,2.8806,2.8982,2.9465,2.9741,2.9779,2.9779,2.9779,2.9779,2.9779,2.9779,2.9779,2.9779,2.9779,2.9779,2.9779,2.9721,2.974,2.9772,3.0168,3.0538,3.0595,3.0736,3.1027,3.1211,3.1107,3.1052,3.1158,3.1361,3.1629,3.2069,3.2562,3.262,3.2718,3.2515,3.2202,3.1746,3.13,3.0901,3.052,3.0294,3.0181,3.0193,3.0068,2.9804,2.9779,2.9779,1.1122,1.1638,1.1965,1.2451,1.2996,1.3307,1.4022,1.4985,1.5142,1.5293,1.542,1.542,1.542,1.542,1.542,1.542,1.542,1.542,1.542,1.5478,1.5643,1.6033,1.6356,1.6681,1.7083,1.7687,1.8143,1.8427,1.907,1.99,2.0792,2.1553,2.1962,2.2242,2.242,2.25,2.2622,2.2863,2.2939,2.3002,2.3093,2.3095,2.3095,2.3095,2.3095,2.3095,2.3095,2.3095,2.3095,2.3095,2.3095,2.3095,2.3095,2.3095,2.3825,2.4768,2.5903,2.67,2.7175,2.7607,2.7881,2.8069,2.843,2.8497,2.8377,2.826,2.8071,2.8127,2.834,2.863,2.8894,2.9352,2.9779,2.9779,2.9779,2.9779,2.9779,2.9779,2.9779,2.9779,2.9779,2.9779,2.9779,2.9779,2.9856,2.9779,2.988,3.0281,3.0631,3.0963,3.1158,3.1609,3.1788,3.1848,3.1869,3.1837,3.1947,3.2101,3.2373,3.2772,3.2794,3.2558,3.2181,3.1738,3.1077,3.0645,3.0357,3.0131,2.993,2.9854,2.993,2.9892,2.9779,2.9779,2.9779,1.1591,1.1996,1.2428,1.2895,1.3435,1.4166,1.4754,1.5142,1.5293,1.5366,1.542,1.542,1.542,1.542,1.542,1.542,1.542,1.542,1.542,1.5507,1.5716,1.598,1.6283,1.6616,1.7007,1.746,1.7952,1.8467,1.9103,2.0107,2.1074,2.1656,2.2402,2.2735,2.2833,2.2866,2.2957,2.3002,2.303,2.3063,2.3093,2.3095,2.3095,2.3095,2.3095,2.3095,2.3095,2.3095,2.3095,2.3095,2.3095,2.3095,2.3095,2.3145,2.364,2.4985,2.6206,2.7239,2.7486,2.7891,2.8254,2.8481,2.8786,2.8472,2.8227,2.8022,2.7859,2.7859,2.822,2.8588,2.8893,2.9284,2.968,2.9837,2.9837,2.9818,2.9818,2.985,2.985,2.9953,2.9953,2.9991,2.9953,2.9953,3.0011,2.9856,2.9974,3.0416,3.0811,3.1165,3.1676,3.213,3.2352,3.2444,3.2385,3.2354,3.245,3.2602,3.2735,3.2702,3.249,3.2194,3.1792,3.124,3.0588,3.0218,2.9962,2.9811,2.9779,2.9779,2.9829,2.9804,2.9779,2.9818,2.9837,1.222,1.2674,1.304,1.3541,1.4151,1.4784,1.5147,1.5269,1.5352,1.542,1.542,1.542,1.542,1.542,1.542,1.5449,1.5522,1.5546,1.5561,1.5701,1.5803,1.6025,1.6278,1.6581,1.6963,1.738,1.7885,1.8449,1.917,2.0461,2.1557,2.209,2.2827,2.3043,2.3123,2.3165,2.315,2.3123,2.3108,2.3095,2.3095,2.3095,2.3095,2.3095,2.3095,2.3095,2.3095,2.3095,2.3095,2.3095,2.3095,2.3095,2.3288,2.3545,2.4213,2.5521,2.6677,2.7591,2.8072,2.856,2.8867,2.9153,2.942,2.9287,2.8775,2.8413,2.7867,2.7532,2.8148,2.866,2.8945,2.9245,2.9593,2.9946,2.9895,2.9876,2.9876,2.9908,3.0023,3.0145,3.0222,3.0273,3.0273,3.0241,3.0241,3.026,3.0426,3.0827,3.118,3.1516,3.2121,3.2742,3.2927,3.3065,3.297,3.2874,3.2918,3.2848,3.2543,3.2461,3.2215,3.1687,3.1155,3.062,3.0073,2.988,2.9811,2.9811,2.9779,2.9779,2.9818,2.9856,2.9895,2.9953,2.9972,1.2964,1.3534,1.3746,1.4234,1.4956,1.5127,1.524,1.5396,1.541,1.542,1.5449,1.5439,1.5478,1.5493,1.5478,1.5546,1.5604,1.5643,1.5716,1.5909,1.5904,1.6077,1.6335,1.6595,1.7022,1.7551,1.8064,1.8534,1.9375,2.0568,2.1799,2.2556,2.3227,2.3437,2.333,2.3343,2.3271,2.3123,2.3095,2.3095,2.3095,2.3095,2.3095,2.3095,2.3095,2.3095,2.3095,2.3095,2.3095,2.3095,2.3095,2.3095,2.3487,2.4329,2.5171,2.6083,2.7185,2.8048,2.8691,2.9214,2.9668,3.0038,3.0403,3.019,2.9654,2.8946,2.8349,2.8,2.8534,2.8976,2.9279,2.9862,3.0328,3.0406,3.0349,3.0305,3.0279,3.0324,3.0463,3.0615,3.0729,3.0766,3.0842,3.0829,3.0791,3.0766,3.0858,3.1209,3.1817,3.2136,3.2693,3.3407,3.3513,3.362,3.3492,3.342,3.339,3.3182,3.2765,3.2465,3.2406,3.1559,3.0473,3.0203,2.9996,2.9881,2.9818,2.9798,2.9792,2.9811,2.985,2.9934,3.0017,3.019,3.0298,1.3625,1.3881,1.4094,1.4497,1.497,1.5039,1.5181,1.542,1.5575,1.5643,1.5633,1.573,1.573,1.5648,1.5633,1.5687,1.5701,1.573,1.5798,1.5943,1.6019,1.6192,1.6459,1.6722,1.7134,1.759,1.8084,1.8692,1.9495,2.0664,2.1641,2.2047,2.2928,2.3494,2.342,2.3418,2.3315,2.311,2.3095,2.3095,2.3095,2.3095,2.3095,2.3095,2.3095,2.3095,2.3095,2.3095,2.3095,2.3095,2.3095,2.3183,2.3353,2.472,2.5566,2.6258,2.7601,2.8561,2.9218,2.9761,3.0205,3.0477,3.0702,3.0717,3.0387,2.9697,2.9194,2.8931,2.8963,2.9369,2.9808,3.0482,3.099,3.0928,3.0835,3.0785,3.0723,3.0842,3.0966,3.1153,3.1283,3.1381,3.1455,3.1455,3.1363,3.1312,3.1294,3.1683,3.2651,3.3198,3.3567,3.4114,3.4152,3.4189,3.4084,3.3982,3.3969,3.3708,3.3305,3.2972,3.2586,3.1621,3.0605,3.0278,3.0043,2.9972,2.9895,2.9811,2.9811,2.985,2.9991,3.0133,3.0482,3.0678,3.0785,1.4285,1.4452,1.4571,1.4793,1.5044,1.5083,1.5264,1.5546,1.5778,1.5918,1.599,1.599,1.5947,1.5865,1.5836,1.5836,1.5836,1.5803,1.6019,1.6177,1.6235,1.6378,1.662,1.685,1.72,1.7631,1.8412,1.9088,1.9633,2.0617,2.1468,2.1932,2.289,2.3443,2.3435,2.3465,2.336,2.3095,2.311,2.3123,2.3123,2.3095,2.3095,2.3095,2.3095,2.3095,2.3095,2.3095,2.3095,2.3153,2.3183,2.3514,2.3978,2.5107,2.6003,2.6895,2.8026,2.9247,2.9716,3.019,3.0628,3.0866,3.1087,3.1117,3.0984,3.0328,2.9884,2.9662,3.0022,3.0419,3.0649,3.1213,3.1548,3.1634,3.1561,3.15,3.1482,3.1542,3.1878,3.2313,3.2439,3.2533,3.264,3.2769,3.2627,3.2408,3.2304,3.2631,3.3508,3.4273,3.4638,3.5022,3.5184,3.4964,3.4791,3.4684,3.4584,3.4253,3.3824,3.2916,3.2181,3.1496,3.081,3.0533,3.0286,3.0133,3.0049,2.9908,2.9895,2.9953,3.0152,3.0349,3.0753,3.1209,3.1537,1.4813,1.4985,1.4926,1.5024,1.5156,1.5171,1.5362,1.5687,1.5966,1.621,1.6374,1.6267,1.6185,1.6099,1.6013,1.6032,1.6017,1.5951,1.6196,1.6435,1.652,1.6648,1.6765,1.6934,1.7368,1.7947,1.8667,1.9132,1.9575,2.0583,2.1422,2.2046,2.2698,2.3312,2.355,2.3613,2.3524,2.3288,2.3213,2.3168,2.3138,2.3095,2.3095,2.3095,2.3095,2.3095,2.3123,2.3153,2.3153,2.3228,2.3375,2.3704,2.4426,2.5404,2.6431,2.7402,2.8658,2.965,3.0236,3.0643,3.0955,3.1219,3.1424,3.1423,3.1263,3.0999,3.0538,3.0592,3.0958,3.1324,3.1553,3.1986,3.2301,3.2457,3.2385,3.2327,3.2327,3.2363,3.2832,3.3339,3.3444,3.3534,3.3656,3.3814,3.3725,3.35,3.3639,3.4064,3.4538,3.5171,3.5681,3.6174,3.654,3.6243,3.571,3.5399,3.5276,3.4738,3.4191,3.29,3.1905,3.1647,3.131,3.0855,3.0628,3.0381,3.0126,2.9946,2.9972,3.0075,3.0305,3.059,3.1166,3.1653,3.2327,1.497,1.497,1.4714,1.4773,1.5,1.5039,1.5293,1.5711,1.5984,1.6257,1.6495,1.6623,1.6566,1.632,1.6153,1.6114,1.6157,1.6099,1.6271,1.6538,1.6779,1.6895,1.705,1.7259,1.7714,1.8275,1.8799,1.9132,1.9537,2.043,2.1293,2.2006,2.2645,2.3258,2.3772,2.3802,2.37,2.348,2.3345,2.3313,2.3271,2.3225,2.311,2.3095,2.3095,2.3198,2.3285,2.333,2.3405,2.348,2.3584,2.3896,2.4634,2.5657,2.6733,2.7826,2.9131,3.0021,3.0599,3.0955,3.1234,3.1292,3.1438,3.1481,3.1365,3.1307,3.1073,3.1146,3.154,3.2056,3.2426,3.3182,3.3593,3.3537,3.3468,3.343,3.3395,3.35,3.3773,3.3997,3.4082,3.4182,3.4249,3.4334,3.4317,3.4193,3.4263,3.474,3.5633,3.6198,3.67,3.7259,3.7805,3.7294,3.6657,3.6213,3.592,3.5336,3.4573,3.3399,3.2577,3.2227,3.1858,3.1379,3.0892,3.0571,3.0318,3.0107,3.0107,3.0222,3.047,3.0817,3.1445,3.2123,3.2789]},{"header":{"parameterUnit":"m.s-1","parameterCategory":1,"la1":31.0,"la2":29.5877,"lo1":-88.7671,"lo2":-86.6584,"dy":0.0162,"dx":0.0185,"nx":115,"ny":88,"refTime":"2024-05-28T12:00:00:Z","depth":0,"parameterNumber":3,"parameterNumberName":"V-component_of_WINDS"},"data":[0.0,0.0,0.0,0.0,0.0,0.0,0.0,0.0,0.0,0.0,0.0,0.0,0.0,0.0,0.0,0.0,0.0,0.0,0.0,0.0,0.0,0.0,0.0,0.0,0.0,0.0,0.0,0.0,0.0,0.0,0.0,0.0,0.0,0.0,0.0,0.0,0.0,0.0,0.0,0.0,0.0,0.0,0.0,0.0,0.0,0.0,0.0,0.0,0.0,0.0,0.0,0.0,0.0,0.0,0.0,0.0,0.0,0.0,0.0,0.0,0.0,0.0,0.0,0.0,0.0,0.0,0.0,0.0,0.0,0.0,0.0,0.0,0.0,0.0,0.0,0.0,0.0,0.0,0.0,0.0,0.0,0.0,0.0,0.0,0.0,0.0,0.0,0.0,0.0,0.0,0.0,0.0,0.0,0.0,0.0,0.0,0.0,0.0,0.0,0.0,0.0,0.0,0.0,0.0,0.0,0.0,0.0,0.0,0.0,0.0,0.0,0.0,0.0,0.0,0.0,0.0,0.0,0.0,0.0,0.0,0.0,0.0,0.0,0.0,0.0,0.0,0.0,0.0,0.0,0.0,0.0,0.0,0.0,0.0,0.0,0.0,0.0,0.0,0.0,0.0,0.0,0.0,0.0,0.0,0.0,0.0,0.0,0.0,0.0,0.0,0.0,0.0,0.0,0.0,0.0,0.0,0.0,0.0,0.0,0.0,0.0,0.0,0.0,0.0,0.0,0.0,0.0,0.0,0.0,0.0,0.0,0.0,0.0,0.0,0.0,0.0,0.0,0.0,0.0,0.0,0.0,0.0,0.0,0.0,0.0,0.0,0.0,0.0,0.0,0.0,0.0,0.0,0.0,0.0,0.0,0.0,0.0,0.0,0.0,0.0,0.0,0.0,0.0,0.0,0.0,0.0,0.0,0.0,0.0,0.0,0.0,0.0,0.0,0.0,0.0,0.0,0.0,0.0,0.0,0.0,0.0,0.0,0.0,0.0,0.0,0.0,0.0,0.0,0.0,0.0,0.0,0.0,0.0,0.0,0.0,0.0,0.0,0.0,0.0,0.0,0.0,0.0,0.0,0.0,0.0,0.0,0.0,0.0,0.0,0.0,0.0,0.0,0.0,0.0,0.0,0.0,0.0,0.0,0.0,0.0,0.0,0.0,0.0,0.0,0.0,0.0,0.0,0.0,0.0,0.0,0.0,0.0,0.0,0.0,0.0,0.0,0.0,0.0,0.0,0.0,0.0,0.0,0.0,0.0,0.0,0.0,0.0,0.0,0.0,0.0,0.0,0.0,0.0,0.0,0.0,0.0,0.0,0.0,0.0,0.0,0.0,0.0,0.0,0.0,0.0,0.0,0.0,0.0,0.0,0.0,0.0,0.0,0.0,0.0,0.0,0.0,0.0,0.0,0.0,0.0,0.0,0.0,0.0,0.0,0.0,0.0,0.0,0.0,0.0,0.0,0.0,0.0,0.0,0.0,0.0,0.0,0.0,0.0,0.0,0.0,0.0,0.0,0.0,0.0,0.0,0.0,0.0,0.0,0.0,0.0,0.0,0.0,0.0,0.0,0.0,0.0,0.0,0.0,0.0,0.0,0.0,0.0,0.0,0.0,0.0,0.0,0.0,0.0,0.0,0.0,0.0,0.0,0.0,0.0,0.0,0.0,0.0,0.0,0.0,0.0,0.0,0.0,0.0,0.0,0.0,0.0,0.0,0.0,0.0,0.0,0.0,0.0,0.0,0.0,0.0,0.0,0.0,0.0,0.0,0.0,0.0,0.0,0.0,0.0,0.0,0.0,0.0,0.0,0.0,0.0,0.0,0.0,0.0,0.0,0.0,0.0,0.0,0.0,0.0,0.0,0.0,0.0,0.0,0.0,0.0,0.0,0.0,0.0,0.0,0.0,0.0,0.0,0.0,0.0,0.0,0.0,0.0,0.0,0.0,0.0,0.0,0.0,0.0,0.0,0.0,0.0,0.0,0.0,0.0,0.0,0.0,0.0,0.0,0.0,0.0,0.0,0.0,0.0,0.0,0.0,0.0,0.0,0.0,0.0,0.0,0.0,0.0,0.0,0.0,0.0,0.0,0.0,0.0,0.0,0.0,0.0,0.0,0.0,0.0,0.0,0.0,0.0,0.0,0.0,0.0,0.0,0.0,0.0,0.0,0.0,0.0,0.0,0.0,0.0,0.0,0.0,0.0,0.0,0.0,0.0,0.0,0.0,0.0,0.0,0.0,0.0,0.0,0.0,0.0,0.0,0.0,0.0,0.0,0.0,0.0,0.0,0.0,0.0,0.0,0.0,0.0,0.0,0.0,0.0,0.0,0.0,0.0,0.0,0.0,0.0,0.0,0.0,0.0,0.0,0.0,0.0,0.0,0.0,0.0,0.0,0.0,0.0,0.0,0.0,0.0,0.0,0.0,0.0,0.0,0.0,0.0,0.0,0.0,0.0,0.0,0.0,0.0,0.0,0.0,0.0,0.0,0.0,0.0,0.0,0.0,0.0,0.0,0.0,0.0,0.0,0.0,0.0,0.0,0.0,0.0,0.0,0.0,0.0,0.0,0.0,0.0,0.0,0.0,0.0,0.0,0.0,0.0,0.0,0.0,0.0,0.0,0.0,0.0,0.0,0.0,0.0,0.0,0.0,0.0,0.0,0.0,0.0,0.0,0.0,0.0,0.0,0.0,0.0,0.0,0.0,0.0,0.0,0.0,0.0,0.0,0.0,0.0,0.0,0.0,0.0,0.0,0.0,0.0,0.0,0.0,0.0,0.0,0.0,0.0,0.0,0.0,0.0,0.0,0.0,0.0,0.0,0.0,0.0,0.0,0.0,0.0,0.0,0.0,0.0,0.0,0.0,0.0,0.0,0.0,0.0,0.0,0.0,0.0,0.0,0.0,0.0,0.0,0.0,0.0,0.0,0.0,0.0,0.0,0.0,0.0,0.0,0.0,0.0,0.0,0.0,0.0,0.0,0.0,0.0,0.0,0.0,0.0,0.0,0.0,0.0,0.0,0.0,0.0,0.0,0.0,0.0,0.0,0.0,0.0,0.0,0.0,0.0,0.0,0.0,0.0,0.0,0.0,0.0,0.0,0.0,0.0,0.0,0.0,0.0,0.0,0.0,0.0,0.0,0.0,0.0,0.0,0.0,0.0,0.0,0.0,0.0,0.0,0.0,0.0,0.0,0.0,0.0,0.0,0.0,0.0,0.0,0.0,0.0,0.0,0.0,0.0,0.0,0.0,0.0,0.0,0.0,0.0,0.0,0.0,0.0,0.0,0.0,0.0,0.0,0.0,0.0,0.0,0.0,0.0,0.0,0.0,0.0,0.0,0.0,0.0,0.0,0.0,0.0,0.0,0.0,0.0,0.0,0.0,0.0,0.0,0.0,0.0,0.0,0.0,0.0,0.0,0.0,0.0,0.0,0.0,0.0,0.0,0.0,0.0,0.0,0.0,0.0,0.0,0.0,0.0,0.0,0.0,0.0,0.0,0.0,0.0,0.0,0.0,0.0,0.0,0.0,0.0,0.0,0.0,0.0,0.0,0.0,0.0,0.0,0.0,0.0,0.0,0.0,0.0,0.0,0.0,0.0,0.0,0.0,0.0,0.0,0.0,0.0,0.0,0.0,0.0,0.0,0.0,0.0,0.0,0.0,0.0,0.0,0.0,0.0,0.0,0.0,0.0,0.0,0.0,0.0,0.0,0.0,0.0,0.0,0.0,0.0,0.0,0.0,0.0,0.0,0.0,0.0,0.0,0.0,0.0,0.0,0.0,0.0,0.0,0.0,0.0,0.0,0.0,0.0,0.0,0.0,0.0,0.0,0.0,0.0,0.0,0.0,0.0,0.0,0.0,0.0,0.0,0.0,0.0,0.0,0.0,0.0,0.0,0.0,0.0,0.0,0.0,0.0,0.0,0.0,0.0,0.0,0.0,0.0,0.0,0.0,0.0,0.0,0.0,0.0,0.0,0.0,0.0,0.0,0.0,0.0,0.0,0.0,0.0,0.0,0.0,0.0,0.0,0.0,0.0,0.0,0.0,0.0,0.0,0.0,0.0,0.0,0.0,0.0,0.0,0.0,0.0,0.0,0.0,0.0,0.0,0.0,0.0,0.0,0.0,0.0,0.0,0.0,0.0,0.0,0.0,0.0,0.0,0.0,0.0,0.0,0.0,0.0,0.0,0.0,0.0,0.0,0.0,0.0,0.0,0.0,0.0,0.0,0.0,0.0,0.0,0.0,0.0,0.0,0.0,0.0,0.0,0.0,0.0,0.0,0.8467,0.0,0.0,0.0,0.0,0.0,0.0,0.0,0.0,0.0,0.0,0.0,0.0,0.0,0.0,0.0,0.0,0.0,0.0,0.0,0.0,0.0,0.0,0.0,0.0,0.0,0.0,0.0,0.0,0.0,0.0,0.0,0.0,0.0,0.0,0.0,0.0,0.0,0.0,0.0,0.0,0.0,0.0,0.0,0.0,0.0,0.0,0.0,0.0,0.0,0.0,0.0,0.0,0.0,0.0,0.0,0.0,0.0,0.0,0.0,0.0,0.0,0.0,0.0,0.0,0.0,0.0,0.0,0.0,0.0,0.0,0.0,0.0,0.0,0.0,0.0,0.0,0.0,0.0,0.0,0.0,0.0,0.0,0.0,0.0,0.0,0.0,0.0,0.0,0.0,0.0,0.0,0.0,0.0,0.0,0.0,0.0,0.0,0.0,0.0,0.0,0.0,0.0,0.0,0.0,0.0,0.0,0.0,0.0,0.0,0.0,0.7775,0.7849,0.8003,0.823,0.8488,0.0,0.0,0.0,0.0,0.0,0.0,0.0,0.0,0.0,0.0,0.0,0.0,0.0,0.0,0.0,0.0,0.0,0.0,0.0,0.0,0.0,0.0,0.0,0.0,0.0,0.0,0.0,0.0,0.0,0.0,0.0,0.0,0.0,0.0,0.0,0.0,0.0,0.0,0.0,0.0,0.0,0.0,0.0,0.0,0.0,0.0,0.0,0.0,0.0,0.0,0.0,0.0,0.0,0.0,0.0,0.0,0.0,0.0,0.0,0.0,0.0,0.0,0.0,0.0,0.0,0.0,0.0,0.0,0.0,0.0,0.0,0.0,0.0,0.0,0.0,0.0,0.0,0.0,0.0,0.0,0.0,0.0,0.0,0.0,0.0,0.0,0.0,0.0,0.0,0.0,0.0,0.0,0.0,0.0,0.0,0.0,0.0,0.0,0.0,0.0,0.0,0.0,0.0,0.0,0.0,0.0,0.0,0.0,0.0,0.0,0.0,0.0,0.8013,0.8271,0.8598,0.0,0.0,0.0,0.0,0.0,0.0,0.0,0.0,0.0,0.0,0.0,0.0,0.0,0.0,0.0,0.0,0.0,0.0,0.0,0.0,0.0,0.0,0.0,0.0,0.0,0.0,0.0,0.0,0.0,0.0,0.0,0.0,0.0,0.0,0.0,0.0,0.0,0.0,0.0,0.0,0.0,0.0,0.0,0.0,0.0,0.0,0.0,0.0,0.0,0.0,0.0,0.0,0.0,0.0,0.0,0.0,0.0,0.0,0.0,0.0,0.0,0.0,0.0,0.0,0.0,0.0,0.0,0.0,0.0,0.0,0.0,0.0,0.0,0.0,0.0,0.0,0.0,0.0,0.0,0.0,0.0,0.0,0.0,0.0,0.0,0.0,0.0,0.0,0.0,0.0,0.0,0.0,0.0,0.0,0.0,0.0,0.0,0.0,0.0,0.0,0.0,0.0,0.0,0.0,0.0,0.0,0.0,0.0,0.0,0.0,0.7698,0.7888,0.8082,0.0,0.8917,0.0,0.0,0.0,0.0,0.0,0.0,0.0,0.0,0.0,0.0,0.0,0.0,0.0,0.0,0.0,0.0,0.0,0.0,0.0,0.0,0.0,0.0,0.0,0.0,0.0,0.0,0.0,0.0,0.0,0.0,0.0,0.0,0.0,0.0,0.0,0.0,0.0,0.0,0.0,0.0,0.0,0.0,0.0,0.0,0.0,0.0,0.0,0.0,0.0,0.0,0.0,0.0,0.0,0.0,0.0,0.0,0.0,0.0,0.0,0.0,0.0,0.0,0.0,0.0,0.0,0.0,0.0,0.0,0.0,0.0,0.0,0.0,0.0,0.0,0.0,0.0,0.0,0.0,0.0,0.0,0.0,0.0,0.0,0.0,0.0,0.0,0.0,0.0,0.0,0.0,0.0,0.0,0.0,0.0,0.0,0.0,0.0,0.0,0.0,0.0,0.0,0.0,0.0,0.0,0.0,0.0,0.0,0.0,0.0,0.0,0.0,0.7899,0.8288,0.8639,0.0,0.0,0.0,0.0,0.0,0.0,0.0,0.0,0.0,0.0,0.0,0.0,0.0,0.0,0.0,0.0,0.0,0.0,0.0,0.0,0.0,0.0,0.0,0.0,0.0,0.0,0.0,0.0,0.0,0.0,0.0,0.0,0.0,0.0,0.0,0.0,0.0,0.0,0.0,0.0,0.0,0.0,0.0,0.0,0.0,0.0,0.0,0.0,0.0,0.0,0.0,0.0,0.0,0.0,0.0,0.0,0.0,0.0,0.0,0.0,0.0,0.0,0.0,0.0,0.0,0.0,0.0,0.0,0.0,0.0,0.0,0.0,0.0,0.0,0.0,0.0,0.0,0.0,0.0,0.0,0.0,0.0,0.0,0.0,0.0,0.0,0.0,0.0,0.0,0.0,0.0,0.0,0.0,0.0,0.0,0.0,0.0,0.0,0.0,0.0,0.0,0.0,0.0,0.0,0.0,0.0,0.0,0.0,0.0,0.0,0.7533,0.0,0.7991,0.8438,0.8768,0.8989,0.0,0.0,0.0,0.0,0.0,0.0,0.0,0.0,0.0,0.0,0.0,0.0,0.0,0.0,0.0,0.0,0.0,0.0,0.0,0.0,0.0,0.0,0.0,0.0,0.0,0.0,0.0,0.0,0.0,0.0,0.0,0.0,0.0,0.0,0.0,0.0,0.0,0.0,0.0,0.0,0.0,0.0,0.0,0.0,0.0,0.0,0.0,0.0,0.0,0.0,0.0,0.0,0.0,0.0,0.0,0.0,0.0,0.0,0.0,0.0,0.0,0.0,0.0,0.0,0.0,0.0,0.0,0.0,0.0,0.0,0.0,0.0,0.0,0.0,0.0,0.0,0.0,0.0,0.0,0.0,0.0,0.0,0.0,0.0,0.0,0.0,0.0,0.0,0.0,0.0,0.0,0.0,0.0,0.0,0.0,0.0,0.0,0.0,0.0,0.0,0.0,0.0,0.0,0.0,0.0,0.0,0.0,0.0,0.0,0.7483,0.7739,0.8189,0.845,0.8719,0.0,0.0,0.0,0.0,0.0,0.0,0.0,0.0,0.0,0.0,0.0,0.0,0.0,0.0,0.0,0.0,0.0,0.0,0.0,0.0,0.0,0.0,0.0,0.0,0.0,0.0,0.0,0.0,0.0,0.0,0.0,0.0,0.0,0.0,0.0,0.0,0.0,0.0,0.0,0.0,0.0,0.0,0.0,0.0,0.0,0.0,0.0,0.0,0.0,0.0,0.0,0.0,0.0,0.0,0.0,0.0,0.0,0.0,0.0,0.0,0.0,0.0,0.0,0.0,0.0,0.0,0.0,0.0,0.0,0.0,0.0,0.0,0.0,0.0,0.0,0.0,0.0,0.0,0.0,0.0,0.0,0.0,0.0,0.0,0.0,0.0,0.0,0.0,0.0,0.0,0.0,0.0,0.0,0.0,0.0,0.0,0.0,0.0,0.0,0.0,0.0,0.0,0.0,0.0,0.0,0.0,0.0,0.0,0.0,0.7316,0.7913,0.844,0.0,0.9116,0.9208,0.0,0.0,0.0,0.0,0.0,0.0,0.0,0.0,0.0,0.0,0.0,0.0,0.0,0.0,0.0,0.0,0.0,0.0,0.0,0.0,0.0,0.0,0.0,0.0,0.0,0.0,0.0,0.0,0.0,0.0,0.0,0.0,0.0,0.0,0.0,0.0,0.0,0.0,0.0,0.0,0.0,0.0,0.0,0.0,0.0,0.0,0.0,0.0,0.0,0.0,0.0,0.0,0.0,0.0,0.0,0.0,0.0,0.0,0.0,0.0,0.0,0.0,0.0,0.0,0.0,0.0,0.0,0.0,0.0,0.0,0.0,0.0,0.0,0.0,0.0,0.0,0.0,0.0,0.0,0.0,0.0,0.0,0.0,0.0,0.0,0.0,0.0,0.0,0.0,0.0,0.0,0.0,0.0,0.0,0.0,0.0,0.0,0.0,0.0,0.0,0.0,0.0,0.0,0.0,0.0,0.0,0.0,0.0,0.0,0.7563,0.0,0.8998,0.0,0.9455,0.9442,0.0,0.0,0.0,0.0,0.0,0.0,0.0,0.0,0.0,0.0,0.0,0.0,0.0,0.0,0.0,0.0,0.0,0.0,0.0,0.0,0.0,0.0,0.0,0.0,0.0,0.0,0.0,0.0,0.0,0.0,0.0,0.0,0.0,0.0,0.0,0.0,0.0,0.0,0.0,0.0,0.0,0.0,0.0,0.0,0.0,0.0,0.0,0.0,0.0,0.0,0.0,0.0,0.0,0.0,0.0,0.0,0.0,0.0,0.0,0.0,0.0,0.0,0.0,0.0,0.0,0.0,0.0,0.0,0.0,0.0,0.0,0.0,0.0,0.0,0.0,0.0,0.0,0.0,0.0,0.0,0.0,0.0,0.0,0.0,0.0,0.0,0.0,0.0,0.0,0.0,0.0,0.0,0.0,0.0,0.0,0.0,0.0,0.0,0.0,0.0,0.0,0.0,0.0,0.0,0.0,0.0,0.0,0.0,0.7715,0.8306,0.9107,0.9403,0.9158,0.9488,0.9402,0.0,0.0,0.0,0.0,0.0,0.0,0.0,0.0,0.0,0.0,0.0,0.0,0.0,0.0,0.0,0.0,0.0,0.0,0.0,0.0,0.0,0.0,0.0,0.0,0.0,0.0,0.0,0.0,0.0,0.0,0.0,0.0,0.0,0.0,0.0,0.0,0.0,0.0,0.0,0.0,0.0,0.0,0.0,0.0,0.0,0.0,0.0,0.0,0.0,0.0,0.0,0.0,0.0,0.0,0.0,0.0,0.0,0.0,0.0,0.0,0.0,0.0,0.0,0.0,0.0,0.0,0.0,0.0,0.0,0.0,0.0,0.0,0.0,0.0,0.0,0.0,0.0,0.0,0.0,0.0,0.0,0.0,0.0,0.0,0.0,0.0,0.0,0.0,0.0,0.0,0.0,0.0,0.0,0.0,0.0,0.0,0.0,0.0,0.0,0.0,0.0,0.0,0.0,0.0,0.0,0.0,0.0,0.0,0.0,0.8874,0.9778,1.0317,1.0394,1.0339,1.0072,0.0,0.0,0.0,0.0,0.0,0.0,0.0,0.0,0.0,0.0,0.0,0.0,0.0,0.0,0.0,0.0,0.0,0.0,0.0,0.0,0.0,0.0,0.0,0.0,0.0,0.0,0.0,0.0,0.0,0.0,0.0,0.0,0.0,0.0,0.0,0.0,0.0,0.0,0.0,0.0,0.0,0.0,0.0,0.0,0.0,0.0,0.0,0.0,0.0,0.0,0.0,0.0,0.0,0.0,0.0,0.0,0.0,0.0,0.0,0.0,0.0,0.0,0.0,0.0,0.0,0.0,0.0,0.0,0.0,0.0,0.0,0.0,0.0,0.0,0.0,0.0,0.0,0.0,0.0,0.0,0.0,0.0,0.0,0.0,0.0,0.0,0.0,0.0,0.0,0.0,0.0,0.0,0.0,0.0,0.0,0.0,0.0,0.0,0.0,0.0,0.0,0.0,0.0,0.0,0.0,0.0,0.0,0.0,0.0,1.0365,1.122,1.1595,1.1418,1.139,1.0928,0.9935,0.0,0.0,0.0,0.0,0.0,0.0,0.0,0.0,0.0,0.0,0.0,0.0,0.0,0.0,0.0,0.0,0.0,0.0,0.0,0.0,0.0,0.0,0.0,0.0,0.0,0.0,0.0,0.0,0.0,0.0,0.0,0.0,0.0,0.0,0.0,0.0,0.0,0.0,0.0,0.0,0.0,0.0,0.0,0.0,0.0,0.0,0.0,0.0,0.0,0.0,0.0,0.0,0.0,0.0,0.0,0.0,0.0,0.0,0.0,0.0,0.0,0.0,0.0,0.0,0.0,0.0,0.0,0.0,0.0,0.0,0.0,0.0,0.0,0.0,0.0,0.0,0.0,0.0,0.0,0.0,0.0,0.0,0.0,0.0,0.0,0.0,0.0,0.0,0.0,0.0,0.0,0.0,0.0,0.0,0.0,0.0,0.0,0.0,0.0,0.0,0.0,0.0,0.0,0.0,0.0,0.0,0.0,0.0,1.2524,1.3299,1.3222,1.2332,1.2593,1.1923,0.0,0.0,0.0,0.0,0.0,0.0,0.0,0.0,0.0,0.0,0.0,0.0,0.0,0.0,0.0,0.0,0.0,0.0,0.0,0.0,0.0,0.0,0.0,0.0,0.0,0.0,0.0,0.0,0.0,0.0,0.0,0.0,0.0,0.0,0.0,0.0,0.0,0.0,0.0,0.0,0.0,0.0,0.0,0.0,0.0,0.0,0.0,0.0,0.0,0.0,0.0,0.0,0.0,0.0,0.0,0.0,0.0,0.0,0.0,0.0,0.0,0.0,0.0,0.0,0.0,0.0,0.0,0.0,0.0,0.0,0.0,0.0,0.0,0.0,0.0,0.0,0.0,0.0,0.0,0.0,0.0,0.0,0.0,0.0,0.0,0.0,0.0,0.0,0.0,0.0,0.0,0.0,0.0,0.0,0.0,0.0,0.0,0.0,0.0,0.0,0.0,0.0,0.0,0.0,0.0,0.0,0.0,0.0,0.0,1.4392,1.5345,1.5361,1.4489,1.3817,1.3043,0.0,0.0,0.0,0.0,0.0,0.0,0.0,0.0,0.0,0.0,0.0,0.0,0.0,0.0,0.0,0.0,0.0,0.0,0.0,0.0,0.0,0.0,0.0,0.0,0.0,0.0,0.0,0.0,0.0,0.0,0.0,0.0,0.0,0.0,0.0,0.0,0.0,0.0,0.0,0.0,0.0,0.0,0.0,0.0,0.0,0.0,0.0,0.0,0.0,0.0,0.0,0.0,0.0,0.0,0.0,0.0,0.0,0.0,0.0,0.0,0.0,0.0,0.0,0.0,0.0,0.0,0.0,0.0,0.0,0.0,0.0,0.0,0.0,0.0,0.0,0.0,0.0,0.0,0.0,0.0,0.0,0.0,0.0,0.0,0.0,0.0,0.0,0.0,0.0,0.0,0.0,0.0,0.0,0.0,0.0,0.0,0.0,0.0,0.0,0.0,0.0,0.0,0.0,0.0,0.0,0.0,0.0,0.0,1.3506,1.5618,1.686,1.7332,1.6992,1.5715,1.4369,0.0,0.0,0.0,0.0,0.0,0.0,0.0,0.0,0.0,0.0,0.0,0.0,0.0,0.0,0.0,0.0,0.0,0.0,0.0,0.0,0.0,0.0,0.0,0.0,0.0,0.0,0.0,0.0,0.0,0.0,0.0,0.0,0.0,0.0,0.0,0.0,0.0,0.0,0.0,0.0,0.0,0.0,0.0,0.0,0.0,0.0,0.0,0.0,0.0,0.0,0.0,0.0,0.0,0.0,0.0,0.0,0.0,0.0,0.0,0.0,0.0,0.0,0.0,0.0,0.0,0.0,0.0,0.0,0.0,0.0,0.0,0.0,0.0,0.0,0.0,0.0,0.0,0.0,0.0,0.0,0.0,0.0,0.0,0.0,0.0,0.0,0.0,0.0,0.0,0.0,0.0,0.0,0.0,0.0,0.0,0.0,0.0,0.0,0.0,0.0,0.0,0.0,0.0,0.0,0.0,0.0,0.0,0.0,1.4249,1.6381,1.7918,1.8874,1.9243,1.7762,1.5784,0.0,0.0,0.0,0.0,0.0,0.0,0.0,0.0,0.0,0.0,0.0,0.0,0.0,0.0,0.0,0.0,0.0,0.0,0.0,0.0,0.0,0.0,0.0,0.0,0.0,0.0,0.0,0.0,0.0,0.0,0.0,0.0,0.0,0.0,0.0,0.0,0.0,0.0,0.0,0.0,0.0,0.0,0.0,0.0,0.0,0.0,0.0,0.0,0.0,0.0,0.0,0.0,0.0,0.0,0.0,0.0,0.0,0.0,0.0,0.0,0.0,0.0,0.0,0.0,0.0,0.0,0.0,0.0,0.0,0.0,0.0,0.0,0.0,0.0,0.0,0.0,0.0,0.0,0.0,0.0,0.0,0.0,0.0,0.0,0.0,0.0,0.0,0.0,0.0,0.0,0.0,0.0,0.0,0.0,0.0,0.0,0.0,0.0,0.0,0.0,0.0,0.0,0.0,0.0,0.0,0.0,0.0,0.0,1.5007,1.711,1.8157,1.8906,1.9281,1.8198,1.6876,0.0,0.0,0.0,0.0,0.0,0.0,0.0,0.0,0.0,0.0,0.0,0.0,0.0,0.0,0.0,0.0,0.0,0.0,0.0,0.0,0.0,0.0,0.0,0.0,0.0,0.0,0.0,0.0,0.0,0.0,0.0,0.0,0.0,0.0,0.0,0.0,0.0,0.0,0.0,0.0,0.0,0.0,0.0,0.0,0.0,0.0,0.0,0.0,1.0606,0.0,0.0,0.0,0.0,0.0,0.0,0.0,0.0,0.0,0.0,0.0,0.0,0.0,0.0,0.0,0.0,0.0,0.0,0.0,0.0,0.0,0.0,0.0,0.0,0.0,0.0,0.0,0.0,0.0,0.0,0.0,0.0,0.0,0.0,0.0,0.0,0.0,0.0,0.0,0.0,0.0,0.0,0.0,0.0,0.0,0.0,0.0,0.0,0.0,0.0,0.0,0.0,0.0,0.0,0.0,0.0,0.0,0.0,0.0,1.5986,1.7787,1.8701,1.9325,1.9629,1.8701,1.7497,0.0,0.0,0.0,0.0,0.0,0.0,0.0,0.0,0.0,0.0,0.0,0.0,0.0,0.0,0.0,0.0,0.0,0.0,0.0,0.0,0.0,0.0,0.0,0.0,0.0,0.0,0.0,0.0,0.0,0.0,0.0,0.0,0.0,0.0,0.0,0.0,0.0,0.0,0.0,0.0,0.0,0.0,0.0,0.0,0.0,0.0,0.0,0.0,0.0,0.0,0.0,0.0,0.0,0.0,0.0,0.0,0.0,0.0,0.0,0.0,0.0,0.0,0.0,0.0,0.0,0.0,0.0,0.0,0.0,0.0,0.0,0.0,0.0,0.0,0.0,0.0,0.0,0.0,0.0,0.0,0.0,0.0,0.0,0.0,0.0,0.0,0.0,0.0,0.0,0.0,0.0,0.0,0.0,0.0,0.0,0.0,0.0,0.0,0.0,0.0,0.0,0.0,0.0,0.0,0.0,0.0,0.0,1.5093,1.6843,1.8297,1.9215,1.9833,2.0067,1.9099,1.7787,1.6174,0.0,0.0,0.0,0.0,0.0,0.0,0.0,0.0,0.0,0.0,0.0,0.0,0.0,0.0,0.0,0.0,0.0,0.0,0.0,0.0,0.0,0.0,0.0,0.0,0.0,0.0,0.0,0.0,0.0,0.0,0.0,0.0,0.0,0.0,0.0,0.0,0.0,0.0,0.8828,1.0796,0.0,0.0,0.0,0.0,0.0,0.0,0.0,0.0,1.3157,0.0,0.0,0.0,0.0,0.0,0.0,0.0,0.0,0.0,0.0,0.0,0.0,0.0,0.0,0.0,0.0,0.0,0.0,0.0,0.0,0.0,0.0,0.0,0.0,0.0,0.0,0.0,0.0,0.0,0.0,0.0,0.0,0.0,0.0,0.0,0.0,0.0,0.0,0.0,0.0,0.0,0.0,0.0,0.0,0.0,0.0,0.0,0.0,0.0,0.0,0.0,0.0,0.0,0.0,0.0,0.0,1.387,1.5469,1.6975,1.8428,1.9281,1.9818,2.0052,1.9027,1.7867,1.6661,0.0,0.0,0.0,0.0,0.0,0.0,0.0,0.0,0.0,0.0,0.0,0.0,0.0,0.0,0.0,0.0,0.0,0.0,0.0,0.0,0.0,0.0,0.0,0.0,0.0,0.0,0.0,0.0,0.0,0.0,0.0,0.0,0.0,0.0,0.0,0.0,0.0,0.0,0.0,1.2623,1.3889,0.0,0.0,0.0,0.0,0.0,0.0,0.0,0.0,1.5291,0.0,0.0,0.0,0.0,0.0,0.0,0.0,0.0,0.0,0.0,0.0,0.0,0.0,0.0,0.0,0.0,0.0,0.0,0.0,0.0,0.0,0.0,0.0,0.0,0.0,0.0,0.0,0.0,0.0,0.0,0.0,0.0,0.0,0.0,0.0,0.0,0.0,0.0,0.0,0.0,0.0,0.0,0.0,0.0,0.0,0.0,0.0,0.0,0.0,0.0,0.0,0.0,0.0,0.0,0.0,1.4601,1.6128,1.7588,1.901,1.9471,1.9815,2.0021,1.8938,1.7828,0.0,0.0,0.0,0.0,0.0,0.0,0.0,0.0,0.0,0.0,0.0,0.0,0.0,0.0,0.0,0.0,0.0,0.0,0.0,0.0,0.0,0.0,0.0,0.0,0.0,0.0,0.0,0.0,0.0,0.0,0.0,0.0,0.0,0.0,0.0,0.0,0.0,0.0,0.0,0.0,1.3728,1.4846,1.4943,0.0,0.0,0.0,0.0,0.0,0.0,1.6461,1.6482,0.0,0.0,0.0,0.0,0.0,0.0,0.0,0.0,0.0,0.0,0.0,0.0,0.0,0.0,0.0,0.0,0.0,0.0,0.0,0.0,0.0,0.0,0.0,0.0,0.0,0.0,0.0,0.0,0.0,0.0,0.0,0.0,0.0,0.0,0.0,0.0,0.0,0.0,0.0,0.0,0.0,0.0,0.0,0.0,0.0,0.0,0.0,0.0,0.0,0.0,0.0,0.0,0.0,0.0,0.0,1.5165,1.6898,1.8431,1.9717,1.9881,2.0026,2.0175,1.8991,1.7829,0.0,0.0,0.0,0.0,0.0,0.0,0.0,0.0,0.0,0.0,0.0,0.0,0.0,0.0,0.0,0.0,0.0,0.0,0.0,0.0,0.0,0.0,0.0,0.0,0.0,0.0,0.0,0.0,0.0,0.0,0.0,0.0,0.0,0.0,0.0,0.0,0.0,0.0,0.0,0.0,0.0,1.5853,1.6895,1.6852,0.0,0.0,0.0,0.0,1.7513,1.7825,0.0,0.0,0.0,0.0,0.0,0.0,0.0,0.0,0.0,0.0,0.0,0.0,0.0,0.0,0.0,0.0,0.0,0.0,0.0,0.0,0.0,0.0,0.0,0.0,0.0,0.0,0.0,0.0,0.0,0.0,0.0,0.0,0.0,0.0,0.0,0.0,0.0,0.0,0.0,0.0,0.0,0.0,0.0,0.0,0.0,0.0,0.0,0.0,0.0,0.0,0.0,0.0,0.0,0.0,0.0,0.0,1.5292,1.7802,1.9503,2.0347,2.0567,2.0763,2.0944,1.9353,1.795,0.0,0.0,0.0,0.0,0.0,0.0,0.0,0.0,0.0,0.0,0.0,0.0,0.0,0.0,0.0,0.0,0.0,0.0,0.0,0.0,0.0,0.0,0.0,0.0,0.0,0.0,0.0,0.0,0.0,0.0,0.0,0.0,0.0,0.0,0.0,0.0,0.0,0.0,0.0,0.0,0.0,1.7505,1.7903,1.8417,1.862,0.0,0.0,1.9149,1.9298,1.9492,0.0,0.0,0.0,0.0,0.0,0.0,0.0,0.0,0.0,0.0,0.0,0.0,0.0,0.0,0.0,0.0,0.0,0.0,0.0,0.0,0.0,0.0,0.0,0.0,0.0,0.0,0.0,0.0,0.0,0.0,0.0,0.0,0.0,0.0,0.0,0.0,0.0,0.0,0.0,0.0,0.0,0.0,0.0,0.0,0.0,0.0,0.0,0.0,0.0,0.0,0.0,0.0,0.0,0.0,0.0,1.3531,1.5968,1.822,1.9941,2.1133,2.1299,2.1281,2.1115,1.9788,1.8367,0.0,0.0,0.0,0.0,0.0,0.0,0.0,0.0,0.0,0.0,0.0,0.0,0.0,0.0,0.0,0.0,0.0,0.0,0.0,0.0,0.0,0.0,0.0,0.0,0.0,0.0,0.0,0.0,0.0,0.0,0.0,0.0,0.0,0.0,0.0,0.0,0.0,0.0,0.0,0.0,0.0,0.0,1.9087,1.9919,0.0,0.0,0.0,2.0967,2.1096,0.0,0.0,0.0,0.0,0.0,0.0,0.0,0.0,0.0,0.0,0.0,0.0,0.0,0.0,0.0,0.0,0.0,0.0,0.0,0.0,0.0,0.0,0.0,0.0,0.0,0.0,0.0,0.0,0.0,0.0,0.0,0.0,0.0,0.0,0.0,0.0,0.0,0.0,0.0,0.0,0.0,0.0,0.0,0.0,0.0,0.0,0.0,0.0,0.0,0.0,0.0,0.0,0.0,0.0,0.0,0.0,0.0,1.6501,1.8771,2.0584,2.1889,2.2039,2.1859,2.1369,2.0218,0.0,0.0,0.0,0.0,0.0,0.0,0.0,0.0,0.0,0.0,0.0,0.0,0.0,0.0,0.0,0.0,0.0,0.0,0.0,0.0,0.0,0.0,0.0,0.0,0.0,0.0,0.0,0.6751,0.0,0.0,0.0,0.0,0.0,0.0,0.0,0.0,0.0,0.0,0.0,0.0,0.0,0.0,1.8911,2.0309,2.1242,2.1904,0.0,0.0,2.2524,2.2676,2.2823,2.2516,0.0,0.0,0.0,0.0,0.0,0.0,0.0,0.0,0.0,0.0,0.0,0.0,0.0,0.0,0.0,0.0,0.0,0.0,0.0,0.0,0.0,0.0,0.0,0.0,0.0,0.0,0.0,0.0,0.0,0.0,0.0,0.0,0.0,0.0,0.0,0.0,0.0,0.0,0.0,0.0,0.0,0.0,0.0,0.0,0.0,0.0,0.0,0.0,0.0,0.0,0.0,0.0,0.0,0.0,0.0,1.6608,1.9731,2.1754,2.2613,2.2818,2.2671,2.2123,2.0618,1.8883,0.0,0.0,0.0,0.0,0.0,0.0,0.0,0.0,0.0,0.0,0.0,0.0,0.0,0.0,0.0,0.0,0.0,0.0,0.0,0.0,0.0,0.0,0.0,0.0,0.0,0.0,0.0,0.0,0.0,0.0,0.0,0.0,0.0,0.0,0.0,0.0,0.0,0.0,0.0,0.0,0.0,2.0411,2.1446,2.2395,2.308,0.0,0.0,2.3778,2.3803,2.3972,2.3763,2.2875,0.0,0.0,0.0,0.0,0.0,0.0,0.0,0.0,0.0,0.0,0.0,0.0,0.0,0.0,0.0,0.0,0.0,0.0,0.0,0.0,0.0,0.0,0.0,0.0,0.0,0.0,0.0,0.0,0.0,0.0,0.0,0.0,0.0,0.0,0.0,0.0,0.0,0.0,0.0,0.0,0.0,0.0,0.0,0.0,0.0,0.0,0.0,0.0,0.0,0.0,0.0,0.0,0.0,1.4904,1.7734,2.0229,2.2076,2.3201,2.342,2.3061,2.2144,2.133,1.983,0.0,0.0,0.0,0.0,0.0,0.0,0.0,0.0,0.0,0.0,0.0,0.0,0.0,0.0,0.0,0.0,0.0,0.0,0.0,0.0,0.0,0.0,0.0,0.0,0.0,0.0,0.0,0.0,0.8774,0.9185,0.936,0.0,0.0,0.0,0.0,0.0,0.0,0.0,0.0,0.0,0.0,2.1109,2.2611,2.3575,0.0,0.0,2.4821,2.4988,2.5125,2.5121,2.4668,2.3353,2.2099,0.0,0.0,0.0,0.0,0.0,0.0,0.0,0.0,0.0,0.0,0.0,0.0,0.0,0.0,0.0,0.0,0.0,0.0,0.0,0.0,0.0,0.0,0.0,0.0,0.0,0.0,0.0,0.0,0.0,0.0,0.0,0.0,0.0,0.0,0.0,0.0,0.0,0.0,0.0,0.0,0.0,0.0,0.0,0.0,0.0,0.0,0.0,0.0,0.0,0.0,0.0,0.0,1.5403,1.8483,2.0713,2.2524,2.3879,2.4033,2.3655,2.2731,2.1942,2.0447,0.0,0.0,0.0,0.0,0.0,0.0,0.0,0.0,0.0,0.0,0.0,0.0,0.0,0.0,0.0,0.0,0.0,0.0,0.0,0.0,0.0,0.0,0.0,0.0,0.0,0.0,0.0,0.0,0.9557,0.9987,0.9855,0.0,0.0,0.0,0.0,0.0,0.0,0.0,0.0,0.0,0.0,2.1916,2.3499,2.4495,2.5208,2.5526,2.571,2.5837,2.5954,2.5925,2.5339,2.3869,0.0,0.0,0.0,0.0,0.0,0.0,0.0,0.0,0.0,0.0,0.0,0.0,0.0,0.0,0.0,0.0,0.0,0.0,0.0,0.0,0.0,0.0,0.0,0.0,0.0,0.0,0.0,0.0,0.0,0.0,1.0039,0.0,0.0,0.0,0.0,0.0,0.0,0.0,0.0,0.0,0.0,0.0,0.0,0.0,0.0,0.0,0.0,0.0,0.0,0.0,0.0,0.0,0.0,1.5936,1.8506,2.1242,2.3281,2.4515,2.4717,2.4526,2.4001,2.2336,2.0542,1.8701,0.0,0.0,0.0,0.0,0.0,0.0,0.0,0.0,0.0,0.0,0.0,0.0,0.0,0.0,0.0,0.0,0.0,0.0,0.0,0.0,0.0,0.0,0.0,0.0,0.0,0.0,0.9373,1.0026,1.042,0.0,0.0,0.0,0.0,0.0,0.0,0.0,0.0,0.0,0.0,2.1565,2.2969,2.4056,2.5063,2.5747,2.5965,2.6154,2.6268,2.6203,2.6202,2.5769,0.0,0.0,0.0,0.0,0.0,0.0,0.0,0.0,0.0,0.0,0.0,0.0,0.0,0.0,0.0,0.0,0.0,0.0,0.0,0.0,0.0,0.0,0.0,0.0,0.0,0.0,0.0,1.2722,1.2677,0.0,0.0,0.0,0.0,0.0,0.0,0.0,0.0,0.0,0.0,0.0,1.6347,1.5805,0.0,0.0,0.0,0.0,0.0,0.0,0.0,0.0,0.0,0.0,0.0,0.0,1.6196,1.9165,2.1515,2.3321,2.456,2.4638,2.4428,2.3917,2.2549,2.0562,1.7986,0.0,0.0,0.0,0.0,0.0,0.0,0.0,0.0,0.0,0.0,0.0,0.0,0.0,0.0,0.0,0.0,0.0,0.0,0.0,0.0,0.0,0.0,0.0,0.0,0.0,0.9195,0.0,0.0,0.0,0.0,0.0,0.0,0.0,0.0,0.0,0.0,0.0,1.9884,2.1813,2.3027,2.4138,2.5228,2.5762,2.6108,0.0,0.0,0.0,0.0,0.0,0.0,0.0,0.0,0.0,0.0,0.0,0.0,0.0,0.0,2.0646,1.8437,1.8,1.7892,1.7653,0.0,0.0,0.0,0.0,0.0,0.0,0.0,0.0,0.0,0.0,0.0,0.0,0.0,0.0,1.4954,0.0,1.3918,0.0,0.0,0.0,0.0,0.0,0.0,0.0,0.0,1.7807,1.8433,1.8905,1.8392,1.8331,0.0,1.8022,1.6334,0.0,0.0,0.0,0.0,0.0,0.0,0.0,0.0,1.7134,1.9908,2.2203,2.3879,2.49,2.4948,2.4796,2.4472,2.2687,2.0474,1.7855,1.6691,1.5199,0.0,0.0,0.0,0.0,0.0,0.0,0.0,0.0,0.0,0.0,0.0,0.0,0.0,0.0,0.0,0.0,0.0,0.0,0.0,0.0,0.0,0.0,0.0,1.044,0.0,0.0,0.0,0.0,0.0,0.0,0.0,0.0,0.0,1.7965,1.9489,2.125,2.3244,2.4053,2.4857,2.5956,0.0,0.0,0.0,0.0,0.0,0.0,0.0,2.6741,2.6003,2.5521,2.5174,2.4916,2.4994,2.5027,2.4846,0.0,0.0,2.1233,2.073,2.069,2.0651,2.0597,2.0567,2.0596,2.0846,2.1181,0.0,0.0,0.0,0.0,0.0,0.0,0.0,0.0,1.7878,1.7958,0.0,1.6486,0.0,0.0,0.0,0.0,0.0,1.6171,0.0,0.0,2.0579,2.142,2.1841,2.1792,2.1762,2.1634,2.0955,1.9914,1.8444,1.5812,0.0,0.0,0.0,0.0,0.0,0.0,1.8713,2.0696,2.3263,2.4945,2.56,2.5615,2.5601,2.5567,2.2792,2.0349,1.8454,1.7247,1.5956,1.454,1.317,0.0,0.0,0.0,0.0,0.0,0.0,0.0,0.0,0.0,0.0,0.0,0.0,0.0,0.0,0.0,0.0,0.0,0.0,0.0,0.0,1.1336,0.0,0.0,0.0,0.0,0.0,0.0,0.0,0.0,0.0,0.0,2.0337,2.0803,2.1851,2.4146,0.0,0.0,0.0,0.0,2.684,2.7713,2.7849,2.8076,2.8717,2.8652,2.8453,2.8204,0.0,0.0,2.711,2.7067,2.7054,2.6825,2.6843,2.6158,2.4358,2.384,2.3664,2.353,2.3523,2.3554,2.3544,2.3948,2.4488,1.9946,0.0,0.0,0.0,0.0,1.8539,1.9402,2.0432,2.1047,2.1343,2.1271,1.9682,0.0,0.0,0.0,0.0,0.0,0.0,2.0497,2.1995,2.2702,2.3279,2.3708,2.3087,2.2952,2.3213,2.2665,2.189,2.0921,2.0202,1.8261,1.5226,0.0,0.0,0.0,0.0,1.9947,2.2249,2.4008,2.5398,2.6435,2.6007,2.504,2.364,2.2454,2.114,1.9643,1.9021,1.8015,1.6511,1.5211,0.0,0.0,0.0,0.0,0.0,0.0,0.0,0.0,0.0,0.0,0.0,0.0,0.0,0.0,0.0,0.0,0.0,0.0,0.0,1.221,1.267,1.2864,0.0,0.0,0.0,0.0,0.0,0.0,0.0,0.0,0.0,2.3651,2.3645,2.3964,0.0,0.0,2.6228,2.7157,2.7327,2.7684,2.8552,2.8662,0.0,0.0,2.9499,2.9567,2.9952,3.0224,3.0303,3.006,3.0322,3.0514,3.0429,3.0202,2.9817,2.9222,2.7114,2.5564,2.5236,2.5509,2.5805,2.5759,2.6237,2.6695,2.3732,2.2258,2.0466,2.0207,2.1018,2.1564,2.2224,2.3,2.3512,2.3729,2.3667,2.237,2.1759,2.1588,2.0312,0.0,0.0,0.0,2.2863,2.4196,2.4371,2.4719,2.5083,2.4583,2.4437,2.4661,2.4365,2.3802,2.3051,2.3135,2.1891,1.9367,0.0,0.0,2.0092,2.0743,2.2037,2.3979,2.5369,2.6329,2.6933,2.6215,2.4837,2.281,2.2254,2.1474,2.0421,1.972,1.8948,1.7999,1.6693,1.5349,0.0,0.0,0.0,0.0,0.0,0.0,0.0,0.0,0.0,0.0,0.0,0.937,0.0,0.0,0.0,0.0,1.1856,1.3218,1.4349,1.4521,0.0,0.0,0.0,0.0,0.0,0.0,0.0,2.0129,2.1874,2.3732,2.5631,2.6006,2.6312,2.6903,2.7151,2.7472,2.8069,0.0,2.8874,2.9743,3.0127,3.0538,3.1179,3.1224,3.1328,3.1654,3.1945,3.2082,3.1962,3.217,3.232,3.2238,3.1989,3.1765,3.1654,2.9789,2.819,2.7806,2.7932,2.8094,2.7984,2.8222,2.8482,2.6623,2.6648,2.4356,2.3737,2.4281,2.4406,2.484,2.547,2.5531,2.5528,2.5421,2.4672,2.4225,2.398,2.3255,0.0,2.4112,2.4061,2.4731,2.5944,2.5733,2.5832,2.6176,2.6085,2.6036,2.5927,2.5936,2.5591,2.4919,2.4903,2.4616,2.3983,2.2402,2.2145,2.318,2.3811,2.4682,2.5821,2.7045,2.7508,2.7168,2.6313,2.4877,2.2858,2.2154,2.1506,2.08,1.9693,1.9086,1.9024,1.778,1.6514,1.5303,0.0,0.0,0.0,0.0,0.0,0.0,0.0,0.0,0.0,0.0,0.0,0.0,0.0,0.0,0.0,1.444,0.0,1.6589,1.6725,0.0,0.0,0.0,1.7829,1.7823,1.9728,2.137,2.2268,0.0,0.0,2.6773,2.7939,2.8698,2.8794,2.8793,2.8844,2.8986,2.9637,3.0408,3.1248,3.1945,3.2638,3.3193,3.3379,3.3377,3.3319,3.3297,3.3276,3.3189,3.3167,3.3051,3.2966,3.2737,3.2577,3.2313,3.2006,3.1637,3.0942,3.0518,3.0232,3.0042,2.9972,3.0011,2.8123,2.8201,2.7783,2.7215,2.6585,2.664,2.7103,2.785,2.7843,2.7811,2.772,2.6811,2.5945,2.518,2.4886,2.5219,2.6029,2.5981,2.6418,2.7215,2.6989,2.6881,2.6849,2.6708,2.6479,2.6287,2.6279,2.6152,2.595,2.595,2.5902,2.5855,2.5995,2.5705,2.5026,2.5679,2.6589,2.7715,2.8044,2.7816,2.6994,2.65,2.5201,2.3011,2.2313,2.1573,2.0815,2.014,1.9719,1.9586,1.8951,1.7936,1.6523,1.4934,0.0,0.0,0.0,0.0,0.0,0.0,0.0,0.0,0.0,1.2006,1.3638,0.0,1.421,0.0,1.6217,1.7367,1.8118,1.8644,0.0,0.0,1.9988,2.0704,2.0719,2.2641,2.4163,2.4637,2.5947,2.7295,2.8532,2.9639,3.0596,3.1267,3.0454,2.9974,3.0543,3.1272,3.1999,3.2702,3.3034,3.3389,3.4117,3.4704,3.498,3.5009,3.4981,3.4998,3.4947,3.4908,3.4863,3.4818,3.4635,3.4456,3.4336,3.4057,3.3689,3.326,3.2216,3.1204,3.098,3.12,3.1468,2.8833,2.8956,2.9249,2.9037,2.8473,2.8336,2.8524,2.8908,2.8882,2.8819,2.8694,2.8038,2.7428,2.6908,2.6783,2.7014,2.7482,2.7392,2.756,2.7947,2.7669,2.7451,2.7308,2.7068,2.6866,2.6666,2.6624,2.6564,2.6495,2.6487,2.6664,2.7077,2.7844,2.799,2.7562,2.7829,2.84,2.921,2.8758,2.811,2.7222,2.6437,2.5137,2.3289,2.2416,2.1661,2.0905,2.0318,1.9834,1.947,1.951,1.8801,1.7173,1.6239,1.5042,0.0,0.0,0.0,0.0,0.0,0.0,0.0,0.0,0.0,0.0,0.0,1.6867,1.7789,1.855,1.9263,1.9965,2.0636,2.1041,2.1041,2.2213,2.3017,2.3065,2.4542,2.5792,2.6445,2.7354,2.8537,3.0053,3.0931,3.1745,3.2658,3.2357,3.2087,3.2205,3.2808,3.3434,3.3812,3.4157,3.4512,3.4934,3.5323,3.5628,3.5628,3.5628,3.5628,3.56,3.5571,3.5543,3.5543,3.5406,3.5268,3.5268,3.5006,3.4679,3.4297,3.3485,3.2604,3.2077,3.2055,3.2177,2.9141,2.9264,2.9603,2.9777,2.9822,2.9602,2.9434,2.9297,2.9282,2.9158,2.8917,2.8755,2.8632,2.8531,2.8461,2.8479,2.8524,2.8419,2.836,2.834,2.8024,2.7828,2.7692,2.744,2.7222,2.7064,2.7008,2.69,2.6733,2.6733,2.7089,2.7807,2.8602,2.9302,2.9907,2.9843,2.9985,3.035,2.9362,2.8453,2.7686,2.6392,2.5003,2.3491,2.2536,2.1696,2.0947,2.0354,1.9721,1.9122,1.9757,1.9353,1.7616,1.7686,1.6992,0.0,1.4478,0.0,0.0,0.0,0.0,0.0,0.0,0.0,0.0,1.8007,1.9576,2.0718,2.0982,2.1311,2.1899,2.2618,2.3077,2.3107,2.4148,2.4938,2.5096,2.591,2.6872,2.7872,2.8535,2.9632,3.1237,3.1951,3.2645,3.3432,3.41,3.4235,3.3869,3.419,3.4607,3.4635,3.5188,3.5447,3.5526,3.5594,3.5628,3.5628,3.5628,3.5628,3.5628,3.56,3.5616,3.56,3.5537,3.5514,3.5514,3.5314,3.5065,3.4775,3.435,3.3796,3.306,3.2615,3.2439,2.9454,2.9537,2.9826,2.9992,3.0045,3.0085,3.0015,2.9852,2.9735,2.9481,2.9137,2.9115,2.8964,2.8749,2.8731,2.8712,2.8737,2.8675,2.8626,2.8619,2.8429,2.8302,2.8153,2.795,2.7701,2.7419,2.7334,2.7144,2.6859,2.6868,2.7182,2.7807,2.8611,2.9347,3.0053,0.0,0.0,0.0,2.9885,2.8996,2.8096,2.6976,2.5323,2.3114,2.2686,0.0,2.0529,2.0321,1.9929,1.9325,2.0054,0.0,0.0,0.0,0.0,0.0,0.0,0.0,0.0,0.0,0.0,0.0,1.9124,1.9411,1.9049,2.0297,2.1231,2.1505,2.2432,2.309,2.3246,2.4343,2.5061,2.5091,2.5847,2.6431,2.6585,2.7479,2.8323,2.8946,2.9961,3.0893,3.1729,3.2998,3.3993,3.4292,3.4917,3.5323,3.5188,3.5256,3.5374,3.5425,3.5526,3.5628,3.5628,3.5628,3.5628,3.5628,3.5628,3.5628,3.5628,3.5645,3.5633,3.5633,3.5588,3.5616,3.5616,3.5486,3.5388,3.5081,3.4703,3.4188,3.3385,3.2861,3.2492,2.9636,0.0,2.9984,3.0131,0.0,3.0296,3.0273,3.0152,3.0011,2.9722,2.9278,2.9238,2.9102,2.8887,2.8887,2.8906,2.8912,2.8821,2.8791,2.8785,2.8657,2.8524,2.8388,2.8235,2.7961,2.7607,2.7494,2.7279,2.6967,2.6917,2.7394,2.8383,2.8824,2.9559,3.0615,3.1014,3.1151,3.1052,2.9822,2.896,2.841,2.7007,2.5468,2.3855,0.0,0.0,0.0,0.0,0.0,0.0,0.0,0.0,0.0,0.0,0.0,1.9805,1.9257,1.9074,1.9444,1.9513,1.9721,2.0209,2.1145,2.154,2.1215,2.2079,2.2761,2.312,2.4018,2.4571,2.4627,2.5568,2.6177,2.6234,2.6971,2.7573,2.7805,2.8703,2.9537,3.0108,3.1112,3.2116,3.29,3.3738,3.4565,3.4974,3.5357,3.5628,3.5628,3.5628,3.5628,3.5628,3.5628,3.5628,3.5628,3.5628,3.5628,3.5628,3.5628,3.5628,3.5628,3.5932,3.6197,3.6231,3.6456,3.6744,3.6693,3.6427,3.6076,3.5828,3.5231,3.4513,3.3822,3.3166,3.2586,2.9805,2.9897,3.0124,3.0207,3.0221,3.0329,3.0412,3.0468,0.0,0.0,0.0,2.9627,2.9571,2.9427,2.9427,2.9354,2.9225,2.9166,2.9051,2.8899,2.881,2.8682,2.8563,2.8458,2.8194,2.7832,2.7674,2.7402,2.7114,2.6983,2.7573,2.8715,2.8951,2.9745,3.1089,3.1055,3.1014,3.0954,2.9576,2.8716,2.8481,2.6875,2.5584,2.4783,2.441,2.3617,2.2343,2.2271,2.1695,2.0493,2.1277,2.1522,2.1024,2.17,2.2096,2.1979,2.1673,2.1561,2.1844,2.1593,2.1616,2.2014,2.2648,2.3047,2.3037,2.349,2.4048,2.4713,2.5402,2.5803,2.5818,2.6558,2.7061,2.7089,2.7826,2.8441,2.8817,2.9718,3.0561,3.119,3.2196,3.3211,3.4047,3.446,3.4846,3.5436,3.5583,3.5628,3.5628,3.5628,3.5628,3.5628,3.5628,3.5628,3.5628,3.5628,3.5661,3.5847,3.5847,3.5847,3.6067,3.6552,3.6936,3.7004,3.7516,3.7787,3.7838,3.7364,3.6969,3.6823,3.5988,3.5119,3.4562,3.3781,3.3084,3.0079,3.0169,3.0259,3.0299,3.0276,3.0367,3.0682,3.1153,3.1024,3.0753,3.0472,3.1082,3.1253,3.1078,3.1066,3.0687,3.0057,3.0014,2.9635,2.9006,2.8976,2.8911,2.8846,2.8773,2.8575,2.8297,2.8048,2.7767,2.7442,2.7182,2.7442,2.8134,2.8707,2.9738,3.1031,3.0572,3.0251,3.0217,2.9414,2.8599,2.7859,2.6836,2.592,2.5093,2.4845,2.4287,2.3411,2.3319,2.2996,2.236,2.3087,2.3282,2.2815,2.3374,2.3702,2.3564,2.3105,2.2972,2.3276,2.294,2.2914,2.3327,2.3958,2.4335,2.4335,2.441,2.4739,2.5408,2.6162,2.6624,2.6693,2.7455,2.8061,2.8197,2.8543,2.9128,3.001,3.0668,3.138,3.2251,3.3311,3.4041,3.4398,3.4964,3.5391,3.5566,3.5628,3.5628,3.5678,3.5628,3.5628,3.5628,3.5628,3.5628,3.578,3.5633,3.5966,3.653,3.6615,3.6789,3.7302,3.7584,3.7736,3.7753,3.7939,3.8007,3.8007,3.7838,3.7694,3.754,3.7027,3.6459,3.587,3.5086,3.4238,3.0173,3.0204,3.0273,3.0311,3.0343,3.0832,3.1388,3.1983,3.2289,3.197,3.1328,3.1501,3.1519,3.1415,3.1409,3.1188,3.084,3.0393,3.0008,2.9635,2.9183,2.8976,2.8893,2.8875,2.8724,2.8447,2.8268,2.7947,2.7554,2.7347,2.7514,2.8023,2.8665,2.9331,2.9931,2.9677,2.9313,2.8855,2.8526,2.8153,2.7754,2.695,2.6327,2.5932,2.5726,2.5274,2.4488,2.4438,2.4149,2.3536,2.393,2.4227,2.4351,2.4603,2.483,2.5022,2.4614,2.429,2.4156,2.362,2.3563,2.4103,2.4425,2.4918,2.5633,2.5678,2.5824,2.615,2.6874,2.7375,2.7479,2.8434,2.9109,2.9249,3.0034,3.0788,3.1352,3.2112,3.2799,3.3422,3.4314,3.4947,3.5043,3.5357,3.56,3.5628,3.5628,3.5752,3.6163,3.6248,3.6265,3.6282,3.6586,3.6828,3.6828,3.685,3.6997,3.7376,3.7398,3.7533,3.791,3.8176,3.8481,3.8531,3.8797,3.9068,3.9068,3.8763,3.8504,3.8256,3.7611,3.6944,3.6291,3.5587,3.4707,3.0257,3.0248,3.0313,3.0453,3.0687,3.1488,3.2225,3.2862,3.3507,3.3293,3.2491,3.2181,3.201,3.1941,3.1941,3.1849,3.1586,3.1017,3.0558,3.0149,2.9555,2.9153,2.8929,2.8893,2.8767,2.8543,2.8386,2.8081,2.7659,2.7488,2.7594,2.8007,2.8487,2.8824,2.8993,2.8824,2.8416,2.7824,2.7655,2.7536,2.7519,2.6936,2.6606,2.6606,2.6469,2.6107,2.5572,2.5489,2.5255,2.4786,2.485,2.5126,2.5614,2.5573,2.5669,2.5915,2.5612,2.5117,2.4528,2.4114,2.407,2.456,2.4889,2.5558,2.6644,2.6961,2.7061,2.717,2.7878,2.8447,2.8771,2.9567,3.0282,3.0521,3.147,3.2203,3.2615,3.3391,3.4084,3.4482,3.5104,3.5537,3.5594,3.5628,3.5628,3.5628,3.5746,3.6146,3.6665,3.7004,3.7291,3.7359,3.7652,3.7792,3.791,3.7843,3.791,3.8091,3.8159,3.8278,3.8481,3.8949,3.9203,3.9288,3.9656,3.9926,4.0028,3.9643,3.9243,3.9026,3.8345,3.7419,3.655,3.5917,3.5095,3.0375,3.0384,3.0455,3.0896,3.1629,3.2328,3.3035,3.38,3.4357,3.4433,3.4076,3.3889,3.3644,3.3582,3.352,3.3128,3.2497,3.2406,3.158,3.0314,3.0136,2.9702,2.9024,2.8929,2.8834,2.8675,2.8414,2.8136,2.7767,2.7501,2.7577,2.7938,2.7953,2.8264,2.8798,2.8255,2.7858,2.7781,2.7131,2.6801,2.6793,2.6733,2.6708,2.67,2.6615,2.6546,2.6412,2.6428,2.6386,2.6378,2.6354,2.6396,2.6446,2.63,2.6123,2.5908,2.555,2.497,2.4281,2.4489,2.4672,2.4691,2.5752,2.6689,2.745,2.8066,2.8464,2.8695,2.9427,3.0012,3.0522,3.1063,3.1562,3.1897,3.248,3.2945,3.3699,3.4136,3.4605,3.5301,3.547,3.5588,3.56,3.565,3.5661,3.5746,3.6299,3.6767,3.7083,3.79,3.8628,3.8599,3.8367,3.8029,3.8046,3.7927,3.8311,3.8768,3.8916,3.9102,3.9508,3.9762,3.9965,3.9808,3.9977,4.0096,4.0113,3.9999,3.9914,3.9542,3.9053,3.845,3.7207,3.6368,3.5627,3.0444,3.0466,3.0479,3.1257,3.2469,3.322,3.396,3.4664,3.4807,3.4767,3.4585,3.4369,3.4136,3.3855,3.3855,3.3645,3.3293,3.2809,3.2002,3.0907,3.043,2.9763,2.9054,2.8929,2.8815,2.8688,2.8471,2.816,2.7782,2.738,2.7251,2.7376,2.7258,2.7317,2.7579,2.7317,2.7139,2.7122,2.686,2.6708,2.6708,2.6708,2.6708,2.6708,2.6674,2.664,2.6666,2.664,2.664,2.6666,2.6649,2.6589,2.6426,2.6321,2.6046,2.5647,2.5501,2.5197,2.4727,2.5137,2.5514,2.5764,2.6644,2.748,2.8171,2.9116,2.9824,3.0066,3.0239,3.0482,3.0977,3.1918,3.2705,3.3137,3.4175,3.5001,3.4868,3.5447,3.5819,3.5644,3.5577,3.5628,3.5684,3.6017,3.6265,3.6383,3.6975,3.7545,3.8019,3.8645,3.9119,3.9508,3.9372,3.9237,3.9169,3.9203,3.9339,3.9542,3.9643,3.9859,3.9977,4.0113,4.0096,4.0113,4.0113,4.0113,4.0113,4.0011,3.991,3.9612,3.8816,3.7956,3.6982,3.6414,3.5806,3.0492,3.0531,3.0733,3.1816,3.337,3.3875,3.4533,3.5161,3.5109,3.495,3.478,3.4626,3.4356,3.4061,3.3966,3.3888,3.373,3.2987,3.2167,3.1372,3.0577,2.9763,2.9054,2.8905,2.8791,2.8669,2.8408,2.8077,2.7642,2.72,2.6966,2.6942,2.6783,2.6708,2.6708,2.6708,2.6708,2.6708,2.6708,2.6708,2.6708,2.6708,2.6708,2.6708,2.6708,2.6708,2.6708,2.6708,2.6708,2.6708,2.6708,2.6573,2.6322,2.6215,2.599,2.566,2.5539,2.5512,2.5488,2.5883,2.6356,2.6912,2.7507,2.8231,2.9071,2.9968,3.0706,3.121,3.1276,3.1505,3.1811,3.3092,3.4045,3.4435,3.5968,3.6678,3.6307,3.6636,3.6547,3.6017,3.5752,3.5712,3.596,3.6411,3.6795,3.711,3.7736,3.8345,3.8886,3.9169,3.9542,4.0011,4.0079,4.0062,4.0113,3.9994,4.0113,4.0113,4.0045,4.0028,4.0113,4.0113,4.0113,4.0113,4.0113,4.01,4.01,3.9986,3.9703,3.9228,3.8458,3.7522,3.6861,3.6336,3.5925,3.0494,3.0643,3.1347,3.2667,3.4223,3.417,3.4562,3.5293,3.5238,3.5102,3.4974,3.4768,3.4577,3.437,3.4117,3.3959,3.3789,3.3025,3.2204,3.1372,3.0613,2.98,2.903,2.8858,2.8718,2.8606,2.8307,2.7843,2.7276,2.7032,2.6901,2.6884,2.6758,2.6708,2.6708,2.6708,2.6708,2.6708,2.6708,2.6708,2.6708,2.6708,2.6708,2.6708,2.6708,2.6708,2.6708,2.6708,2.6708,2.6708,2.6708,2.659,2.6313,2.6133,2.6049,2.61,2.5775,2.582,2.639,2.6807,2.7231,2.7715,2.8321,2.9084,3.0117,3.0476,3.0978,3.1847,3.277,3.3341,3.3603,3.4677,3.5683,3.614,3.7153,3.7734,3.7724,3.72,3.6851,3.6615,3.6113,3.6062,3.6631,3.6767,3.7257,3.7816,3.8493,3.9,3.9136,3.9609,3.996,4.0045,4.0113,4.0113,4.0113,4.0113,4.0113,4.0113,4.0113,4.0113,4.0113,4.0113,4.0113,4.0113,4.0113,4.01,4.0087,3.9854,3.9491,3.8969,3.826,3.7448,3.6769,3.6321,3.5925,3.1641,3.2183,3.2977,3.3675,3.4269,3.4776,3.5154,3.5364,3.5335,3.5254,3.5126,3.495,3.4786,3.4567,3.4263,3.4042,3.3858,3.351,3.2669,3.1482,3.1097,3.0265,2.9067,2.8899,2.8779,2.8632,2.8373,2.7915,2.7355,2.7088,2.6933,2.6893,2.6775,2.6708,2.6708,2.6708,2.6708,2.6708,2.6708,2.6708,2.6708,2.6708,2.6708,2.6708,2.6708,2.6708,2.6708,2.6708,2.6708,2.6708,2.6708,2.6547,2.6274,2.6173,2.6142,2.6241,2.6638,2.7001,2.7331,2.8066,2.8556,2.872,2.9514,3.0132,3.063,3.0982,3.1506,3.2367,3.3189,3.3892,3.4784,3.5776,3.663,3.713,3.798,3.843,3.8108,3.8053,3.7884,3.7021,3.6513,3.6682,3.7359,3.79,3.8307,3.8611,3.9237,3.9609,3.9711,3.9977,4.0113,4.0113,4.0113,4.0113,4.0113,4.0113,4.0113,4.0113,4.0113,4.0113,4.0113,4.0113,4.0113,4.0113,4.0113,4.01,4.0062,3.9709,3.9332,3.8766,3.8048,3.7448,3.6693,3.6367,3.5973,3.2703,3.3437,3.3987,3.4376,3.4681,3.5244,3.5486,3.5423,3.5409,3.5327,3.5209,3.5037,3.4864,3.4639,3.4316,3.4074,3.3864,3.3565,3.2809,3.1831,3.1519,3.0803,2.9916,2.9722,2.9612,2.9443,2.9069,2.8645,2.8121,2.7608,2.7324,2.7258,2.6911,2.6708,2.6708,2.6708,2.6708,2.6708,2.6708,2.6708,2.6708,2.6708,2.6708,2.6708,2.6708,2.6708,2.6708,2.6708,2.6708,2.6708,2.6708,2.6539,2.6238,2.6264,2.6416,2.673,2.7437,2.8149,2.8644,2.9286,2.9782,3.0089,3.0603,3.104,3.1187,3.1622,3.2164,3.2805,3.3762,3.4713,3.5737,3.6807,3.7536,3.7874,3.8714,3.914,3.8713,3.8848,3.8374,3.7477,3.7173,3.7483,3.8125,3.865,3.9022,3.9288,3.9825,4.0079,4.0113,4.0113,4.0113,4.0113,4.0113,4.0113,4.0113,4.0113,4.0113,4.0113,4.0113,4.0113,4.0113,4.0113,4.0113,4.0113,4.01,4.0087,3.9893,3.9566,3.9115,3.863,3.8105,3.7535,3.6968,3.6476,3.6163,3.3586,3.4273,3.425,3.4722,3.5342,3.5456,3.5497,3.5486,3.5439,3.5358,3.5226,3.5014,3.4782,3.4567,3.4239,3.403,3.3791,3.3191,3.2736,3.2442,3.1806,3.1427,3.1182,3.109,3.0975,3.0818,3.0396,2.9946,2.9475,2.8603,2.8083,2.7836,2.7165,2.6818,2.6716,2.67,2.6708,2.6708,2.6708,2.6708,2.6708,2.6708,2.6708,2.6708,2.6708,2.6708,2.6708,2.6708,2.6708,2.6708,2.6708,2.6555,2.6397,2.6554,2.6941,2.767,2.8153,2.9123,3.0365,3.0422,3.0917,3.1504,3.1619,3.1614,3.1872,3.2323,3.2748,3.3226,3.448,3.5816,3.6779,3.7901,3.8595,3.8572,3.9366,3.9897,3.9829,3.9389,3.8763,3.8125,3.7973,3.8244,3.8768,3.9102,3.9356,3.9829,4.0062,4.0113,4.0113,4.0113,4.0113,4.0113,4.0113,4.0113,4.0113,4.0113,4.0113,4.0113,4.0113,4.0113,4.0113,4.0113,4.0113,4.0113,4.0113,4.0087,3.9935,3.9609,3.9292,3.8807,3.8244,3.774,3.7268,3.6831,3.6507,3.4392,3.5091,3.5114,3.5248,3.5482,3.5484,3.5467,3.5423,3.5409,3.5312,3.5149,3.4968,3.4771,3.4498,3.4227,3.403,3.3876,3.354,3.314,3.2644,3.2332,3.1935,3.1531,3.1408,3.1245,3.1012,3.061,3.0213,2.983,2.9332,2.8768,2.8126,2.7777,2.7326,2.6876,2.675,2.6708,2.6708,2.6708,2.6708,2.6708,2.6708,2.6708,2.6708,2.6708,2.6708,2.6708,2.6708,2.6708,2.6708,2.6708,2.6791,2.7099,2.7791,2.8376,2.8852,2.9724,3.0455,3.117,3.1801,3.2135,3.2377,3.2366,3.2271,3.2221,3.2632,3.3136,3.3695,3.5013,3.6272,3.7297,3.8307,3.8959,3.9252,3.9788,4.0113,4.0045,3.9474,3.9208,3.9322,3.8971,3.9022,3.9542,3.9728,3.9791,4.0011,4.0113,4.0113,4.0113,4.0113,4.0113,4.0113,4.0113,4.0113,4.0113,4.013,4.018,4.0197,4.0197,4.0113,4.0113,4.0113,4.0113,4.0113,4.0113,4.0049,3.9897,3.9664,3.9362,3.8983,3.8469,3.8015,3.7579,3.7253,3.6967,3.5078,3.5522,3.5505,3.5503,3.55,3.5467,3.542,3.5361,3.5316,3.5194,3.5018,3.487,3.4658,3.438,3.4161,3.3992,3.3862,3.3809,3.3532,3.3109,3.3029,3.2742,3.2302,3.2258,3.214,3.1914,3.1624,3.1265,3.0884,3.0298,2.9713,2.9154,2.8408,2.7862,2.7384,2.6986,2.6767,2.6758,2.6725,2.6708,2.6708,2.6708,2.6708,2.6708,2.6708,2.6708,2.6708,2.6945,2.6987,2.681,2.6919,2.733,2.792,2.8734,2.9417,3.0009,3.0812,3.166,3.2404,3.298,3.3299,3.3231,3.3123,3.2817,3.2567,3.2913,3.3663,3.4179,3.5471,3.6737,3.7671,3.8495,3.9172,3.9651,3.9931,4.007,4.0028,3.9694,3.9592,3.9812,3.966,3.9706,3.996,4.0113,4.0113,4.0113,4.0113,4.0113,4.0113,4.0113,4.0113,4.0113,4.0113,4.0113,4.0113,4.0163,4.0248,4.0299,4.0333,4.0197,4.0113,4.0113,4.0113,4.0113,4.0113,4.0113,3.9973,3.9785,3.9481,3.9064,3.8736,3.8441,3.8101,3.7799,3.7519,3.5582,3.5576,3.5511,3.5474,3.5467,3.5416,3.5357,3.5278,3.5155,3.5041,3.4879,3.4699,3.4443,3.4215,3.4074,3.3934,3.3809,3.3814,3.3788,3.3715,3.3697,3.3605,3.3525,3.3441,3.3351,3.3266,3.3024,3.2787,3.2271,3.14,3.0881,3.0482,2.9137,2.8237,2.8082,2.7375,2.6978,2.6868,2.6775,2.6725,2.6793,2.6708,2.6776,2.6793,2.6742,2.6742,2.6962,2.7503,2.7562,2.7063,2.7602,2.8222,2.8813,2.9383,3.0206,3.0888,3.1544,3.2661,3.374,3.3959,3.3964,3.4047,3.3614,3.3203,3.2758,3.3441,3.4148,3.4483,3.5902,3.7203,3.7969,3.8664,3.9195,3.9648,3.9956,4.01,4.0113,4.0062,4.0113,4.0151,4.0151,4.0146,4.0197,4.0197,4.0113,4.0113,4.0113,4.0113,4.0113,4.0113,4.0113,4.0113,4.0113,4.0113,4.0113,4.0489,4.0591,4.0726,4.0777,4.0743,4.0337,4.0218,4.0113,4.0113,4.0075,4.0087,4.0024,3.9807,3.9642,3.9365,3.9107,3.8901,3.8567,3.8187,3.7943,3.5374,3.5393,3.5416,3.5386,3.5357,3.5327,3.5247,3.517,3.5063,3.4894,3.4735,3.4594,3.4357,3.4136,3.4036,3.3927,3.384,3.3807,3.3807,3.3807,3.3807,3.3807,3.3788,3.3768,3.3716,3.3549,3.3298,3.2988,3.2661,3.209,3.1507,3.0864,3.0179,2.9283,2.8466,2.7921,2.7419,2.6952,2.6775,2.7012,2.7376,2.6996,2.6996,2.7427,2.7012,2.7038,2.7511,2.8264,2.8628,2.8493,2.8993,2.9336,2.9595,3.0556,3.1322,3.1754,3.281,3.3667,3.4125,3.454,3.4565,3.4139,3.3665,3.3215,3.3067,3.3718,3.4377,3.5047,3.6378,3.7459,3.8071,3.8731,3.9355,3.9893,4.002,4.0087,4.0113,4.0113,4.0299,4.0743,4.0422,4.0371,4.0608,4.0405,4.013,4.0113,4.0113,4.0113,4.0113,4.0113,4.0113,4.0113,4.0113,4.0113,4.0248,4.0692,4.0997,4.117,4.1356,4.1593,4.1018,4.0476,4.0269,4.0113,3.9999,3.9973,3.9961,3.9858,3.9707,3.9432,3.9134,3.8791,3.8655,3.8361,3.8189,3.5251,3.527,3.5327,3.5346,3.5304,3.527,3.5186,3.5031,3.4889,3.472,3.4534,3.4399,3.4215,3.4023,3.3979,3.3901,3.382,3.3807,3.3807,3.3782,3.3773,3.376,3.3753,3.3732,3.3668,3.3567,3.3327,3.3055,3.2702,3.2378,3.1917,3.1403,3.0845,3.0032,2.9014,2.8314,2.787,2.7453,2.7267,2.7528,2.818,2.7901,2.7918,2.8188,2.7823,2.7887,2.8546,2.9024,2.9308,2.9537,3.0068,3.0513,3.0798,3.1748,3.2498,3.2783,3.3734,3.4303,3.4638,3.4912,3.4735,3.4238,3.3691,3.3491,3.3578,3.4059,3.4692,3.5413,3.6621,3.7427,3.803,3.8761,3.9408,3.9897,3.9956,3.9986,4.0087,4.0113,4.0438,4.0764,4.0612,4.0371,4.1072,4.054,4.0214,4.0113,4.0113,4.0113,4.0113,4.0113,4.0146,4.0185,4.0269,4.032,4.0608,4.1064,4.1847,4.2049,4.2222,4.2439,4.1614,4.0874,4.0417,4.0172,3.9994,3.982,3.9768,3.9622,3.9345,3.9094,3.886,3.8694,3.8528,3.8232,3.8118,3.517,3.5153,3.5243,3.5262,3.5258,3.519,3.5068,3.4913,3.4678,3.4478,3.4293,3.4154,3.4049,3.3901,3.3914,3.3862,3.3807,3.3807,3.3807,3.3787,3.3732,3.3689,3.3636,3.3626,3.3541,3.3444,3.333,3.3034,3.2679,3.2386,3.2214,3.182,3.1156,3.0481,2.9739,2.8879,2.8365,2.8177,2.8013,2.8332,2.8899,2.8874,2.8831,2.9016,2.8897,2.895,2.9342,2.9642,2.9825,3.0159,3.0881,3.1385,3.1999,3.2721,3.3372,3.3851,3.4118,3.458,3.5008,3.4897,3.4691,3.4238,3.3848,3.3842,3.4069,3.4499,3.5047,3.5855,3.6714,3.7472,3.8101,3.8832,3.9375,3.9776,3.978,3.9941,4.0062,4.0164,4.0498,4.1195,4.0751,4.0658,4.0861,4.0663,4.0113,4.0113,4.0113,4.0113,4.0113,4.0113,4.0235,4.0422,4.0506,4.0608,4.1014,4.1474,4.2405,4.3068,4.3254,4.3203,4.2145,4.1379,4.0731,4.0316,3.9951,3.9656,3.9441,3.9242,3.8942,3.8678,3.8397,3.8369,3.8343,3.7913,3.7681,3.485,3.4898,3.5063,3.5113,3.505,3.4996,3.4865,3.4673,3.4454,3.4281,3.4148,3.4061,3.3972,3.3895,3.3888,3.3873,3.3788,3.377,3.3807,3.3787,3.3671,3.3563,3.3473,3.3415,3.3371,3.3215,3.3109,3.2874,3.2539,3.2266,3.2047,3.1834,3.1468,3.097,3.0253,2.9793,2.941,2.8983,2.8784,2.911,2.96,2.939,2.9381,2.9758,2.9638,2.9534,2.9683,3.0074,3.0381,3.0703,3.1208,3.1629,3.2008,3.2951,3.3591,3.3813,3.4374,3.4722,3.4711,3.4703,3.4533,3.4101,3.3858,3.3905,3.4774,3.4924,3.5558,3.645,3.7235,3.7829,3.8427,3.8985,3.9295,3.9551,3.9947,4.0227,4.0311,4.0581,4.1298,4.2028,4.1623,4.1238,4.1847,4.0764,4.0286,4.0151,4.0113,4.0113,4.013,4.0146,4.0405,4.0696,4.1014,4.1234,4.1863,4.2354,4.3115,4.3724,4.3944,4.4028,4.2953,4.1873,4.1228,4.0501,3.9814,3.9494,3.9065,3.8678,3.8327,3.8142,3.7943,3.7863,3.7719,3.7404,3.7489,3.3725,3.4196,3.4339,3.4604,3.487,3.4836,3.4696,3.4482,3.4293,3.4136,3.4017,3.3934,3.3881,3.3848,3.386,3.3834,3.3697,3.3351,3.318,3.303,3.2687,3.2476,3.2697,3.2676,3.266,3.2815,3.281,3.2581,3.2283,3.2039,3.1721,3.1281,3.1369,3.081,3.0118,3.011,2.9969,2.9687,2.9571,2.9871,3.0405,3.0287,3.0085,3.0385,3.0269,3.0099,2.9958,3.008,3.0267,3.0502,3.1013,3.166,3.2166,3.3029,3.3597,3.3949,3.423,3.4606,3.4533,3.4533,3.4485,3.4213,3.4025,3.4638,3.529,3.5609,3.6139,3.6991,3.7551,3.7947,3.8483,3.8711,3.8944,3.9226,3.9655,4.0053,4.0393,4.0859,4.1618,4.2376,4.1643,4.1543,4.1371,4.0754,4.0295,4.0104,4.0113,4.0113,4.0316,4.0371,4.0747,4.1102,4.1508,4.1982,4.2709,4.3318,4.389,4.4245,4.4347,4.4364,4.3893,4.2772,4.1694,4.0894,4.0042,3.8961,3.8507,3.8124,3.7788,3.7448,3.7272,3.72,3.7234,3.7297,3.756,3.2462,3.3231,3.3312,3.3742,3.4289,3.4228,3.4049,3.3899,3.3783,3.3456,3.3501,3.3448,3.3196,3.3371,3.3493,3.361,3.3535,3.2957,3.2637,3.2519,3.1656,3.1484,3.163,3.1696,3.1833,3.2367,3.2436,3.2249,3.1985,3.1694,3.1176,3.0605,3.0923,3.0613,2.9752,3.0005,3.0391,3.0338,3.0298,3.048,3.1014,3.1038,3.0977,3.0844,3.0683,3.0472,3.0233,3.0156,3.0081,3.0087,3.0498,3.1371,3.2359,3.3034,3.3535,3.4053,3.4147,3.4226,3.4316,3.4374,3.4427,3.4436,3.4411,3.5013,3.5817,3.6185,3.6669,3.7229,3.7714,3.7742,3.8114,3.8286,3.8432,3.8707,3.9086,3.9714,4.0275,4.0952,4.1822,4.2465,4.1922,4.1536,4.1349,4.0912,4.0438,4.0062,4.0087,4.0134,4.032,4.0692,4.1068,4.1644,4.21,4.276,4.3501,4.371,4.4367,4.4454,4.457,4.4491,4.4412,4.3656,4.2484,4.1198,4.0193,3.9222,3.8359,3.7938,3.7511,3.6925,3.6816,3.6983,3.7132,3.7264,3.7597,3.1827,3.2085,3.2155,3.2275,3.2363,3.2334,3.2303,3.2056,3.2102,3.1912,3.1893,3.1837,3.1903,3.1956,3.2479,3.3028,3.3179,3.2559,3.2203,3.2042,3.1197,3.0743,3.0662,3.0787,3.1016,3.1237,3.1585,3.1766,3.1496,3.1006,3.0512,3.0279,3.0355,3.008,3.014,3.061,3.0925,3.0901,3.0888,3.1021,3.1103,3.1141,3.1102,3.0925,3.0753,3.0599,3.0453,3.0274,3.0227,3.029,3.0114,3.0768,3.17,3.2398,3.2903,3.3441,3.3681,3.3781,3.3915,3.4079,3.4167,3.4176,3.4278,3.4919,3.5862,3.6357,3.686,3.7366,3.7566,3.7476,3.755,3.7755,3.7887,3.819,3.8928,3.9713,3.9926,4.0736,4.1815,4.2534,4.1964,4.1352,4.1131,4.0807,4.0289,3.9999,4.0049,4.0037,4.0096,4.0713,4.1414,4.207,4.2763,4.3504,4.4279,4.4302,4.4508,4.4463,4.4485,4.4398,4.4307,4.4179,4.3289,4.1906,4.0754,3.9845,3.8963,3.8076,3.7681,3.7456,3.7198,3.6939,3.7316,3.7678,3.7701,3.0609,3.1127,3.1178,3.1431,3.1736,3.1764,3.1678,3.1537,3.1495,3.144,3.1384,3.1352,3.1295,3.1316,3.1545,3.2019,3.2053,3.1408,3.1029,3.0776,2.9987,2.9605,2.9607,2.9764,3.0153,3.0385,3.0616,3.0786,3.0834,3.0514,2.9827,2.9285,2.9617,2.9922,2.9897,3.0591,3.1089,3.119,3.119,3.1161,3.1065,3.1022,3.0912,3.0814,3.0671,3.0537,3.0485,3.0306,3.0237,3.0199,2.9897,3.016,3.0736,3.1318,3.2004,3.2909,3.3208,3.3366,3.3568,3.38,3.3937,3.4149,3.4414,3.5117,3.5974,3.6551,3.6998,3.7319,3.7269,3.7073,3.7147,3.7237,3.7224,3.743,3.8419,3.9078,3.9437,4.0438,4.1309,4.2037,4.1287,4.0795,4.0942,4.0571,4.0064,3.9922,3.9986,3.9961,3.9922,4.0794,4.1697,4.2419,4.311,4.3748,4.4325,4.4333,4.4386,4.4355,4.4312,4.4224,4.4095,4.3904,4.3421,4.2482,4.1442,4.0448,3.9314,3.8351,3.8162,3.7934,3.7552,3.7385,3.7781,3.806,3.8135,2.9503,3.0213,3.02,3.057,3.1107,3.1132,3.1044,3.0992,3.0889,3.0785,3.0782,3.0708,3.0601,3.0612,3.0692,3.0842,3.0898,3.0139,2.9828,2.9604,2.8741,2.8386,2.8516,2.8698,2.9067,2.9915,2.9925,2.9611,3.007,2.9738,2.8987,2.885,2.9482,2.9753,2.966,3.0625,3.1038,3.119,3.1161,3.1102,3.0895,3.0716,3.0613,3.0603,3.0485,3.0443,3.0526,3.038,3.0274,3.0119,2.9852,2.9665,2.9893,3.0069,3.0948,3.2318,3.2644,3.2926,3.3156,3.3382,3.3497,3.3694,3.4513,3.5152,3.5817,3.64,3.7077,3.7127,3.6876,3.6631,3.6662,3.6662,3.66,3.6832,3.7663,3.8553,3.8883,3.9493,4.01,4.0404,4.016,4.0286,4.0481,4.0354,3.9861,3.9862,3.991,3.9798,3.991,4.1067,4.1966,4.2726,4.3393,4.3914,4.4207,4.4107,4.4109,4.408,4.4008,4.3889,4.3728,4.3567,4.3015,4.2486,4.201,4.0976,3.9782,3.8835,3.8667,3.8374,3.7889,3.7918,3.8427,3.8667,3.8724,2.9077,2.9168,2.9192,2.9242,2.9376,2.9365,2.9269,2.9276,2.9229,2.9034,2.9185,2.9007,2.8977,2.899,2.942,3.0029,3.0258,2.9846,2.9342,2.9164,2.8337,2.7804,2.7805,2.8052,2.8605,2.9395,2.9744,2.9991,2.9933,2.8976,2.8587,2.8814,2.9085,2.9373,2.9939,3.0697,3.1157,3.1197,3.1082,3.0865,3.0582,3.041,3.0347,3.032,3.0309,3.0378,3.0537,3.0443,3.0342,3.0193,2.9804,2.9699,2.9815,2.9512,3.0049,3.1033,3.1836,3.2358,3.2561,3.2753,3.2886,3.3172,3.3751,3.4314,3.5286,3.6123,3.6705,3.66,3.6383,3.6242,3.6211,3.6211,3.6195,3.6606,3.7307,3.7914,3.8283,3.8903,3.9448,3.9211,3.9093,3.968,4.0084,3.9907,3.9742,3.9781,3.9785,3.9629,3.9861,4.0873,4.2036,4.2745,4.3268,4.3768,4.3964,4.3862,4.3772,4.3772,4.3608,4.3489,4.3233,4.2974,4.2711,4.2237,4.1821,4.1386,4.0332,3.959,3.9273,3.8955,3.8612,3.8774,3.9152,3.9257,3.9197,2.8987,2.8987,2.8987,2.8987,2.8981,2.8929,2.8881,2.8828,2.8706,2.8581,2.8466,2.8388,2.8255,2.8191,2.8386,2.8703,2.9041,2.8778,2.8539,2.8553,2.7928,2.7524,2.7507,2.7842,2.8423,2.9058,2.9368,2.9694,2.9625,2.9557,2.9194,2.901,2.9407,2.977,3.0188,3.0767,3.1007,3.0995,3.0787,3.0499,3.022,2.9995,2.9859,2.9886,2.9946,3.013,3.0306,3.0295,3.0162,2.9946,2.9517,2.9131,2.9095,2.8988,2.9262,2.9554,3.0665,3.1509,3.2169,3.2327,3.2424,3.2813,3.3522,3.4635,3.5459,3.5984,3.6289,3.6241,3.6037,3.591,3.5815,3.5798,3.5765,3.6127,3.6979,3.7209,3.7662,3.8406,3.8825,3.8416,3.8107,3.8665,3.9137,3.9116,3.9061,3.9239,3.9215,3.9083,3.9432,4.0217,4.1424,4.2614,4.3083,4.3519,4.3565,4.3567,4.3416,4.3324,4.3065,4.2896,4.2585,4.2333,4.211,4.1786,4.1312,4.0894,4.0512,4.0163,3.9671,3.9504,3.9384,3.9379,3.9361,3.9361,3.9316,2.8994,2.8982,2.8964,2.8976,2.8953,2.8864,2.8785,2.8706,2.8481,2.8322,2.8174,2.8042,2.7868,2.7723,2.7677,2.7819,2.7913,2.777,2.7755,2.7682,2.7557,2.7486,2.7606,2.7956,2.8463,2.932,2.9451,2.982,3.0251,3.0251,2.9948,2.9322,2.9715,3.0128,3.0393,3.0673,3.0875,3.0654,3.0362,3.0032,2.9705,2.9465,2.9387,2.9425,2.9542,2.9732,2.9984,2.9957,2.9832,2.9671,2.92,2.8775,2.8535,2.8492,2.8619,2.897,2.9827,3.0718,3.144,3.1841,3.2033,3.2546,3.3429,3.4531,3.5672,3.591,3.5877,3.5877,3.5766,3.5671,3.5622,3.5555,3.557,3.5899,3.6514,3.6638,3.687,3.757,3.7926,3.7622,3.7369,3.7374,3.779,3.8069,3.8284,3.8595,3.8614,3.852,3.8969,3.9577,4.0642,4.184,4.2463,4.2909,4.3295,4.3265,4.3096,4.2881,4.2632,4.2317,4.2013,4.177,4.1557,4.119,4.08,4.0578,4.0301,4.0178,4.0056,3.9748,3.9502,3.9418,3.9406,3.9361,3.9346,2.8958,2.8911,2.8911,2.887,2.8804,2.8675,2.8593,2.8492,2.8131,2.7947,2.7789,2.7592,2.7463,2.7402,2.7347,2.7378,2.7517,2.7526,2.7549,2.7486,2.7407,2.7561,2.7809,2.8134,2.8628,2.9762,2.9989,3.0412,3.0903,3.092,3.0581,3.0166,3.014,3.0412,3.0583,3.0667,3.0431,3.0188,2.987,2.9517,2.9166,2.8939,2.8881,2.8885,2.9117,2.9425,2.9622,2.9577,2.9499,2.9403,2.8928,2.8527,2.8232,2.8064,2.8154,2.8541,2.9295,3.0111,3.066,3.1323,3.1597,3.1972,3.2916,3.4345,3.5503,3.5587,3.5538,3.5587,3.5555,3.5539,3.5522,3.5489,3.5489,3.5744,3.6163,3.6375,3.65,3.6618,3.6899,3.6732,3.6677,3.6707,3.6832,3.7178,3.7578,3.787,3.7915,3.7832,3.8187,3.8793,3.9787,4.08,4.1556,4.2212,4.2984,4.3006,4.2851,4.2554,4.2254,4.1851,4.144,4.1224,4.0972,4.0734,4.0385,4.0244,4.0041,3.9745,3.9577,3.9639,3.9529,3.9161,3.8958,3.8838,3.8943,2.8941,2.884,2.8815,2.8822,2.8804,2.8656,2.8517,2.8347,2.7986,2.7647,2.7352,2.7231,2.7144,2.7128,2.712,2.7127,2.7238,2.7254,2.7277,2.7263,2.7238,2.751,2.7896,2.8523,2.911,3.0031,3.0504,3.0835,3.1123,3.1161,3.103,3.0704,3.0498,3.0673,3.0804,3.0472,3.0011,2.9633,2.9353,2.9009,2.87,2.851,2.845,2.8453,2.8585,2.8791,2.89,2.8912,2.8869,2.8744,2.8458,2.8207,2.8014,2.7788,2.7843,2.8199,2.9024,2.9683,3.0148,3.0972,3.1809,3.2826,3.3634,3.4487,3.54,3.5489,3.5489,3.5489,3.5489,3.5489,3.5489,3.5489,3.5519,3.5669,3.5863,3.6103,3.6193,3.6252,3.6244,3.6228,3.6146,3.6113,3.6242,3.643,3.68,3.7148,3.715,3.7213,3.7542,3.8027,3.8998,4.0022,4.0811,4.1763,4.2565,4.2648,4.2586,4.2238,4.1867,4.1406,4.0969,4.0558,4.0316,4.0121,3.9973,3.9804,3.9559,3.9189,3.9135,3.9336,3.9043,3.8559,3.8404,3.8315,3.8389,2.8917,2.8816,2.8773,2.8749,2.87,2.8568,2.84,2.8178,2.7818,2.7423,2.6972,2.6933,2.6917,2.6917,2.6908,2.6966,2.7039,2.7055,2.7054,2.7047,2.7092,2.753,2.8193,2.8835,2.9413,3.0256,3.0777,3.1121,3.1005,3.1052,3.0912,3.0804,3.0794,3.0706,3.0576,3.0145,2.9572,2.9124,2.8897,2.8578,2.8259,2.8189,2.8125,2.8137,2.8271,2.8405,2.847,2.8479,2.8446,2.8317,2.8125,2.7927,2.779,2.7718,2.7705,2.8186,2.883,2.9623,3.0133,3.1091,3.2288,3.323,3.4009,3.4726,3.528,3.5489,3.5489,3.5489,3.5489,3.5489,3.5474,3.5489,3.5489,3.5609,3.5729,3.5923,3.5848,3.5848,3.5808,3.577,3.5732,3.5734,3.5798,3.5989,3.6274,3.6569,3.66,3.6616,3.6723,3.7327,3.8183,3.9219,4.023,4.123,4.2204,4.2253,4.2254,4.1802,4.1423,4.0952,4.0505,4.0137,3.991,3.9862,3.968,3.9399,3.8995,3.8552,3.8755,3.9108,3.8585,3.7943,3.7896,3.7806,3.7686,2.8929,2.8798,2.8737,2.8626,2.8504,2.8367,2.8191,2.7954,2.7579,2.7141,2.6766,2.6742,2.6733,2.6742,2.6758,2.6808,2.6892,2.6909,2.6933,2.695,2.6926,2.7725,2.8404,2.8976,2.9263,3.0604,3.0851,3.0704,3.0643,3.0709,3.0644,3.0437,3.0279,3.0183,3.0235,2.975,2.917,2.8634,2.8538,2.8229,2.7989,2.7943,2.7903,2.7915,2.8026,2.8122,2.8134,2.8131,2.8122,2.8073,2.7927,2.7803,2.7738,2.7663,2.7869,2.8487,2.9159,2.9847,3.0492,3.1749,3.2632,3.3244,3.3811,3.4468,3.5158,3.5368,3.5204,3.498,3.5265,3.5385,3.5444,3.5489,3.5489,3.5534,3.5654,3.5699,3.5639,3.5609,3.5598,3.5584,3.5537,3.5506,3.5506,3.5603,3.5829,3.6005,3.6037,3.6113,3.625,3.6774,3.7672,3.8831,3.9922,4.0783,4.1693,4.1933,4.1867,4.144,4.0987,4.0539,4.0242,3.996,3.9785,3.9639,3.9282,3.8908,3.8387,3.7868,3.7935,3.7912,3.7785,3.7389,3.7342,3.7208,3.6984,2.8929,2.8804,2.8737,2.8543,2.832,2.8205,2.8011,2.7674,2.7271,2.6925,2.675,2.6708,2.6708,2.6708,2.6708,2.6716,2.6767,2.6775,2.68,2.68,2.6733,2.7274,2.794,2.8325,2.863,2.9346,2.9773,2.9989,2.9825,3.0094,3.0203,3.0027,2.9633,2.9432,2.9343,2.9039,2.8571,2.8232,2.8073,2.7912,2.7713,2.77,2.7713,2.7675,2.7788,2.7838,2.7823,2.7863,2.785,2.785,2.77,2.7688,2.7675,2.76,2.7944,2.859,2.9279,3.0117,3.0958,3.193,3.2392,3.2808,3.3284,3.3774,3.403,3.4046,3.4063,3.4351,3.4757,3.4847,3.4817,3.5295,3.5444,3.5489,3.5564,3.5564,3.5519,3.5519,3.5521,3.5521,3.5489,3.5489,3.5489,3.5489,3.5667,3.5701,3.5765,3.6126,3.6321,3.6692,3.7372,3.8669,3.9761,4.0515,4.114,4.1362,4.1391,4.1021,4.0593,4.0172,3.9922,3.9702,3.9342,3.9025,3.8707,3.836,3.7708,3.712,3.6701,3.6522,3.6656,3.6611,3.6432,3.6252,3.6028,2.8888,2.8736,2.8637,2.8408,2.815,2.8039,2.7763,2.738,2.7057,2.6826,2.6725,2.6708,2.6708,2.6708,2.6708,2.6708,2.6708,2.6708,2.6708,2.67,2.6623,2.7111,2.7487,2.7599,2.8024,2.846,2.877,2.8966,2.8707,2.9266,2.9399,2.9239,2.8951,2.8791,2.8685,2.847,2.8277,2.8014,2.7878,2.7775,2.765,2.7597,2.7612,2.7597,2.761,2.7597,2.7585,2.7585,2.7585,2.7585,2.7585,2.7585,2.7585,2.7675,2.8064,2.8815,2.9808,3.0529,3.1174,3.1234,3.1482,3.1495,3.2381,3.3039,3.3252,3.3462,3.3511,3.3737,3.4098,3.4368,3.4578,3.5115,3.5444,3.5489,3.5489,3.5489,3.5489,3.5489,3.5489,3.5489,3.5489,3.5489,3.5489,3.5489,3.5538,3.5522,3.5521,3.5953,3.6434,3.6869,3.7411,3.8659,3.9636,4.0311,4.0698,4.0789,4.0732,4.0574,4.0226,3.9854,3.9528,3.9295,3.8879,3.8377,3.7918,3.7426,3.6868,3.6372,3.6103,3.5968,3.5983,3.5833,3.5519,3.5489,3.5489,2.8785,2.8581,2.8445,2.8214,2.7989,2.7821,2.7446,2.6999,2.6934,2.6826,2.6708,2.6708,2.6708,2.6708,2.6708,2.6708,2.6708,2.6708,2.6708,2.6674,2.6623,2.7051,2.7222,2.7322,2.7372,2.773,2.7971,2.7808,2.749,2.8125,2.8421,2.8439,2.8396,2.8277,2.8186,2.8097,2.7999,2.7828,2.7765,2.7688,2.7612,2.7585,2.7585,2.7585,2.7585,2.7585,2.7585,2.7585,2.7585,2.7585,2.7585,2.7585,2.7585,2.7585,2.8425,2.9419,3.0531,3.0851,3.0851,3.0728,3.0427,3.0599,3.1644,3.2602,3.2861,3.2653,3.2686,3.3152,3.3663,3.4082,3.4473,3.4981,3.5489,3.5489,3.5489,3.5489,3.5489,3.5489,3.5489,3.5489,3.5489,3.5489,3.5489,3.5489,3.5424,3.5489,3.5609,3.6088,3.6585,3.7147,3.7797,3.8817,3.9651,4.0128,4.0335,4.0385,4.0298,4.0176,3.9932,3.958,3.9257,3.8844,3.8395,3.7823,3.7077,3.6522,3.6178,3.5908,3.5669,3.5579,3.5669,3.5624,3.5489,3.5489,3.5489,2.86,2.8432,2.8203,2.7971,2.7738,2.7394,2.7104,2.6934,2.6826,2.6716,2.6708,2.6708,2.6708,2.6708,2.6708,2.6708,2.6708,2.6708,2.6708,2.6657,2.658,2.6628,2.6604,2.6559,2.6472,2.6504,2.6646,2.6744,2.675,2.7204,2.7527,2.7595,2.785,2.7857,2.7853,2.78,2.7725,2.7688,2.769,2.7638,2.7612,2.7585,2.7585,2.7585,2.7585,2.7585,2.7585,2.7585,2.7585,2.7585,2.7585,2.7585,2.7585,2.7645,2.8173,2.9286,3.0246,3.0821,3.0627,3.0206,2.9839,2.9623,3.0169,3.0466,3.0905,3.1327,3.1524,3.2225,3.3151,3.3658,3.4167,3.4706,3.5215,3.5441,3.5441,3.5457,3.5457,3.5455,3.5455,3.5343,3.5343,3.531,3.5343,3.5343,3.5294,3.5424,3.5682,3.6128,3.6638,3.7182,3.8002,3.9021,3.942,3.9799,3.9948,3.9998,3.9895,3.977,3.9535,3.9232,3.8849,3.8409,3.793,3.7272,3.6493,3.6013,3.5667,3.5488,3.5489,3.5489,3.5549,3.5519,3.5489,3.5457,3.5441,2.8315,2.8094,2.7926,2.7686,2.7402,2.7087,2.6909,2.6817,2.6725,2.6708,2.6708,2.6708,2.6708,2.6708,2.6708,2.6691,2.6649,2.6657,2.6649,2.6589,2.6529,2.6441,2.624,2.6026,2.5873,2.5736,2.5602,2.5657,2.5759,2.6248,2.665,2.6947,2.7325,2.7552,2.7587,2.7577,2.759,2.7587,2.76,2.7585,2.7585,2.7585,2.7585,2.7585,2.7585,2.7585,2.7585,2.7585,2.7585,2.7585,2.7585,2.7585,2.7754,2.7998,2.8225,2.9262,2.9988,3.0242,3.0038,2.9574,2.9247,2.8962,2.8691,2.8938,2.9474,3.0039,3.0545,3.1188,3.231,3.3262,3.3815,3.4355,3.488,3.5374,3.5392,3.5408,3.5408,3.5407,3.5309,3.5179,3.5113,3.5095,3.5095,3.5096,3.5096,3.508,3.535,3.5855,3.6427,3.7064,3.7985,3.902,3.9197,3.9361,3.9466,3.9571,3.9535,3.9364,3.9085,3.8771,3.8392,3.7764,3.7088,3.6492,3.588,3.5609,3.5488,3.5488,3.5489,3.5489,3.5457,3.5424,3.5392,3.5343,3.5326,2.7961,2.7711,2.7607,2.738,2.7015,2.6942,2.6834,2.67,2.6691,2.6708,2.6691,2.6674,2.6674,2.6666,2.6674,2.6657,2.6623,2.6623,2.658,2.651,2.6468,2.6364,2.6205,2.6017,2.5717,2.5359,2.5092,2.499,2.4743,2.5315,2.6123,2.6352,2.6986,2.7321,2.7437,2.7452,2.7488,2.7587,2.7585,2.7585,2.7585,2.7585,2.7585,2.7585,2.7585,2.7585,2.7585,2.7585,2.7585,2.7585,2.7585,2.7585,2.7867,2.8485,2.8765,2.9,2.9635,2.9685,2.942,2.8928,2.8463,2.8072,2.7676,2.7908,2.8449,2.9168,2.9776,3.0557,3.1655,3.2465,3.3058,3.3976,3.4659,3.4902,3.4951,3.5016,3.5063,3.4999,3.4852,3.4719,3.4618,3.4585,3.4517,3.4503,3.4536,3.4585,3.4764,3.5314,3.6002,3.6684,3.765,3.8685,3.8851,3.8889,3.8998,3.9086,3.9137,3.8981,3.8618,3.818,3.7692,3.6951,3.6156,3.5796,3.5511,3.5532,3.5457,3.5473,3.5504,3.5488,3.5455,3.5359,3.5262,3.5115,3.5047,2.7667,2.7539,2.7475,2.7264,2.7007,2.6992,2.6867,2.6708,2.664,2.6623,2.6606,2.6572,2.6572,2.6598,2.6606,2.6598,2.6589,2.6572,2.6554,2.6468,2.6399,2.6293,2.615,2.5936,2.5642,2.5355,2.5005,2.4554,2.4399,2.4984,2.5592,2.5785,2.6522,2.7117,2.7361,2.7389,2.745,2.7572,2.7585,2.7585,2.7585,2.7585,2.7585,2.7585,2.7585,2.7585,2.7585,2.7585,2.7585,2.7585,2.7585,2.7537,2.7495,2.8406,2.8676,2.8656,2.9086,2.9191,2.8869,2.8365,2.7921,2.7623,2.7373,2.7386,2.7723,2.846,2.9225,3.0057,3.0889,3.1632,3.2423,3.3448,3.4305,3.4387,3.4471,3.4568,3.465,3.4517,3.4353,3.4184,3.4065,3.3948,3.3879,3.3879,3.3965,3.3985,3.4002,3.4387,3.5168,3.5913,3.6793,3.7721,3.8264,3.8389,3.8482,3.8494,3.8479,3.8267,3.7893,3.7432,3.6913,3.6097,3.5324,3.5373,3.5292,3.5326,3.5392,3.5488,3.5488,3.5455,3.531,3.5164,3.4835,3.4637,3.4568,2.7332,2.7288,2.7225,2.7105,2.6966,2.6967,2.6842,2.6657,2.6521,2.646,2.6416,2.6416,2.6442,2.6469,2.6486,2.6486,2.6486,2.6529,2.6399,2.6302,2.6267,2.6178,2.6025,2.5853,2.5621,2.5327,2.4741,2.4322,2.4137,2.4489,2.497,2.5369,2.6245,2.685,2.7168,2.7323,2.7412,2.7585,2.7572,2.7587,2.7587,2.7585,2.7585,2.7585,2.7585,2.7585,2.7585,2.7585,2.7585,2.7562,2.7537,2.7229,2.7342,2.8038,2.8254,2.8248,2.8458,2.8867,2.8384,2.7908,2.7456,2.7188,2.6964,2.693,2.7053,2.7729,2.8235,2.9085,3.0385,3.1226,3.1738,3.2605,3.3391,3.3739,3.3808,3.3891,3.3908,3.3825,3.3482,3.3062,3.2938,3.2818,3.2712,3.2555,3.2698,3.2942,3.3017,3.368,3.4434,3.4915,3.5869,3.6664,3.7157,3.7658,3.7844,3.781,3.7742,3.7463,3.7034,3.6277,3.5546,3.498,3.452,3.4817,3.5032,3.5164,3.5261,3.5407,3.5392,3.5343,3.5148,3.4951,3.457,3.4133,3.3857,2.7071,2.6999,2.7032,2.7,2.6926,2.6917,2.6809,2.6598,2.6408,2.6259,2.6203,2.6224,2.6251,2.6304,2.6357,2.6322,2.6331,2.6417,2.6268,2.6142,2.6088,2.6007,2.5908,2.5798,2.5508,2.5103,2.4549,2.4188,2.3932,2.4313,2.4725,2.5166,2.5712,2.6263,2.6913,2.7194,2.7271,2.7448,2.7511,2.7549,2.7575,2.7585,2.7585,2.7585,2.7585,2.7585,2.7587,2.7562,2.7562,2.7499,2.7399,2.7089,2.7128,2.7663,2.7611,2.7702,2.8101,2.8198,2.7858,2.744,2.7087,2.6811,2.6602,2.6572,2.6731,2.7007,2.7527,2.8279,2.9572,3.0515,3.1007,3.1708,3.2443,3.2921,3.2991,3.3076,3.3076,3.3041,3.2547,3.2055,3.1946,3.1823,3.1695,3.1497,3.1621,3.1859,3.2308,3.3076,3.3682,3.3927,3.4495,3.5277,3.5908,3.6401,3.6978,3.6817,3.661,3.6287,3.5756,3.4935,3.4288,3.4048,3.4094,3.4532,3.4733,3.4949,3.5195,3.5374,3.5326,3.5213,3.5016,3.4767,3.4199,3.3722,3.3076,2.7007,2.7007,2.717,2.7138,2.6991,2.6992,2.6826,2.6606,2.6374,2.6207,2.6081,2.5999,2.6036,2.6213,2.6294,2.6295,2.6269,2.6304,2.6198,2.6054,2.5899,2.58,2.5698,2.5558,2.5269,2.4866,2.4472,2.4188,2.3938,2.4186,2.463,2.5176,2.568,2.6259,2.6899,2.7081,2.7144,2.731,2.7425,2.7478,2.7488,2.7526,2.7572,2.7585,2.7585,2.7524,2.7476,2.7437,2.7374,2.731,2.722,2.692,2.6912,2.7215,2.7264,2.7136,2.7554,2.766,2.7371,2.7087,2.6794,2.6726,2.6585,2.6504,2.6611,2.6679,2.7071,2.7284,2.8399,2.9342,3.0007,3.0943,3.1705,3.1791,3.1864,3.1932,3.1969,3.1859,3.1598,3.1357,3.1265,3.1185,3.111,3.1017,3.1035,3.123,3.1327,3.2078,3.2867,3.306,3.3263,3.3955,3.4718,3.5352,3.5984,3.5432,3.5145,3.4876,3.4535,3.3802,3.3405,3.3445,3.3608,3.4057,3.4498,3.4783,3.503,3.5212,3.5212,3.5113,3.4898,3.4566,3.3942,3.3301,3.2646]}]]